GFSGBSN_con_sbcape_000.txt.gz
CAPE
15 16 15 20 12 0 0 12 0 1 1 3 2 1 1 3 4 9 6 3 0 1 0 0 1 2 0 0 0 7 388 286 0 0 0 0 0 0 0 0 0 0 0 0 0 0 0
0 0 11 18 10 0 1 9 8 0 1 2 1 1 2 1 3 3 4 4 0 0 0 0 1 1 0 0 0 0 1 0 0 0 0 0 0 0 0 0 0 0 0 0 0 0 0
0 0 0 10 0 0 1 3 3 1 1 2 3 0 1 6 3 3 2 1 0 0 1 1 3 0 0 0 0 0 0 0 0 0 0 0 0 0 0 0 0 0 0 0 0 0 0
0 0 0 0 0 0 0 0 0 2 0 0 2 0 1 0 2 1 0 0 0 1 2 2 3 0 0 0 0 0 0 0 0 0 0 0 0 0 0 0 0 0 0 0 0 0 0
0 0 0 0 0 0 0 0 0 0 0 0 0 0 0 0 0 0 0 0 1 1 1 4 0 0 0 0 0 0 0 0 0 0 0 0 0 0 0 0 0 0 0 0 0 0 0
0 0 0 0 0 0 0 0 0 0 0 0 0 0 0 1 1 0 0 1 1 3 1 0 0 0 0 0 0 0 0 0 0 0 0 0 0 0 0 0 0 0 0 0 0 0 0
0 0 0 0 0 0 0 0 3 0 0 0 0 2 2 2 1 0 1 1 0 0 0 0 0 0 0 0 0 0 0 0 0 0 0 0 0 0 0 0 0 0 0 0 0 0 0
0 0 0 0 0 0 0 0 2 1 2 2 2 0 0 2 1 0 1 0 0 0 4 0 0 0 0 0 0 0 0 0 0 0 0 0 0 0 0 0 0 0 0 0 0 0 0
0 0 0 0 0 0 0 0 1 0 0 0 0 0 0 1 2 7 0 0 0 0 2 0 0 0 0 0 0 0 0 0 0 0 0 0 0 0 0 0 0 0 0 0 0 0 0
0 0 0 0 0 0 0 0 0 0 0 0 0 0 0 0 1 0 0 0 0 0 0 0 0 0 0 0 0 0 0 0 0 0 0 0 0 0 0 0 0 0 0 0 0 0 0
0 0 0 0 0 0 0 0 0 0 0 0 0 0 0 0 0 3 27 125 0 0 0 0 0 0 0 0 0 0 0 0 0 0 0 0 0 0 0 0 0 0 0 0 0 0 0
0 0 0 0 0 0 0 0 0 0 0 1 0 0 0 2 0 0 0 0 0 0 0 0 0 0 0 0 0 0 0 0 0 0 0 0 0 0 0 0 0 0 0 0 0 0 0
0 0 0 0 0 0 0 0 0 0 0 1 0 0 0 0 181 22 0 0 0 0 0 0 0 0 0 0 0 0 0 0 0 0 0 0 0 0 0 0 0 0 0 0 0 0 0
0 0 0 0 0 0 0 0 0 0 1 0 0 0 0 0 0 0 0 0 0 0 0 0 0 0 0 0 0 0 0 0 0 0 0 0 0 0 0 0 0 0 0 0 0 0 0
0 0 0 0 0 0 0 0 0 0 0 0 0 0 0 0 0 0 0 0 0 0 0 0 0 0 0 0 0 0 0 0 0 0 0 0 0 0 0 0 0 0 0 0 0 0 0
0 0 0 0 0 0 0 0 0 0 0 0 0 0 0 0 0 0 0 0 24 0 0 0 0 0 0 0 0 0 0 0 0 0 0 0 0 0 0 0 0 0 0 0 0 0 0
0 0 0 0 0 0 0 0 0 0 0 0 0 0 0 0 0 0 0 0 2 3 0 0 0 0 0 0 0 0 0 0 0 0 0 0 0 0 0 0 0 0 0 0 0 0 0
0 0 0 0 0 0 0 0 1 0 0 0 0 0 0 0 0 0 0 0 0 0 0 0 0 0 0 0 0 0 0 0 0 0 0 0 0 0 0 0 0 0 0 0 0 0 0
0 0 0 0 0 0 1 0 1 0 0 0 0 108 0 0 0 0 0 0 0 0 0 0 0 0 0 0 0 0 0 0 0 0 0 0 0 0 0 0 0 0 0 0 0 0 0
0 0 0 0 0 0 1 1 0 0 0 0 0 33 0 0 0 0 0 0 0 0 0 0 0 0 0 0 0 0 0 0 0 0 0 0 0 0 0 0 0 0 0 0 0 0 0
0 0 0 1 0 0 0 1 0 0 0 0 0 0 0 0 0 0 0 0 0 0 0 0 0 0 0 0 0 0 0 0 0 0 0 0 0 0 0 0 0 0 0 0 0 0 0
0 0 0 0 1 0 0 0 0 0 0 0 0 0 0 0 0 0 0 0 0 0 0 0 0 0 0 0 0 0 0 0 0 0 0 0 0 0 0 0 0 0 0 0 0 0 0
0 0 0 0 0 1 0 0 0 0 0 0 0 0 0 0 0 0 0 0 1 0 0 0 0 0 0 0 0 0 0 0 0 0 0 0 0 0 0 0 0 0 0 0 0 0 0
1 0 0 0 0 0 0 0 0 0 0 0 0 0 0 0 0 0 0 0 0 0 0 0 0 0 0 0 0 0 0 0 0 0 0 0 0 0 0 0 0 0 0 0 0 0 0
1 1 1 0 0 0 0 0 0 0 0 0 0 0 0 0 0 0 0 0 0 0 0 0 0 0 0 0 0 0 0 0 0 0 0 0 0 0 0 0 0 0 0 0 0 0 0
0 0 0 0 0 0 0 0 0 0 0 0 0 0 0 0 0 0 0 0 0 0 0 0 0 0 0 0 0 0 0 0 0 0 0 0 0 0 0 0 0 0 0 0 0 0 0
0 0 0 0 0 0 0 0 0 0 0 3 2 0 0 0 0 0 0 0 0 0 0 0 0 0 0 0 0 0 0 0 0 0 0 0 0 0 0 0 0 0 0 0 0 0 0
0 0 0 0 0 0 0 0 0 0 0 0 7 0 0 0 0 0 0 0 0 0 0 0 0 0 0 0 0 0 0 0 0 0 0 0 0 0 0 0 0 0 0 0 0 0 0
0 0 0 0 0 0 0 0 1 0 0 8 22 0 0 0 0 0 0 0 0 0 0 0 0 0 0 0 0 0 0 0 0 0 0 0 0 0 0 0 0 0 0 0 0 0 0

GFSGBSN_con_sbcape_003.txt.gz
CAPE
2 4 0 0 2 18 8 0 0 4 2 5 4 1 5 2 3 8 1 5 5 5 3 2 2 0 0 0 0 4 355 252 7 0 0 0 0 0 0 0 0 0 0 0 0 0 0
0 1 0 0 0 8 14 0 0 3 2 4 3 1 5 3 2 7 2 1 4 2 3 1 1 1 0 0 0 11 20 0 0 0 0 0 0 0 0 0 0 0 0 0 0 0 0
1 1 0 0 0 0 2 0 0 1 4 4 3 0 1 5 5 4 0 4 2 0 0 1 2 3 1 0 0 0 0 0 0 0 0 0 0 0 0 0 0 0 0 0 0 0 0
0 0 0 0 0 0 0 0 0 0 4 2 2 1 1 1 3 1 2 1 0 0 1 2 8 2 0 0 0 0 0 0 0 0 0 0 0 0 0 0 0 0 0 0 0 0 0
13 0 0 0 0 0 0 0 0 0 2 3 1 2 0 1 1 1 1 0 0 1 2 7 1 0 0 0 0 0 0 0 0 0 0 0 0 0 0 0 0 0 0 0 0 0 0
19 0 0 0 0 0 0 0 0 0 1 0 1 0 1 0 1 1 1 2 2 4 4 5 0 0 0 0 0 0 0 0 0 0 0 0 0 0 0 0 0 0 0 0 0 0 0
30 10 0 0 0 0 0 0 0 0 1 0 2 0 0 3 2 0 0 1 0 0 0 0 0 0 0 0 0 0 0 0 0 0 0 0 0 0 0 0 0 0 0 0 0 0 0
0 13 0 0 0 0 0 0 0 0 2 1 0 1 2 0 1 1 1 0 0 0 5 0 0 0 0 0 0 0 0 0 0 0 0 0 0 0 0 0 0 0 0 0 0 0 0
0 9 1 0 0 0 0 0 0 0 1 1 0 2 2 1 0 3 3 0 0 0 0 0 0 0 0 0 0 0 0 0 0 0 0 0 0 0 0 0 0 0 0 0 0 0 0
1 0 5 0 0 0 0 0 0 0 2 1 1 2 1 0 0 0 0 0 0 0 0 0 0 0 0 0 0 0 0 0 0 0 0 2 0 0 0 0 0 0 0 0 0 0 4
16 0 6 0 0 0 0 0 0 0 0 0 1 2 0 0 0 0 0 0 0 0 0 0 0 0 0 0 0 0 0 0 0 0 0 0 0 0 0 0 0 0 0 0 0 0 0
53 0 7 0 0 0 0 0 0 0 0 0 1 2 0 1 1 0 0 0 0 0 0 0 0 0 0 0 0 0 0 0 0 0 0 0 0 0 0 0 0 0 0 0 0 0 0
78 0 0 0 0 0 0 0 0 0 0 0 1 3 1 2 0 0 0 0 0 0 0 0 0 0 0 0 0 0 0 0 0 0 0 0 0 0 0 0 0 0 0 2 3 6 0
78 9 0 1 0 0 0 0 0 0 0 0 1 1 0 0 0 0 0 0 0 0 0 0 0 0 0 0 0 0 0 0 0 0 0 0 0 0 0 0 0 0 0 17 0 0 0
120 22 0 5 0 0 0 0 0 0 0 1 1 4 2 0 0 0 0 0 0 0 0 0 0 0 0 0 0 0 0 0 0 0 0 0 0 0 0 0 0 0 0 0 0 0 0
109 58 0 9 0 0 0 0 0 0 1 1 0 0 0 0 0 0 0 0 0 0 0 0 0 0 0 0 0 0 0 0 0 0 0 0 0 0 0 0 0 0 0 0 0 0 0
155 57 12 14 0 0 0 0 0 0 0 0 0 3 0 0 0 0 0 0 0 0 0 0 0 0 0 0 0 0 0 0 0 0 0 0 0 0 0 0 0 0 0 0 0 0 0
116 33 7 1 0 0 0 0 0 0 1 0 0 0 0 0 0 0 0 0 0 0 0 0 0 0 0 0 0 0 0 0 0 0 0 0 0 0 0 0 0 0 0 0 0 0 0
125 52 9 0 0 0 0 0 0 1 0 0 0 22 0 0 0 0 0 0 0 0 0 0 0 0 0 0 0 0 0 0 0 0 0 0 0 0 0 0 0 0 0 0 0 0 0
74 29 4 1 0 0 0 0 1 1 0 0 3 61 9 0 0 0 0 0 0 0 0 0 0 0 0 0 0 0 0 0 0 0 0 0 0 0 0 0 0 0 0 0 0 0 0
38 28 34 0 0 0 0 1 0 1 0 0 0 0 6 0 0 0 0 0 0 0 0 0 0 0 0 0 0 0 0 0 0 0 0 0 0 0 0 0 0 0 0 0 0 0 0
102 40 0 0 0 0 0 0 0 1 0 0 0 0 0 0 0 0 0 0 0 0 0 0 1 0 0 0 0 0 0 0 0 0 0 0 0 0 0 0 0 0 0 0 0 0 0
2 42 0 0 0 0 0 0 0 0 0 0 0 0 0 0 0 0 0 0 0 0 0 0 0 0 0 0 0 0 0 0 0 0 0 0 0 0 0 0 0 0 0 0 0 0 0
29 0 1 1 0 0 0 1 0 0 0 0 0 0 0 0 0 0 0 0 0 0 0 0 0 0 0 0 0 0 0 0 0 0 0 0 0 0 0 0 0 0 0 0 0 0 0
1 1 1 1 1 1 0 0 0 0 0 0 0 0 0 0 0 0 0 0 0 0 0 0 0 0 0 0 0 0 0 0 0 0 0 0 0 0 0 0 0 0 0 0 0 0 0
1 0 2 0 0 0 0 0 0 0 0 0 0 0 0 0 0 0 0 0 0 0 0 0 0 0 0 0 0 0 0 0 0 0 0 0 0 0 0 0 0 0 0 0 0 0 0
0 0 0 0 0 0 0 0 0 0 0 0 0 0 0 0 0 0 0 0 0 0 0 0 0 0 0 0 0 0 0 0 0 0 0 0 0 0 0 0 0 0 0 0 0 0 0
0 0 0 0 0 0 0 0 0 0 0 4 16 0 0 0 0 0 0 0 0 0 0 0 0 0 0 0 0 0 0 0 0 0 0 0 0 0 0 0 0 0 0 0 0 0 0
0 0 0 0 0 0 0 0 0 0 0 10 74 0 0 0 0 0 0 0 0 0 0 0 0 0 0 0 0 0 0 0 0 0 0 0 0 0 0 0 0 0 0 0 0 0 0

GFSGBSN_con_sbcape_006.txt.gz
CAPE
8 2 0 0 0 0 0 1 6 0 0 2 9 6 7 3 5 10 7 5 4 6 4 2 4 5 0 4 7 175 286 152 0 0 0 0 0 0 0 0 0 0 0 0 0 0 37
15 3 0 0 0 0 0 0 1 0 0 3 5 5 5 3 4 6 9 5 3 2 0 1 4 3 0 5 0 107 206 0 0 0 0 0 0 0 0 0 0 0 0 0 0 0 0
0 12 0 0 0 0 0 0 0 0 0 1 3 4 4 4 5 7 6 2 3 0 0 2 3 1 0 0 0 89 2 1 0 0 0 0 0 0 0 0 0 0 0 0 0 0 0
8 2 1 0 0 0 0 0 0 0 0 2 1 5 2 0 3 4 0 1 0 0 1 3 5 1 3 0 0 0 0 1 0 0 0 0 0 0 0 0 0 0 0 0 0 0 0
15 5 14 1 0 0 0 0 0 0 0 0 1 3 2 0 1 1 0 0 0 1 1 3 1 0 20 0 0 0 0 0 0 0 0 0 0 0 0 0 0 0 0 0 0 0 0
27 16 11 1 0 0 0 0 0 0 0 0 2 2 1 0 0 0 0 0 0 2 1 2 1 1 24 0 0 0 0 0 0 0 0 0 0 0 0 0 0 0 0 0 0 0 0
37 49 12 17 0 0 0 0 0 0 0 0 2 2 2 0 1 0 1 0 0 0 0 0 0 3 0 0 0 0 0 0 0 0 0 0 0 0 1 0 0 0 1 0 0 12 96
27 37 32 39 0 0 0 0 0 0 0 0 1 1 1 1 0 0 0 0 0 9 44 4 0 0 0 0 0 0 0 0 3 0 3 0 0 0 0 0 0 0 0 32 0 0 118
45 46 30 24 2 0 0 0 0 0 0 0 0 0 0 1 0 2 0 0 0 14 359 7 1 0 0 0 0 0 10 4 5 0 50 28 26 0 10 18 36 72 80 84 32 26 118
54 47 48 13 19 0 0 0 0 0 0 0 0 0 0 0 0 0 0 0 0 0 23 0 0 0 0 0 0 0 0 6 0 35 98 120 5 47 79 44 37 125 13 19 50 72 125
57 62 47 1 8 0 0 0 0 0 0 0 0 0 0 0 0 0 0 143 121 1 2 0 0 0 0 0 0 4 0 5 8 17 69 83 63 77 108 79 38 102 62 81 58 157 137
60 72 71 21 1 8 0 0 0 0 0 0 0 0 0 3 3 0 0 0 17 251 0 0 0 0 3 1 1 0 7 0 2 50 100 71 12 58 52 7 8 5 59 68 81 139 163
56 61 60 48 16 4 0 0 0 0 0 0 0 0 4 3 0 0 86 89 45 18 0 0 0 1 18 13 24 34 85 91 94 137 161 95 65 8 17 46 4 60 128 130 78 139 140
77 86 65 63 2 0 0 0 0 0 0 0 0 0 6 2 0 0 0 0 1 0 0 0 0 4 28 6 16 17 74 100 19 100 159 99 99 0 0 15 29 91 112 69 9 105 43
103 116 97 70 0 8 1 0 0 0 0 0 0 11 5 0 2 3 0 230 0 0 0 0 0 0 22 4 3 59 79 108 9 41 33 33 0 0 0 0 0 0 4 11 34 1 71
135 109 78 66 6 8 5 0 0 0 0 0 4 4 0 0 0 0 142 0 0 0 0 0 0 0 14 14 0 24 108 1 5 0 1 27 0 0 0 0 0 0 0 5 21 9 0
167 151 96 72 8 17 7 0 0 0 0 0 1 0 34 52 0 3 192 0 0 51 37 0 0 0 0 28 12 0 3 0 0 0 0 0 1 0 0 0 0 0 0 0 0 0 0
189 138 118 75 49 14 14 0 0 0 0 1 3 18 17 1 81 0 0 0 3 108 0 0 1 0 1 57 25 31 1 18 0 0 0 0 0 11 0 0 0 0 0 0 0 0 0
198 173 122 94 88 11 19 0 0 0 0 2 0 160 10 0 54 60 0 0 18 11 0 57 38 56 63 125 105 75 27 0 0 0 0 0 0 0 0 0 0 0 0 0 0 0 0
171 164 153 123 83 29 10 0 0 0 0 9 53 314 211 0 0 0 0 0 0 0 0 18 91 141 175 108 45 105 33 0 0 0 0 0 0 0 15 0 0 0 0 0 0 0 0
173 189 128 78 55 13 0 0 0 0 0 0 112 89 33 73 0 0 0 0 0 26 6 22 128 175 221 219 91 98 16 0 0 0 0 0 0 0 0 0 0 0 0 0 0 0 0
230 152 47 36 5 8 0 1 0 0 0 0 130 96 11 5 0 0 0 0 0 0 82 109 166 147 200 276 130 168 30 0 2 0 0 0 0 0 0 0 0 0 0 0 0 0 0
187 71 0 35 28 59 2 1 0 0 0 4 89 7 67 0 0 0 0 0 0 103 33 29 181 250 184 95 10 0 0 0 0 0 0 0 0 0 0 0 0 0 0 0 0 0 0
126 29 31 42 41 18 2 0 1 0 0 102 254 89 123 2 0 0 0 0 59 150 235 25 85 261 4 0 0 0 0 0 0 0 0 0 0 0 0 0 1 0 0 0 0 0 0
69 48 60 20 0 1 0 0 0 0 0 225 232 155 67 0 5 0 0 0 0 22 148 121 12 4 0 0 41 0 0 0 0 0 0 0 0 0 20 0 0 0 0 0 0 0 0
29 40 33 1 0 0 0 0 0 0 0 237 361 125 242 86 0 0 0 0 104 267 143 0 0 0 0 0 41 98 21 0 0 0 0 0 0 0 0 141 201 0 0 0 0 0 0
18 1 1 0 0 0 0 0 0 0 0 202 477 60 135 47 0 0 0 0 36 235 366 0 0 0 0 3 742 329 39 0 0 0 0 0 0 0 0 0 0 0 0 0 0 0 0
1 1 1 0 0 0 0 0 0 0 0 160 475 135 812 512 7 0 0 0 0 231 461 1 20 17 0 232 654 60 226 0 0 0 0 0 0 0 0 6 0 0 0 0 0 0 0
0 0 0 0 0 0 0 0 0 0 0 135 805 89 240 524 110 0 0 0 0 209 241 3 320 48 187 123 6 1 1 1 0 19 0 0 0 0 0 0 0 0 0 0 0 0 0

GFSGBSN_con_sbcape_009.txt.gz
CAPE
6 0 10 0 0 0 0 0 0 0 0 0 0 5 9 8 9 9 8 4 6 11 8 3 2 2 0 34 90 381 220 154 0 0 0 0 0 0 0 0 0 0 0 0 0 0 0
8 5 1 7 0 0 0 0 0 0 0 0 0 3 7 6 6 7 8 6 6 7 1 0 1 0 0 48 4 278 25 0 0 0 0 0 0 0 0 0 1 0 0 0 0 0 46
20 8 1 7 3 0 0 0 0 0 0 0 0 2 4 5 6 8 9 6 6 2 0 0 1 0 0 9 6 262 5 0 0 0 0 0 0 0 0 0 0 0 0 0 0 4 79
22 20 13 0 2 0 0 0 0 0 0 0 0 0 2 2 1 4 6 2 0 0 0 0 2 0 8 25 2 1 161 36 24 1 0 0 0 0 0 0 0 0 0 20 13 8 0
29 22 12 10 1 0 0 0 0 0 0 0 0 0 1 0 1 2 2 0 0 0 0 0 0 0 134 0 0 0 22 18 7 0 0 0 0 0 0 0 4 0 0 2 12 5 0
34 35 24 12 0 3 0 0 0 0 0 0 0 0 0 0 0 1 0 0 0 0 0 0 0 71 34 0 7 0 0 0 2 2 0 0 0 1 2 0 0 2 9 5 3 0 0
34 40 35 27 16 7 0 0 0 0 0 0 0 0 0 0 0 0 0 0 0 0 0 0 12 1 0 0 0 1 0 0 9 47 3 0 10 2 0 0 0 0 0 4 5 0 1
32 38 37 28 37 22 11 0 0 0 0 0 0 0 0 0 2 0 0 0 1 32 140 0 0 0 0 0 0 0 0 5 7 13 0 0 0 0 0 1 0 1 4 24 3 1 129
44 42 45 26 24 28 28 0 0 0 0 0 0 0 0 0 0 2 0 0 9 24 393 47 0 0 0 0 0 18 0 16 12 0 0 36 3 4 0 0 0 10 7 33 75 116 117
55 46 41 44 29 25 20 3 0 0 0 0 0 0 0 0 0 0 0 0 0 0 269 0 0 0 0 0 0 0 0 19 28 4 64 6 39 48 7 10 53 32 83 40 62 153 114
40 50 48 46 32 26 1 5 0 0 0 0 0 0 0 0 4 0 93 100 26 348 102 8 3 0 0 4 21 11 9 2 35 61 55 157 152 80 75 127 112 195 164 149 159 210 150
41 67 53 52 38 35 2 1 0 0 0 0 0 0 0 3 1 0 0 257 500 328 46 0 0 0 14 0 1 8 0 9 12 22 22 18 120 171 196 126 115 160 198 182 136 169 204
72 68 69 57 43 30 8 0 0 0 0 0 0 0 5 2 0 0 99 649 243 25 2 0 0 0 17 4 18 18 0 4 0 4 72 78 91 100 103 141 171 168 220 165 192 344 186
75 87 72 69 56 30 14 11 0 0 0 0 0 0 3 0 0 2 518 548 62 1 20 0 0 0 37 14 28 46 10 15 13 98 124 123 195 103 103 172 135 116 117 188 57 141 127
38 68 79 66 65 41 28 15 0 0 0 0 0 11 12 7 2 4 450 181 12 1 11 0 0 0 45 12 17 121 121 109 55 57 55 133 81 46 44 53 42 74 101 90 155 148 139
64 55 69 76 54 55 29 27 0 0 0 0 5 7 0 0 3 13 181 2 20 2 0 0 0 0 77 41 6 105 132 167 153 128 227 129 146 11 0 5 4 41 36 47 13 0 37
95 43 94 93 81 70 41 53 13 0 0 0 28 3 24 5 3 12 102 13 22 2 0 0 0 0 56 51 8 84 177 200 179 128 101 53 40 63 0 0 13 12 0 0 36 153 113
81 74 41 104 96 86 46 73 25 0 0 0 37 16 221 350 32 130 168 5 2 24 64 6 2 0 11 51 37 14 21 50 112 103 3 2 62 298 51 0 0 3 43 8 0 0 1
105 8 37 128 90 85 56 70 59 0 0 8 62 149 430 353 122 775 64 12 0 24 18 26 0 0 0 17 10 0 1 95 79 112 4 88 2 138 47 16 0 0 0 0 0 0 0
39 42 56 144 91 27 61 71 57 0 0 70 96 259 184 41 125 94 58 32 0 2 6 34 0 37 120 100 126 182 164 23 2 53 0 0 0 11 130 77 24 0 0 0 0 0 0
50 67 73 98 112 19 73 100 31 0 0 41 182 77 38 242 392 185 57 3 0 0 38 144 171 51 43 60 171 236 351 23 2 6 0 22 18 0 16 0 0 0 0 0 0 0 12
83 91 104 96 105 51 69 83 22 0 0 52 124 191 180 541 180 99 35 5 1 9 104 194 135 32 82 101 164 105 335 231 186 51 102 3 61 0 0 0 0 0 0 0 0 0 0
146 123 137 123 96 65 47 54 15 0 0 52 311 391 493 252 382 104 78 13 2 101 331 185 72 228 122 364 516 388 309 222 213 321 227 70 41 0 0 0 0 0 0 0 0 0 0
189 173 189 121 91 56 40 0 12 0 0 54 321 198 200 323 513 53 12 1 1 79 278 220 254 259 297 79 66 50 1 0 0 0 65 0 0 0 0 0 0 0 0 0 0 0 0
174 212 241 144 58 1 3 1 0 0 0 226 928 480 329 756 82 26 1 0 0 240 452 426 299 319 119 202 184 78 76 25 0 0 0 0 0 0 3 0 0 0 0 0 0 0 0
204 189 172 46 27 6 5 21 0 0 0 37 416 924 368 353 145 2 2 0 236 492 542 90 33 84 34 496 490 123 93 7 29 0 0 0 0 0 0 0 0 0 0 0 0 0 0
113 78 63 66 61 7 33 8 0 0 0 24 1044 1019 169 44 45 1 3 0 0 220 625 177 68 41 17 725 1574 308 139 6 0 0 0 0 0 0 0 3 0 0 0 0 0 0 0
53 36 47 43 15 3 5 0 0 0 0 10 1154 869 367 60 113 14 0 0 0 55 880 394 238 190 276 557 917 372 681 104 10 0 0 0 0 1 0 0 0 0 0 0 0 0 0
1 22 7 2 0 0 0 0 0 0 0 0 1044 681 1222 182 714 291 301 173 59 164 583 363 360 544 589 629 771 767 604 4 131 45 0 1 0 11 0 0 0 0 0 0 0 0 0

GFSGBSN_con_sbcape_012.txt.gz
CAPE
9 4 1 0 6 0 0 0 0 0 0 0 0 0 0 5 8 8 5 7 8 7 13 7 3 0 0 12 133 232 430 92 0 0 0 0 0 0 0 0 0 0 0 0 0 0 12
8 11 9 3 0 8 4 0 0 0 0 0 0 0 0 3 9 10 3 7 8 6 9 0 0 0 0 5 39 228 9 0 0 0 0 0 0 0 0 0 0 0 0 0 0 0 96
13 13 13 6 7 0 4 0 0 0 0 0 0 0 0 0 6 5 6 7 8 7 2 0 0 0 0 0 8 183 0 0 0 0 0 0 0 0 0 32 1 0 0 0 0 0 35
20 17 19 13 9 2 0 0 0 0 0 0 0 0 0 0 0 2 3 6 5 0 0 0 0 0 0 1 0 0 142 34 2 0 0 0 2 0 0 0 0 0 0 0 0 0 12
22 15 17 17 9 2 0 1 0 0 0 0 0 0 0 0 0 0 1 0 0 0 0 0 0 0 17 0 0 0 0 29 17 31 1 0 0 0 0 0 0 0 0 0 0 0 0
23 25 21 17 11 9 6 2 1 0 0 0 0 0 0 0 0 0 0 0 0 0 0 0 0 0 57 0 0 0 0 0 7 28 0 0 0 6 0 0 0 0 0 0 0 0 0
14 29 23 17 3 9 17 7 9 0 0 0 0 0 0 0 0 0 0 0 0 0 0 0 0 0 0 0 0 0 0 0 9 24 8 14 6 5 7 1 0 0 2 2 6 0 0
30 41 37 31 22 10 3 14 9 0 0 0 0 0 0 0 1 0 0 0 6 0 23 0 0 0 0 0 0 0 0 0 24 48 0 0 0 0 0 0 0 0 15 3 0 0 0
30 33 39 35 38 23 4 4 13 0 0 0 0 0 0 0 0 1 0 0 0 0 41 4 0 0 0 0 0 0 0 0 2 13 0 1 0 0 0 0 1 0 16 16 7 0 0
41 41 38 41 37 32 7 0 5 0 0 0 0 0 0 0 0 0 0 0 0 0 12 0 0 0 0 0 0 0 4 0 8 0 1 0 0 0 0 0 0 41 51 8 15 37 0
41 50 50 46 38 27 12 0 3 13 0 0 0 0 0 0 0 0 117 12 7 322 49 0 0 0 0 0 3 0 0 0 4 4 91 4 20 1 1 18 81 23 21 36 44 73 148
62 67 57 48 48 34 24 9 7 15 0 0 0 0 0 4 3 0 0 100 668 412 3 0 0 0 0 0 0 4 0 0 1 1 41 4 9 25 60 38 71 71 7 85 23 56 301
75 57 67 54 45 55 33 13 8 12 1 0 0 0 2 1 0 0 0 594 188 4 0 2 0 0 0 0 0 0 0 0 0 2 24 0 1 15 20 2 25 9 28 72 78 182 249
94 94 83 78 52 61 44 23 8 12 2 0 0 0 2 0 0 1 193 490 17 0 0 0 0 5 8 17 1 0 0 0 0 0 9 63 74 23 1 1 20 52 1 168 8 0 52
62 84 113 108 87 66 51 29 15 12 1 0 0 11 17 2 0 13 154 90 5 0 0 13 4 21 17 21 3 0 0 0 0 0 1 46 0 0 9 0 2 0 59 40 10 129 245
75 105 103 98 92 84 53 45 27 19 2 0 3 17 2 1 0 3 133 6 0 2 3 18 10 12 41 52 0 0 22 17 4 3 152 29 0 18 6 3 4 5 0 98 88 10 0
118 124 111 91 71 81 69 55 49 31 1 0 23 13 35 1 13 34 72 2 13 11 0 17 0 17 43 74 1 33 74 80 76 40 34 70 169 85 10 5 0 0 2 0 0 285 514
110 140 102 74 51 54 71 73 50 43 0 0 65 10 74 44 0 0 19 6 4 28 0 13 16 36 12 99 23 1 60 185 134 39 36 17 38 586 74 0 0 0 78 0 510 32 552
41 92 95 101 82 59 81 74 49 50 0 8 47 127 316 184 0 17 0 2 14 28 29 61 2 40 7 46 69 0 9 300 265 85 49 35 55 304 80 127 19 0 0 18 31 181 180
141 148 158 118 93 55 95 79 53 41 2 21 81 107 263 190 15 14 32 0 21 57 17 30 20 35 0 0 16 25 34 164 123 126 0 143 27 6 286 72 64 101 0 0 0 236 47
126 162 176 149 77 8 96 86 64 45 10 4 230 86 51 24 65 58 266 73 30 30 18 80 23 0 73 51 78 71 119 227 78 24 0 25 9 1 0 25 21 20 6 0 0 0 0
115 147 175 119 40 4 103 107 67 35 11 29 147 130 241 118 37 151 197 129 29 24 42 97 146 41 76 128 71 115 109 417 160 88 19 38 234 185 173 28 3 0 0 0 0 0 0
136 124 158 87 53 44 106 65 78 40 30 63 32 167 276 130 146 362 327 171 53 82 145 155 133 193 172 415 439 551 639 571 282 360 318 425 703 182 47 0 0 0 0 0 0 0 0
85 23 37 100 54 87 112 36 48 38 25 48 46 403 142 238 156 228 254 105 39 81 390 295 324 435 478 321 345 258 133 105 196 175 397 330 317 213 192 0 0 0 0 0 0 0 0
70 51 36 64 87 99 95 30 34 39 27 42 269 403 238 183 407 322 446 385 93 124 447 376 594 614 590 431 396 164 482 10 0 0 4 63 183 133 47 0 0 0 0 0 0 0 0
51 80 121 103 87 71 47 17 3 8 19 27 24 219 505 600 629 177 198 129 227 877 765 277 380 618 611 1337 1202 184 320 61 62 7 0 0 9 334 0 52 0 0 0 0 0 0 0
58 106 127 95 84 59 44 22 11 0 1 24 16 64 580 678 575 163 110 51 132 954 880 445 249 233 426 1300 921 1034 662 55 202 76 0 0 50 0 0 54 7 0 0 0 0 1 0
82 148 127 104 88 40 24 1 0 0 0 15 17 6 399 427 343 345 172 55 168 887 1060 696 454 474 1263 825 779 1141 859 629 330 18 0 9 132 2 144 0 0 0 0 0 35 0 0
110 142 88 89 51 28 1 0 0 0 0 1 10 2 734 1008 738 1087 584 390 334 123 936 877 735 770 1095 1071 801 1386 254 18 113 256 2 120 160 499 7 52 0 0 0 0 0 0 0

GFSGBSN_con_sbcape_018.txt.gz
CAPE
10 3 1 0 0 0 0 0 0 0 0 0 0 0 0 0 0 0 0 0 0 2 6 5 6 0 0 0 0 0 85 127 0 0 0 0 0 0 0 0 0 0 0 0 0 6 5
15 13 8 0 0 4 0 0 0 0 0 0 0 0 0 0 0 0 0 0 0 0 3 2 1 0 0 0 0 0 0 0 0 0 0 0 0 0 0 0 0 0 0 0 3 12 24
21 19 16 12 7 2 3 0 0 0 0 0 0 0 0 0 0 0 0 0 0 0 4 2 0 0 0 0 0 0 0 0 0 0 0 0 0 0 0 0 0 0 0 0 0 0 2
14 23 23 17 12 9 4 0 0 0 0 0 0 0 0 0 0 0 0 0 0 0 0 0 0 0 0 0 0 0 0 0 0 0 0 0 0 0 0 0 0 0 0 0 0 1 0
28 25 28 19 14 18 8 0 0 0 0 0 0 0 0 0 0 0 0 0 0 0 0 0 0 0 0 0 0 0 0 0 0 0 0 0 0 0 0 0 0 0 0 0 0 0 0
32 26 30 33 25 17 12 14 0 0 0 0 0 0 0 0 0 0 0 0 0 0 0 0 0 0 0 0 0 0 0 0 0 0 0 0 0 0 0 0 0 0 0 0 0 0 1
46 45 32 26 28 25 15 20 15 0 0 0 0 0 0 0 0 0 0 0 0 0 0 0 0 0 0 0 0 0 0 0 0 0 0 0 0 0 0 0 0 0 0 0 0 0 0
68 69 54 44 35 26 27 20 5 0 0 0 0 0 0 0 0 0 0 0 0 0 0 0 0 0 0 0 0 0 0 0 0 0 0 0 0 0 0 0 0 0 0 0 0 0 0
75 69 70 49 56 41 27 28 8 7 0 2 0 0 0 0 0 0 0 0 0 0 0 0 0 0 0 0 0 0 0 0 0 0 0 0 0 0 3 0 0 0 0 0 0 0 0
73 72 62 72 55 50 38 41 18 16 2 0 0 0 0 0 0 0 0 0 0 0 0 0 0 0 0 0 0 0 0 0 0 0 0 0 0 0 0 0 0 0 0 0 14 0 0
79 67 64 75 79 49 30 35 33 20 15 0 3 0 0 0 0 0 0 0 0 0 0 0 0 0 0 0 0 0 0 0 0 0 0 0 0 0 0 0 0 0 0 0 4 0 0
89 93 75 71 77 51 43 33 33 25 24 11 11 0 0 0 0 0 0 0 0 0 0 0 0 0 0 0 0 0 0 0 0 0 0 0 0 0 0 0 0 0 0 0 0 0 0
89 101 96 70 77 58 42 53 37 27 26 23 15 0 0 0 0 0 0 4 33 0 0 0 0 0 0 0 0 0 0 0 0 0 0 0 0 0 0 0 0 5 0 0 0 0 0
74 67 98 85 81 59 47 64 43 28 32 29 28 0 0 0 0 0 2 65 0 0 0 0 0 0 0 0 0 0 0 0 0 0 0 0 0 0 0 0 0 1 0 0 0 0 0
76 86 106 113 85 78 71 60 50 31 41 41 40 4 1 0 0 0 10 19 0 0 0 0 0 0 0 0 0 0 0 0 0 0 0 0 0 0 0 0 0 0 0 0 0 0 0
40 109 115 81 96 76 92 51 60 56 46 51 44 22 13 0 0 0 23 0 3 0 0 0 0 0 0 0 0 0 0 0 0 0 0 2 14 9 0 0 0 0 0 8 5 0 0
49 71 76 100 109 85 83 68 59 65 60 61 53 33 17 0 1 4 20 2 0 0 0 0 0 0 0 0 0 0 0 0 0 0 0 10 1 12 10 0 2 0 0 0 0 0 0
48 48 64 76 123 104 94 78 93 77 69 50 52 50 14 0 3 2 15 3 0 0 0 0 4 0 0 0 0 0 0 0 10 0 0 0 4 2 0 0 0 1 0 0 0 0 0
43 52 71 94 115 102 88 87 100 66 75 41 34 74 33 0 0 0 14 17 0 0 0 6 0 0 0 0 0 0 0 23 25 6 0 0 0 11 0 0 0 0 0 0 0 0 0
39 49 62 86 119 129 86 103 94 61 81 51 55 52 49 15 0 0 2 9 0 0 0 0 9 0 0 0 0 2 26 48 52 5 0 2 0 0 0 0 0 0 3 0 0 0 0
31 39 60 91 98 117 108 129 96 30 76 70 61 65 31 2 2 0 0 1 0 0 0 5 1 0 0 0 0 0 9 14 28 0 0 0 2 0 0 0 0 0 0 0 0 0 0
32 49 64 80 80 112 131 120 91 47 64 55 57 84 52 0 3 0 0 0 0 0 0 0 0 0 0 0 0 0 35 0 14 2 0 0 0 0 0 0 0 0 0 0 0 0 0
38 53 68 68 80 107 137 122 62 64 112 34 11 15 68 0 2 4 0 0 0 0 0 0 0 0 0 0 5 4 5 7 6 0 0 0 0 0 0 0 0 0 0 0 0 0 0
43 69 85 85 74 92 66 44 78 90 69 74 46 10 70 10 20 1 2 0 0 0 0 7 0 0 6 0 0 0 0 3 13 30 0 0 0 0 0 0 0 0 0 0 0 0 0
59 80 96 93 84 81 33 30 73 58 16 41 60 5 49 30 14 8 4 0 0 0 0 0 9 0 0 0 0 0 0 0 0 0 0 0 0 0 0 0 0 0 0 0 0 0 0
60 78 87 88 43 60 50 58 74 51 19 2 4 2 11 27 8 37 0 0 0 0 0 92 54 0 93 0 0 0 0 0 0 0 0 0 0 0 0 0 0 0 0 0 0 0 0
67 77 87 86 85 77 88 69 32 26 11 19 9 14 13 24 53 21 0 0 0 4 8 88 60 110 1 0 4 0 0 0 0 0 0 0 0 0 0 0 0 0 0 0 0 0 0
74 74 80 88 84 80 81 76 15 16 15 39 28 35 45 48 4 57 0 0 0 8 16 6 57 8 3 3 0 0 0 0 0 0 0 0 0 0 0 0 0 0 0 0 0 0 0
91 82 69 76 97 77 64 75 40 40 54 38 55 11 34 27 7 0 0 0 0 1 54 0 1 7 1 0 0 0 0 0 0 0 0 0 0 0 0 0 0 0 0 0 0 0 0

GFSGBSN_con_sbcape_021.txt.gz
CAPE
14 9 13 11 8 9 0 0 0 0 0 0 0 0 0 0 0 0 0 0 0 0 0 1 2 0 0 0 0 0 0 0 0 0 0 0 0 0 0 0 0 0 0 0 0 22 8
19 28 20 16 11 0 0 5 0 0 0 0 0 0 0 0 0 0 0 0 0 0 0 0 0 0 0 0 0 0 0 0 0 0 0 0 0 0 0 0 0 0 0 0 0 1 23
28 32 34 26 23 13 6 5 0 0 0 0 0 0 0 0 0 0 0 0 0 0 0 0 0 0 0 0 0 0 0 0 0 0 0 0 0 0 0 0 0 0 0 0 0 2 2
38 32 29 27 24 28 16 8 0 0 0 0 0 0 0 0 0 0 0 0 0 0 0 0 0 0 0 0 0 0 0 0 0 0 0 0 0 0 0 0 0 0 0 11 0 0 0
38 35 33 25 21 17 26 17 13 0 0 0 0 0 0 0 0 0 0 0 0 0 0 0 0 0 0 0 0 0 0 0 0 0 0 0 0 0 0 0 0 0 0 0 0 0 0
52 46 38 38 24 26 21 19 18 8 7 0 1 0 0 0 0 0 0 0 0 0 0 0 0 0 0 0 0 0 0 0 0 0 0 0 0 0 0 0 0 0 0 0 0 0 0
69 71 57 51 46 29 20 28 16 9 4 10 4 0 0 0 0 0 0 0 0 0 0 0 0 0 0 0 0 0 0 0 0 0 0 0 0 0 0 0 0 0 0 0 0 0 0
58 88 85 63 56 50 34 32 22 24 9 0 2 1 0 0 0 0 0 0 0 0 0 0 0 0 0 0 0 0 0 0 0 0 0 0 0 0 0 0 0 0 0 0 0 0 0
43 27 78 87 73 62 49 27 32 21 13 0 0 0 0 0 0 0 0 0 0 0 0 0 0 0 0 0 0 0 0 0 0 0 0 0 0 0 0 0 0 0 0 0 0 0 0
87 68 42 67 78 81 52 38 28 18 19 6 0 0 0 0 0 0 0 0 0 0 0 0 0 0 0 0 0 0 0 0 0 0 0 0 0 0 0 0 0 0 0 0 0 0 0
98 94 76 59 61 58 55 48 39 35 25 16 0 1 0 0 0 0 0 0 0 0 0 0 0 0 0 0 0 0 0 0 0 0 0 0 0 0 0 0 0 0 0 0 0 0 0
48 78 94 82 76 50 40 57 41 26 34 24 5 4 0 0 0 0 0 0 0 0 0 0 0 0 0 0 0 0 0 0 0 0 0 0 0 0 0 0 0 0 0 0 0 0 0
50 36 65 94 81 60 51 53 40 28 37 31 23 8 0 0 0 0 0 51 32 1 0 0 0 0 0 0 0 0 0 0 0 0 0 0 0 0 0 0 0 0 0 0 0 0 0
51 45 39 68 92 92 63 48 42 43 35 33 28 22 3 0 0 0 53 90 8 0 0 0 0 0 0 0 0 0 0 0 0 0 0 0 0 0 0 0 0 0 0 0 0 0 0
77 54 26 44 67 83 90 62 40 53 45 40 35 47 21 3 0 0 77 39 1 0 0 0 0 0 0 0 0 0 0 0 0 0 0 0 0 0 0 0 0 0 0 0 0 0 0
96 65 49 30 29 69 107 76 42 58 56 45 26 31 28 10 0 0 52 1 4 0 0 0 0 0 0 0 0 0 0 0 0 0 0 0 0 0 0 0 0 0 0 0 0 0 0
101 62 51 43 26 37 97 86 47 71 54 47 29 48 20 7 3 1 4 4 0 0 0 0 0 0 0 0 0 0 0 0 0 0 0 0 0 0 0 0 0 0 0 0 0 0 0
79 50 28 44 36 72 102 82 80 94 83 49 24 36 26 12 28 0 2 7 0 0 0 0 0 0 0 0 0 0 0 0 0 0 0 0 0 0 0 0 0 0 0 0 0 0 0
96 58 34 33 59 97 94 79 84 92 71 37 9 71 60 9 33 3 4 2 1 0 0 0 0 0 0 0 0 0 0 0 0 0 0 0 0 0 0 0 0 0 0 0 0 0 0
120 54 38 32 79 85 94 79 81 77 84 43 65 50 72 64 2 5 5 0 0 0 0 0 0 1 0 0 0 0 0 12 0 0 0 0 0 0 0 0 0 4 11 0 0 0 0
126 43 28 35 64 78 82 72 83 58 90 54 71 42 21 12 16 4 3 1 2 0 0 0 0 0 0 0 0 0 6 2 5 0 0 0 0 0 0 0 0 0 0 0 0 0 0
103 29 25 29 51 81 89 94 102 55 142 53 45 77 53 0 6 12 13 7 0 0 0 0 0 0 0 0 0 0 0 0 4 0 0 0 0 0 0 0 0 0 0 0 0 0 0
133 32 24 27 55 92 93 92 79 60 129 10 19 1 43 0 1 13 0 1 0 0 0 0 0 0 0 0 0 0 0 0 1 0 0 0 0 0 0 0 0 0 0 0 0 0 0
85 33 26 39 64 106 93 89 58 120 31 8 44 15 62 3 1 1 0 4 0 0 0 0 0 0 0 0 0 0 0 0 1 3 0 0 0 0 0 0 0 0 0 0 0 0 0
21 31 42 46 72 93 81 62 47 93 71 0 33 27 73 49 0 4 0 0 2 0 0 0 0 0 0 0 0 29 2 3 0 0 0 0 0 0 0 0 0 0 0 0 0 0 0
22 34 39 50 80 69 45 49 73 104 68 0 46 21 32 24 1 14 0 0 0 0 0 0 0 0 0 0 0 2 33 0 0 0 0 0 0 0 0 0 0 0 0 0 0 0 0
39 42 39 58 67 49 46 71 48 94 36 0 51 53 41 18 44 43 20 0 0 0 0 0 52 17 0 0 0 0 0 0 0 0 0 0 0 0 0 0 0 0 0 0 0 0 0
29 29 48 68 73 60 45 36 70 87 67 47 19 19 18 8 0 4 10 12 0 0 0 0 110 15 0 7 0 0 0 0 0 0 0 0 0 0 0 0 0 0 0 0 0 0 0
49 58 65 59 60 65 86 89 86 104 81 36 25 46 62 22 1 0 0 0 0 0 0 1 0 8 5 0 0 0 0 0 0 0 0 0 0 0 0 0 0 0 0 0 0 0 0

GFSGBSN_con_sbcape_024.txt.gz
CAPE
17 14 28 30 26 21 11 15 4 0 0 0 0 0 0 0 0 0 0 0 0 0 0 1 2 0 0 0 0 0 0 0 0 0 0 0 0 0 0 0 0 0 0 0 0 10 19
28 18 19 36 28 23 10 12 16 12 0 0 3 0 0 0 0 0 0 0 0 0 0 0 1 0 0 0 0 0 0 0 0 0 0 0 0 0 0 0 0 0 0 0 0 10 28
19 29 26 26 11 26 24 20 18 6 0 3 0 1 0 0 0 0 0 0 0 0 0 0 0 0 0 0 0 0 0 0 0 0 0 0 0 0 0 0 0 0 0 0 1 14 27
39 30 42 25 18 26 7 20 19 20 4 0 1 2 1 0 0 0 0 0 0 0 0 0 0 0 0 0 0 0 0 0 0 0 0 0 0 0 0 0 0 0 0 3 0 0 0
57 44 38 38 36 30 27 23 21 17 14 7 0 0 2 0 0 0 0 0 0 0 0 0 0 0 0 0 0 0 0 0 0 0 0 0 0 0 0 0 0 0 0 0 1 0 3
20 49 51 48 38 35 33 22 28 19 15 1 0 0 0 1 0 0 0 0 0 0 0 0 0 0 0 0 0 0 0 0 0 0 0 0 0 0 0 0 0 0 0 0 0 0 0
42 30 32 59 52 48 47 34 34 30 17 12 6 0 0 0 0 0 0 0 0 0 0 0 0 0 0 0 0 0 0 0 0 0 0 0 0 0 0 0 0 0 0 0 0 0 1
94 62 47 26 64 56 47 55 28 29 25 21 16 0 0 0 0 0 0 0 0 0 0 0 0 0 0 0 0 0 0 0 0 0 0 0 0 0 0 0 0 0 0 0 0 0 0
82 77 92 73 29 66 56 53 54 25 28 19 7 0 0 0 0 0 0 0 0 0 0 0 0 0 0 0 0 0 0 0 0 0 0 0 0 0 0 0 0 0 0 0 0 0 0
64 71 72 99 93 67 57 42 41 35 22 22 9 0 0 0 0 0 0 0 0 0 0 0 0 0 0 0 0 0 0 0 0 0 0 0 0 0 0 0 0 0 0 0 0 0 0
65 65 57 60 82 91 66 50 39 24 27 10 19 9 0 0 0 0 0 0 0 0 0 0 0 0 0 0 0 0 0 0 0 0 0 0 0 0 0 0 0 0 0 0 0 0 0
53 59 66 60 45 57 78 62 43 40 27 29 24 13 3 2 0 0 0 0 1 0 0 0 0 0 0 0 0 0 0 0 0 0 0 0 0 0 0 0 0 0 0 0 0 0 0
79 61 67 45 53 60 59 74 53 37 44 27 23 19 25 7 6 0 0 8 101 1 0 0 0 0 0 0 0 0 0 0 0 0 0 0 0 0 0 0 0 0 0 0 0 0 0
95 97 84 70 52 49 56 58 74 44 61 34 29 17 18 12 0 0 7 37 3 0 0 0 0 0 0 0 0 0 0 0 0 0 0 0 0 0 0 0 0 0 0 0 0 0 0
102 105 98 74 59 57 42 40 62 44 60 35 36 14 16 2 0 0 29 14 1 0 0 0 0 0 0 0 0 0 0 0 0 0 0 0 0 0 0 0 0 0 0 0 0 0 0
107 91 101 88 59 51 26 30 82 70 55 59 31 36 2 17 0 2 22 8 2 0 0 2 0 0 0 0 0 0 0 0 0 0 0 0 0 0 0 0 0 0 0 0 0 0 0
89 96 82 94 51 36 29 39 63 92 50 82 60 36 0 60 23 18 7 15 1 0 0 2 0 0 0 0 0 0 0 0 0 0 0 0 0 0 0 0 0 0 0 0 0 0 0
71 103 91 94 59 34 28 43 62 74 42 72 60 2 29 46 41 11 8 4 1 0 3 0 0 0 0 0 0 0 0 0 0 0 0 0 0 0 0 0 0 0 0 0 0 0 0
91 125 121 119 70 31 24 33 54 98 42 22 29 38 71 18 16 9 18 14 1 0 0 0 0 0 0 0 0 0 0 0 0 0 0 0 0 0 0 0 0 0 0 0 0 0 0
155 147 148 155 79 36 24 27 70 116 44 12 59 9 75 59 0 0 7 8 5 0 0 0 0 0 0 0 0 0 0 0 0 0 0 0 0 0 0 0 0 0 0 0 0 0 0
126 145 123 80 62 34 28 47 76 118 55 44 55 0 16 3 4 0 0 0 4 1 0 0 0 0 0 0 0 0 0 0 0 0 0 0 0 0 0 0 0 0 0 0 0 0 0
108 107 112 96 72 27 33 86 88 54 61 25 32 25 79 0 4 16 26 13 0 0 0 0 0 0 0 0 0 0 0 0 0 0 0 0 0 0 0 0 0 0 0 0 0 0 0
133 113 87 57 27 33 55 94 61 44 83 13 1 4 40 8 1 7 2 2 1 0 0 0 0 0 0 0 0 0 0 0 0 0 0 0 0 0 0 0 0 0 0 0 0 0 0
112 99 100 51 23 45 64 69 34 32 24 0 1 30 63 13 9 0 0 12 9 0 0 0 0 0 0 0 0 0 0 0 0 0 0 0 0 0 0 0 0 0 0 0 0 0 0
111 110 125 137 44 43 70 52 38 53 22 0 0 12 71 29 3 21 5 0 1 0 0 0 0 0 0 0 1 2 1 1 0 0 0 0 0 0 0 0 0 0 0 0 0 0 0
178 108 75 90 33 41 58 60 34 59 38 0 0 0 22 33 1 24 11 3 0 0 0 0 0 0 0 0 2 0 18 0 0 0 0 0 0 0 0 0 0 0 0 0 0 0 0
7 32 81 32 25 38 44 43 45 47 55 4 0 0 15 24 20 19 18 0 0 0 0 0 0 16 2 0 0 0 0 0 1 0 0 0 0 0 0 0 0 0 0 0 0 0 0
21 52 23 27 27 39 36 48 44 52 88 11 0 2 53 26 3 13 33 0 0 0 0 0 0 0 0 0 0 0 0 0 0 0 0 5 5 0 0 0 0 0 0 0 0 0 0
15 22 29 36 31 39 46 54 59 74 83 7 0 0 0 40 20 0 0 0 0 0 0 0 0 0 0 0 0 0 0 0 0 0 0 0 0 0 0 0 0 0 0 0 0 0 0

GFSGBSN_con_sbcape_027.txt.gz
CAPE
16 17 8 12 29 18 3 10 20 12 9 4 4 0 7 7 0 0 0 0 0 0 0 0 1 0 0 0 0 0 0 0 0 0 0 0 0 0 0 0 0 0 0 0 0 0 5
29 26 36 9 7 5 9 7 20 14 8 0 3 7 4 5 0 0 0 0 0 0 0 0 0 0 0 0 0 0 0 0 0 0 0 0 0 0 0 0 0 0 0 0 0 54 2
48 36 33 36 29 21 7 4 15 19 15 8 0 10 2 5 1 0 0 0 0 0 0 0 0 0 0 0 0 0 0 0 0 0 0 0 0 0 0 0 0 0 0 0 0 29 52
35 25 52 38 31 33 24 11 5 16 20 19 10 0 0 0 0 1 0 0 0 0 0 0 0 0 0 0 0 0 0 0 0 0 0 0 0 0 0 0 0 0 0 20 0 0 0
31 49 40 40 34 35 30 30 19 9 8 23 18 0 0 0 0 1 0 0 0 0 2 0 0 0 0 0 0 0 0 0 0 0 0 0 0 0 0 0 0 0 0 15 0 2 31
41 42 48 67 35 41 36 32 34 12 22 21 20 12 0 0 0 0 0 0 0 0 0 0 0 0 0 0 0 0 0 0 0 0 0 0 0 0 0 0 5 0 0 0 49 3 25
31 25 44 47 65 46 55 40 34 29 10 22 17 21 15 0 0 0 0 0 0 0 0 0 0 0 0 0 0 0 0 0 0 0 0 0 0 0 0 0 0 0 0 0 0 0 27
69 63 27 53 73 71 39 56 37 36 29 24 17 15 7 0 3 0 0 0 0 0 0 0 0 0 0 0 0 0 0 0 0 0 0 0 0 0 0 0 0 0 0 0 0 0 0
70 74 73 52 38 66 67 50 46 35 31 24 22 11 1 0 1 0 0 0 0 0 0 0 0 0 0 0 0 0 0 0 0 0 0 0 0 0 0 0 0 0 0 0 0 0 0
59 67 66 71 63 51 66 76 59 47 40 29 19 15 2 0 1 0 0 0 0 0 0 0 0 0 0 0 0 0 0 0 0 0 0 0 0 0 0 0 0 0 0 0 0 0 0
68 55 56 67 61 40 40 65 71 58 44 43 23 18 8 14 0 0 0 0 0 0 0 0 0 0 0 0 0 0 0 0 0 0 0 0 0 0 0 0 0 0 0 0 0 0 0
89 84 71 66 72 50 36 33 60 53 55 46 28 18 15 9 13 0 0 0 0 0 0 0 0 0 0 0 0 0 0 0 0 0 0 0 0 0 0 0 0 0 0 0 0 0 0
77 78 73 76 67 65 45 37 34 78 40 53 44 32 27 41 12 0 0 0 12 3 0 0 0 0 0 0 0 0 0 0 0 0 0 0 0 0 0 0 0 0 1 0 0 0 0
80 71 77 73 74 64 62 42 30 51 69 48 55 51 41 7 24 0 15 17 40 0 0 0 0 0 0 0 0 0 0 0 0 0 0 0 0 0 0 0 0 0 1 1 0 0 0
78 80 73 67 70 73 66 47 34 42 54 61 41 38 27 24 3 0 70 33 0 0 0 0 0 0 0 0 0 0 0 0 0 0 0 0 0 0 0 0 0 0 0 0 0 0 0
107 93 72 78 60 62 61 51 31 48 62 94 14 23 28 25 15 15 49 7 0 0 0 0 0 0 0 0 0 0 0 0 0 0 0 0 0 0 0 0 0 0 0 3 2 0 0
101 109 104 72 61 62 61 53 41 25 77 112 14 25 10 44 97 43 1 8 0 0 0 0 0 1 0 0 0 0 0 0 0 0 0 0 0 0 0 0 0 0 0 0 0 0 0
74 120 145 97 83 69 82 51 40 37 92 102 19 10 0 35 25 11 11 2 0 0 0 0 0 13 7 0 0 0 0 0 0 0 0 0 0 0 0 0 0 0 0 0 23 0 0
62 67 83 161 67 76 75 45 27 41 86 34 9 26 14 6 5 6 9 11 0 0 0 0 0 21 6 1 0 0 0 0 0 0 0 0 0 0 0 0 0 0 0 0 0 0 0
108 110 127 66 61 80 86 35 30 45 99 16 37 19 98 33 2 1 14 21 20 0 0 0 0 11 10 4 0 0 0 0 0 0 0 0 0 0 0 0 0 0 0 0 7 0 0
102 127 144 132 67 56 87 34 34 54 99 18 40 44 35 16 17 13 6 4 5 0 0 0 0 0 15 1 0 0 0 0 0 0 0 0 0 0 0 0 0 0 0 0 0 0 0
144 149 144 153 104 45 67 29 32 58 97 30 7 10 26 0 0 13 30 26 5 0 0 0 0 0 0 19 7 0 0 0 0 0 0 0 0 0 0 0 0 0 0 0 0 0 0
147 163 117 112 127 92 82 31 33 71 78 28 6 0 21 3 2 14 9 25 37 0 0 0 0 0 6 0 0 0 0 0 0 0 0 0 0 0 0 0 0 0 0 0 0 0 0
84 160 191 125 132 136 61 35 30 74 36 21 1 9 21 24 13 1 1 39 22 0 0 0 0 0 0 0 0 0 0 0 0 0 0 0 0 0 0 0 0 0 0 0 0 0 0
137 160 159 136 144 100 56 48 35 61 51 14 0 10 62 57 2 8 10 10 53 20 0 0 0 0 0 0 4 0 0 0 0 0 0 0 0 0 0 0 0 0 0 0 0 0 0
146 76 125 126 108 86 69 39 35 44 87 10 0 0 41 61 24 1 10 10 7 22 5 0 0 0 0 0 0 7 0 0 0 0 0 0 0 8 0 0 0 0 0 0 0 0 0
55 69 115 79 74 33 55 21 40 53 70 0 0 0 63 69 20 43 43 9 19 18 0 0 0 0 0 0 0 0 0 0 0 0 0 0 0 0 0 0 0 0 0 0 0 0 0
64 70 67 65 28 59 13 36 39 36 54 0 0 0 6 46 15 1 11 22 18 0 0 0 2 0 0 0 0 0 0 0 0 0 0 0 0 0 0 0 0 0 0 0 0 0 0
59 53 23 25 42 13 27 26 25 36 35 1 0 0 0 2 17 32 2 0 0 1 0 0 0 0 0 0 0 0 0 0 0 0 0 0 0 0 0 0 0 0 0 0 0 0 0

GFSGBSN_con_sbcape_030.txt.gz
CAPE
34 20 22 27 21 18 17 19 16 19 12 9 0 1 0 0 1 6 0 0 0 0 0 0 0 0 0 0 0 0 0 0 0 0 0 0 0 0 0 0 0 0 0 0 0 0 284
32 27 40 27 29 22 17 22 18 21 18 16 11 5 15 6 0 2 0 0 0 0 0 0 0 0 0 0 0 0 0 0 0 0 0 0 0 0 0 0 0 1 0 0 0 58 476
23 25 41 43 26 26 25 28 20 11 20 24 16 13 6 0 0 0 0 0 0 0 0 0 0 0 0 0 0 0 0 0 0 0 0 0 0 0 0 1 0 0 12 25 3 398 395
37 35 28 36 49 46 24 25 25 19 5 23 24 13 2 0 0 0 0 0 0 0 0 1 1 0 0 0 0 0 0 0 0 0 0 0 0 0 0 0 1 0 0 66 78 253 344
25 31 36 43 39 40 46 29 30 26 19 5 8 15 6 0 0 0 0 0 0 0 0 0 0 0 0 0 0 0 0 0 0 0 0 0 0 0 0 0 8 9 28 51 23 124 396
33 24 25 49 53 46 55 48 35 27 23 19 6 18 15 4 0 0 0 0 0 0 0 0 0 0 0 0 0 0 0 0 0 0 0 0 0 0 0 0 33 31 28 30 51 174 227
31 60 46 49 45 53 31 46 55 29 26 25 14 18 18 10 0 1 0 0 0 0 0 0 0 0 0 0 0 0 0 0 0 0 0 0 0 0 0 0 0 6 8 23 23 39 136
78 82 58 78 66 53 18 50 37 32 31 29 22 11 13 6 0 0 4 0 0 0 0 0 0 0 0 0 0 0 0 0 0 0 0 0 0 0 0 0 0 18 14 28 7 0 11
60 72 62 72 89 83 52 34 38 38 19 36 31 19 17 5 0 6 8 0 0 0 4 0 0 0 0 0 0 0 0 0 0 0 0 0 0 0 0 0 5 34 29 11 5 0 0
57 52 55 69 69 77 83 59 39 35 20 37 37 28 21 7 1 9 1 0 0 0 0 0 0 0 0 0 0 0 0 0 0 0 0 0 0 0 0 0 1 27 7 11 2 2 32
66 69 70 60 68 65 69 64 43 31 28 10 41 35 34 26 10 16 0 0 0 1 0 0 0 0 0 0 0 0 0 0 0 0 0 0 0 0 0 0 0 21 0 12 31 15 25
72 75 82 79 73 64 54 55 45 31 26 48 29 45 49 30 13 4 0 2 7 49 0 0 0 0 0 0 0 0 0 0 0 0 0 0 0 0 1 0 0 0 8 15 32 48 43
67 70 71 78 75 63 77 65 42 29 27 32 43 45 24 25 9 2 7 107 118 20 0 0 0 0 0 0 0 0 0 0 0 0 0 0 0 0 0 0 0 0 15 80 83 86 66
62 57 69 77 76 70 71 70 59 34 22 32 46 70 40 3 21 7 64 205 3 0 0 0 0 0 0 0 0 0 0 0 0 0 0 0 0 0 0 0 3 0 16 49 33 58 42
86 83 69 80 80 75 74 77 59 48 24 43 65 44 115 59 0 26 118 106 0 0 0 0 0 0 0 0 0 0 0 0 0 0 0 0 0 0 0 6 1 2 9 18 64 14 21
97 87 77 65 65 75 61 71 74 65 44 54 72 54 65 80 40 12 35 51 0 0 2 0 0 0 0 0 0 0 0 0 0 0 0 0 0 0 0 16 3 24 11 32 81 47 1
97 84 72 62 52 54 63 63 76 69 56 93 115 35 24 83 119 21 42 20 0 0 0 49 1 0 0 0 0 0 0 0 0 0 0 0 0 2 13 37 55 24 27 7 81 70 43
68 37 41 58 74 56 54 64 80 66 49 95 86 37 74 175 57 34 22 0 0 0 29 39 55 31 14 0 0 0 0 0 0 0 0 0 0 3 0 9 17 43 53 101 150 79 26
77 37 40 58 85 67 57 73 69 49 48 119 33 61 112 168 37 68 0 0 23 39 28 78 62 91 113 39 0 0 0 0 0 0 0 0 0 10 3 0 3 20 24 57 69 26 15
46 46 46 62 80 99 72 82 70 48 53 83 42 46 70 104 27 73 0 0 21 41 43 135 65 106 98 100 12 0 0 0 0 0 0 0 0 0 1 0 6 10 4 39 71 122 43
83 81 86 80 68 73 45 76 96 49 46 70 45 58 20 23 94 14 48 0 1 45 47 117 40 49 112 96 31 2 0 6 0 0 0 10 7 0 0 0 6 0 0 9 13 3 51
76 98 83 100 76 78 90 70 78 46 53 40 15 90 132 44 14 0 46 5 5 20 6 17 19 52 134 100 18 35 1 0 46 1 0 7 4 9 9 1 0 0 0 0 0 0 0
86 91 89 112 104 112 100 63 83 50 46 28 41 38 144 49 60 26 56 25 0 24 24 1 0 0 27 19 1 25 0 0 1 48 11 13 12 17 8 3 2 0 0 0 0 0 0
193 260 254 140 141 114 122 74 76 56 31 34 37 68 124 80 107 12 0 40 37 15 7 10 24 58 9 4 33 13 0 6 31 34 36 22 15 50 32 4 58 0 0 0 0 0 16
156 107 325 199 130 111 119 46 79 42 41 39 86 67 116 144 30 12 14 59 80 75 15 12 72 43 42 71 19 0 0 36 18 51 41 31 48 41 122 27 5 0 0 1 17 24 43
27 195 205 87 109 111 107 23 78 29 40 32 67 89 116 82 81 65 21 59 110 107 107 28 54 83 61 140 128 29 0 0 34 29 0 0 5 179 1 30 40 1 6 0 0 15 91
42 41 60 70 114 94 75 18 48 35 48 34 58 132 82 71 107 126 125 130 82 117 88 61 110 74 65 95 220 50 34 6 1 85 9 0 2 71 57 73 7 0 0 0 19 131 49
137 68 50 104 59 55 23 27 41 34 48 11 20 90 114 94 123 94 117 124 109 182 172 61 166 76 57 56 102 71 100 66 29 2 37 56 94 56 64 91 19 0 0 25 152 17 2
48 50 46 34 30 28 26 35 19 42 55 16 38 83 132 142 70 0 0 0 61 71 136 137 0 2 8 20 73 61 89 14 48 89 2 21 83 136 89 51 119 0 38 4 5 0 0

GFSGBSN_con_sbcape_033.txt.gz
CAPE
11 10 16 31 30 22 18 20 24 19 18 20 13 5 0 0 0 0 0 0 0 0 0 0 0 0 0 0 0 0 0 0 0 0 0 0 0 0 5 2 3 0 1 0 0 0 328
22 21 15 9 10 32 15 26 28 19 16 20 18 15 14 0 0 0 0 0 0 0 0 0 0 0 0 0 0 0 0 0 0 0 0 0 0 0 0 1 11 5 0 0 0 5 243
18 28 29 36 27 18 29 31 21 25 20 12 6 19 13 10 0 0 0 0 0 0 0 0 0 0 0 0 0 0 0 0 0 0 0 0 0 0 0 10 8 0 0 0 0 35 86
19 23 19 41 46 39 28 35 36 23 25 23 14 18 17 13 0 0 0 0 0 0 0 0 0 0 0 0 0 0 0 0 0 0 0 0 0 0 0 0 0 0 0 15 73 109 157
21 26 19 36 41 46 38 31 39 39 28 27 22 16 17 12 1 0 0 0 0 0 0 0 0 0 0 0 0 0 0 0 0 0 0 0 0 0 0 0 24 21 26 23 80 8 257
24 32 46 50 35 39 46 45 35 34 42 23 24 21 19 17 5 0 0 0 0 0 0 0 0 0 0 0 0 0 0 0 0 0 0 0 0 0 0 27 15 20 37 41 38 36 60
31 30 36 48 44 50 25 34 37 34 34 36 25 28 20 19 14 0 0 0 0 0 0 0 0 0 0 0 0 0 0 0 0 0 0 0 0 0 3 16 1 20 25 51 32 35 31
75 56 50 67 70 60 43 50 40 36 39 32 34 26 22 20 18 0 11 0 0 0 0 0 0 0 0 0 0 0 0 0 0 0 0 0 0 0 1 1 0 8 35 51 39 0 1
60 61 58 56 73 69 65 69 56 38 32 39 14 35 27 17 19 3 5 0 0 0 0 0 0 0 0 0 0 0 0 0 0 0 0 0 2 0 0 0 1 17 53 45 44 17 0
42 43 55 59 73 64 75 62 57 51 41 39 15 17 24 13 1 0 0 0 0 0 0 0 0 0 0 0 0 0 0 0 0 0 0 0 1 0 0 3 3 31 10 7 0 8 30
44 44 45 47 51 59 56 66 65 52 33 38 50 15 36 8 19 13 53 13 3 64 0 0 0 0 0 0 0 0 0 0 0 0 0 0 0 0 0 2 2 32 8 41 62 79 72
66 62 61 60 50 41 55 59 62 74 51 21 23 38 35 65 42 0 0 77 239 61 0 0 0 0 0 0 0 0 0 0 0 0 0 0 0 0 0 4 2 16 1 38 68 71 136
56 66 73 69 64 44 49 62 56 61 72 40 26 47 46 78 45 0 0 130 89 0 0 0 0 0 0 0 0 0 0 0 0 0 0 0 2 0 0 15 0 4 28 92 103 214 150
69 62 63 66 64 68 57 54 60 45 63 55 39 49 23 53 81 23 0 152 11 0 0 0 0 0 0 0 0 0 0 0 0 0 0 0 3 0 0 1 22 2 21 67 32 138 231
78 69 69 65 54 53 58 59 60 58 53 60 45 61 45 23 96 72 30 97 8 0 0 0 0 2 0 0 0 0 0 0 0 0 0 14 10 4 1 2 8 27 57 4 65 77 155
75 71 74 62 60 47 40 41 63 71 57 51 109 65 39 33 123 130 42 44 16 0 0 0 0 0 4 0 0 0 0 0 0 0 0 9 50 12 1 6 15 3 44 66 94 118 130
67 69 72 65 76 64 49 52 60 64 63 45 61 57 24 85 193 140 16 34 0 0 0 0 2 25 7 31 0 0 0 0 0 0 0 15 20 42 27 5 18 11 30 26 58 156 173
53 54 53 64 65 72 71 61 56 65 58 38 29 32 95 103 77 42 28 13 0 0 0 13 18 75 9 11 27 0 0 0 0 0 0 1 31 40 31 7 2 28 34 62 207 150 225
50 5 2 56 64 55 47 61 54 48 55 25 9 59 191 190 43 32 12 1 0 0 3 0 8 40 118 39 22 29 9 0 0 0 3 25 43 57 82 31 20 12 47 59 52 153 54
62 48 44 11 61 60 53 63 61 41 50 23 11 27 80 119 64 47 22 0 0 0 14 9 5 79 45 71 77 35 31 10 0 0 1 29 12 0 31 0 16 11 3 48 81 285 169
66 71 67 55 41 65 57 48 74 69 40 15 14 45 41 43 84 55 9 0 1 0 1 35 31 88 92 69 56 72 45 10 4 4 10 35 83 23 0 8 27 17 11 21 70 71 134
41 30 39 64 67 75 83 72 72 99 35 4 1 52 136 46 38 56 42 18 4 0 8 67 83 72 29 141 141 87 72 45 10 15 22 63 61 32 15 8 9 14 8 21 40 53 55
55 57 62 60 76 91 94 75 82 25 50 1 19 23 131 43 68 131 79 6 0 6 54 57 55 135 81 7 154 67 3 0 7 31 48 53 97 105 38 12 16 46 9 18 12 11 13
56 63 75 93 81 98 102 79 90 96 76 0 41 23 329 85 118 46 14 19 4 9 19 28 103 164 121 77 30 4 0 0 0 0 48 111 97 175 144 63 69 1 1 5 1 1 6
96 107 98 152 125 96 110 101 86 74 97 7 29 176 206 271 45 39 52 54 37 34 118 158 107 75 139 157 91 10 0 2 0 0 3 112 190 200 176 54 2 0 2 11 9 4 11
227 281 276 265 184 98 93 81 96 48 64 23 68 191 335 355 139 38 58 62 86 124 164 215 251 377 426 268 109 8 6 0 1 22 0 27 253 266 135 84 42 0 7 28 15 14 6
119 186 240 260 236 200 103 92 63 7 76 22 92 170 271 84 150 105 59 70 38 111 248 167 303 331 274 355 404 63 98 3 22 35 3 31 76 197 200 95 12 0 38 85 74 91 92
46 20 107 87 171 124 97 69 11 28 37 34 95 473 283 105 108 73 124 110 75 183 354 197 311 234 383 229 103 12 176 100 73 2 28 61 117 159 184 147 72 1 15 68 83 100 110
35 20 48 72 63 66 64 34 18 56 46 31 62 120 86 220 62 117 139 164 147 144 246 356 83 161 112 94 172 18 316 403 112 106 41 2 137 181 163 94 147 117 93 92 63 117 169

GFSGBSN_con_sbcape_036.txt.gz
CAPE
19 19 13 5 7 3 29 28 33 23 9 9 3 13 12 3 0 0 0 0 0 5 1 0 0 0 0 0 0 0 0 0 0 0 0 0 0 0 0 2 0 0 0 2 0 0 4
18 19 19 15 10 5 0 5 39 26 24 24 6 3 8 17 7 3 0 0 0 0 0 1 0 1 0 0 0 0 0 0 0 0 0 0 0 0 0 0 0 0 0 0 0 0 24
23 25 28 30 38 32 11 15 12 35 25 23 26 7 18 16 15 7 0 0 0 0 0 1 0 0 0 0 0 0 0 0 0 0 0 0 0 0 0 0 0 0 0 0 0 0 27
17 26 31 35 33 28 34 30 28 21 31 37 26 25 17 6 13 10 0 0 0 0 1 1 0 0 0 0 0 0 0 0 0 0 0 0 0 0 0 0 0 0 0 0 6 14 1
20 26 25 39 41 35 34 34 29 29 33 32 39 23 22 16 7 12 3 0 0 0 1 0 0 0 0 0 0 0 0 0 0 0 0 0 0 0 0 0 0 0 0 1 13 26 113
24 30 43 42 39 41 42 40 41 39 34 41 44 42 23 18 19 12 1 0 0 0 0 0 0 0 0 0 0 0 0 0 0 0 0 0 0 0 0 0 0 1 3 15 51 29 55
40 43 46 67 61 62 30 46 41 36 43 36 50 36 36 22 20 13 0 0 0 1 0 0 0 0 0 0 0 0 0 0 0 0 0 0 0 0 0 0 0 0 1 15 13 20 19
72 48 49 70 79 72 50 65 53 45 33 35 48 30 28 32 20 16 2 0 0 0 0 0 0 0 0 0 0 0 0 0 0 0 0 0 0 0 0 0 0 0 0 3 15 0 0
60 63 43 46 53 62 56 72 60 60 52 34 34 37 22 34 21 0 0 0 0 12 1 0 0 0 0 0 0 0 0 0 0 0 0 0 0 2 0 0 0 0 0 0 29 0 0
58 60 66 51 59 66 65 74 68 72 58 47 24 32 5 19 0 0 0 0 0 3 0 0 0 0 0 0 0 0 0 0 0 0 0 0 0 0 0 0 0 0 0 1 38 12 1
56 54 55 61 71 68 69 76 82 84 71 66 39 40 3 5 16 7 53 0 90 68 0 0 0 0 0 0 0 0 0 0 0 0 0 0 0 0 0 0 0 0 0 6 31 4 35
60 70 70 63 63 56 59 63 65 67 85 81 55 60 24 8 36 0 0 12 152 13 0 0 0 0 0 0 0 0 0 0 0 0 0 0 0 0 0 0 0 1 2 13 27 26 56
69 66 63 65 67 62 59 60 60 63 69 89 76 57 53 6 31 13 47 137 113 3 0 0 0 0 0 0 0 0 0 0 0 0 0 0 0 0 0 0 3 4 15 29 44 46 95
72 63 60 67 70 61 62 56 51 54 62 74 78 51 49 17 14 65 44 98 0 0 0 0 0 1 0 0 0 0 0 0 0 0 0 0 0 0 0 0 5 1 2 51 51 115 90
74 61 55 59 67 72 67 65 60 50 43 58 55 115 85 68 13 74 51 9 6 0 0 0 0 12 30 0 0 0 0 0 0 0 0 0 0 0 0 0 0 21 2 7 49 124 57
82 72 62 60 59 62 63 60 66 67 54 52 105 103 100 76 16 141 44 13 0 0 0 0 0 0 2 19 0 0 0 0 0 0 0 0 17 0 5 1 0 0 1 76 75 93 39
68 62 56 58 57 55 54 62 70 77 69 48 64 55 62 55 147 77 34 4 0 0 0 0 0 0 0 0 8 10 0 0 0 0 0 0 22 3 10 2 1 1 0 7 84 123 158
56 55 61 57 65 65 65 68 69 77 59 55 28 16 51 103 67 8 12 0 0 0 0 0 0 0 0 1 15 64 6 0 0 1 0 0 7 4 0 4 0 1 25 10 66 76 160
71 75 71 79 70 69 66 63 57 68 63 35 17 19 61 74 6 19 8 15 0 0 0 0 0 7 8 13 46 31 18 41 16 15 0 0 0 21 15 1 16 1 0 8 89 142 184
76 81 79 84 102 87 76 60 70 61 76 33 4 2 55 47 30 20 25 5 0 0 1 0 0 1 23 24 8 8 1 13 108 0 0 59 17 0 0 12 13 28 3 32 104 134 100
80 92 104 90 98 90 74 49 62 51 60 30 3 5 6 20 31 21 34 0 1 0 0 0 3 1 35 5 0 0 0 1 10 20 0 75 25 6 9 21 23 25 2 2 23 79 122
102 97 96 98 104 95 75 65 73 31 71 30 0 26 71 11 44 40 31 26 2 0 0 0 0 0 0 9 118 36 55 36 42 30 9 73 8 1 14 46 9 18 1 17 8 2 10
67 59 53 52 59 78 86 70 75 61 30 27 4 16 58 15 79 61 37 10 1 2 17 1 0 0 29 8 183 71 87 0 0 6 79 70 68 76 64 77 12 0 1 17 35 8 32
65 70 78 77 68 75 72 75 74 80 61 6 8 19 40 56 97 33 10 6 1 7 20 12 32 17 1 386 288 126 22 9 0 0 0 7 84 100 80 97 11 0 0 0 4 0 8
39 44 55 71 76 65 60 68 69 87 90 30 25 41 33 90 56 42 6 34 14 44 68 51 16 9 201 358 77 51 12 7 0 1 0 0 9 129 98 79 21 0 0 1 22 0 8
51 58 66 78 84 89 44 56 72 91 121 86 16 33 82 45 174 0 54 79 72 66 81 57 3 45 304 166 188 2 23 2 1 0 0 0 3 110 127 55 9 6 0 1 26 22 4
46 50 47 61 64 147 102 54 66 88 123 120 19 3 157 107 154 159 117 57 74 62 168 134 123 212 259 23 1 128 23 0 17 5 3 0 9 79 45 60 36 1 8 32 50 62 87
33 8 25 68 182 138 63 79 66 81 120 89 9 47 145 71 302 99 77 116 121 170 193 95 275 185 377 157 148 138 141 1 0 3 85 13 17 124 117 34 8 14 50 82 139 432 233
1 7 25 28 42 79 80 78 72 76 71 50 54 72 388 169 114 128 221 149 202 112 287 340 143 77 69 101 275 245 582 415 141 62 33 11 0 107 25 110 189 6 46 202 356 382 309

GFSGBSN_con_sbcape_039.txt.gz
CAPE
0 0 0 3 15 16 4 17 16 31 23 14 6 4 5 5 15 18 14 0 0 0 0 3 5 4 0 0 0 0 0 0 0 0 0 0 0 0 0 0 0 0 0 0 0 0 0
15 13 19 13 6 11 14 14 22 12 23 20 22 13 5 5 6 9 14 5 0 0 0 0 6 2 0 0 0 0 0 0 0 0 0 0 0 0 0 0 0 0 0 0 0 0 1
17 18 18 37 35 25 14 28 38 28 22 13 23 23 21 4 5 6 10 5 0 0 0 1 5 6 2 0 0 0 0 0 0 0 0 0 0 0 0 0 0 0 0 0 0 0 7
20 23 19 33 37 38 30 27 28 32 26 29 23 22 20 19 15 10 3 1 0 0 0 0 6 0 0 0 0 0 0 0 0 0 0 0 0 0 0 0 0 0 0 0 0 10 0
23 24 23 43 45 40 41 37 33 34 36 30 38 25 21 16 14 12 4 0 0 0 0 0 2 0 0 0 0 0 0 0 0 0 0 0 0 0 0 0 0 0 0 0 0 3 0
25 27 42 52 52 53 52 50 53 40 38 36 31 37 24 22 16 10 2 0 0 0 0 0 2 0 0 0 0 0 0 0 0 0 0 0 0 0 0 0 0 0 0 0 1 7 19
46 41 46 62 72 72 47 57 54 43 45 47 45 38 34 9 23 18 0 0 0 0 0 0 0 0 0 0 0 0 0 0 0 0 0 0 0 0 0 0 0 0 0 0 0 4 23
37 39 49 51 58 56 46 66 64 57 52 52 39 42 42 21 21 14 0 0 0 0 0 0 0 0 0 0 0 0 0 0 0 0 0 0 0 0 0 0 0 0 0 0 0 3 9
60 36 46 51 50 56 51 66 60 59 60 63 59 54 55 21 6 2 0 0 0 0 0 0 0 0 0 0 0 0 0 0 0 0 0 0 0 0 0 0 0 0 0 0 0 0 2
68 61 56 56 51 63 69 69 69 68 63 59 66 58 55 13 0 0 0 0 0 0 0 0 0 0 0 0 0 0 0 0 0 0 0 0 0 0 0 0 0 0 0 0 0 3 0
68 59 69 74 66 64 58 59 67 73 68 61 60 67 63 38 0 0 0 0 0 2 0 0 0 0 0 0 0 0 0 0 0 0 0 0 0 0 0 0 0 0 0 2 0 0 0
54 53 58 72 57 54 61 54 65 75 74 73 77 76 59 22 0 0 0 0 4 12 0 0 0 0 0 0 0 0 0 0 0 0 0 0 0 0 0 0 0 0 0 0 0 0 0
53 54 62 67 61 74 67 61 71 69 65 70 65 78 64 5 0 6 0 15 14 3 0 0 0 0 0 0 0 0 0 0 0 0 0 0 0 0 0 0 0 0 0 0 0 0 0
58 55 64 67 81 72 70 74 71 67 67 60 53 52 62 11 0 0 11 9 2 0 0 0 0 0 0 0 0 0 0 0 0 0 0 0 0 0 0 0 0 0 0 0 0 0 0
61 60 59 59 76 78 63 69 78 74 61 44 41 31 49 6 0 13 30 2 0 0 0 0 0 0 0 4 0 0 0 0 0 0 0 0 0 0 0 0 0 0 0 0 0 54 12
64 65 58 60 69 74 69 63 73 81 64 51 38 46 27 10 6 28 25 10 0 0 0 0 0 0 0 0 0 0 0 0 0 0 0 0 0 0 0 0 0 0 0 0 0 6 10
67 75 81 71 69 68 67 72 76 85 62 49 35 31 14 0 18 18 21 0 0 0 0 0 0 0 0 0 0 0 0 0 0 0 0 0 0 0 0 0 0 0 0 0 2 0 6
56 71 70 75 68 71 69 77 77 83 54 53 22 9 3 4 19 17 5 2 0 0 0 0 0 0 0 0 0 0 0 1 0 0 0 0 0 0 0 0 0 0 0 0 0 0 4
71 70 77 80 72 68 69 69 73 81 81 51 16 10 18 1 2 6 6 3 0 0 0 0 0 0 0 0 0 73 51 1 1 0 0 0 0 0 0 0 0 0 0 0 0 0 0
67 80 76 73 73 69 62 64 82 85 74 50 4 1 19 22 0 0 1 4 5 3 0 0 0 0 0 0 0 50 45 18 0 0 0 2 0 0 0 0 0 0 0 0 0 0 0
73 70 69 67 75 73 76 73 60 71 64 44 0 0 0 2 12 2 0 0 3 7 0 0 0 0 0 0 0 12 26 7 10 0 0 25 0 0 0 0 0 0 0 0 0 0 0
76 76 79 79 87 99 83 56 57 53 58 50 0 1 8 0 9 22 27 0 0 0 0 0 0 0 0 0 0 0 77 43 24 3 0 6 2 0 1 0 0 0 0 0 0 0 13
83 92 98 93 71 82 86 82 64 56 80 36 0 0 0 10 16 16 3 0 0 2 0 0 0 0 0 0 2 194 141 90 55 0 0 15 1 0 0 0 0 0 0 0 0 0 0
100 82 74 75 77 77 78 74 69 69 76 27 1 10 3 4 15 3 3 1 0 8 2 0 0 0 0 47 165 28 28 55 59 19 16 1 5 0 0 1 0 0 0 0 0 0 0
68 70 75 73 79 82 76 61 55 51 71 67 2 15 5 0 1 3 0 1 0 2 2 0 0 0 0 14 81 43 13 19 3 1 41 0 7 0 6 0 0 0 0 0 0 0 0
55 65 78 74 64 61 74 74 71 62 55 63 0 4 19 2 1 0 0 0 0 0 0 0 0 0 0 0 41 5 13 19 20 0 0 4 6 7 7 10 0 0 0 0 0 0 0
65 70 60 58 57 56 51 48 69 54 83 58 24 3 20 2 3 0 2 0 0 0 0 0 0 0 1 0 9 0 30 30 0 0 1 0 0 0 0 2 1 0 0 1 0 0 2
49 48 44 41 45 60 72 75 73 62 59 73 30 2 35 7 11 32 71 41 0 2 0 0 16 21 7 1 2 25 37 12 7 14 1 0 0 4 0 20 2 0 0 24 0 0 1
45 39 22 28 38 38 44 57 107 98 55 73 11 10 6 79 53 41 15 107 12 0 0 14 0 22 0 0 0 0 34 5 0 2 142 17 0 1 12 0 0 0 0 0 3 39 56

GFSGBSN_con_sbcape_042.txt.gz
CAPE
15 12 7 11 6 5 2 0 16 21 23 18 15 22 23 17 7 4 6 9 8 7 0 0 0 1 0 0 0 0 0 0 0 0 0 0 0 0 0 0 0 0 0 0 0 0 43
18 11 9 0 0 1 2 0 19 32 38 44 29 22 17 16 17 11 11 4 0 1 0 0 0 14 0 0 0 0 0 0 0 0 0 0 0 0 0 0 0 0 0 0 0 0 107
17 21 18 18 16 12 7 13 10 39 46 50 48 46 23 15 19 10 5 3 0 0 0 0 0 16 3 0 0 0 0 0 0 0 0 0 0 0 0 0 0 0 0 0 0 0 0
20 23 26 31 39 32 33 26 44 10 21 49 49 38 31 15 9 6 0 0 0 0 0 0 0 6 1 0 0 0 0 0 0 0 0 0 0 0 0 0 0 0 0 0 0 0 0
21 27 25 39 46 47 40 45 53 57 62 64 55 38 29 29 9 1 0 0 0 0 0 0 1 1 0 0 0 0 0 0 0 0 0 0 0 0 0 0 0 0 0 0 0 0 0
31 29 33 41 52 57 66 60 52 52 60 63 58 49 42 37 13 0 0 0 0 0 0 0 3 0 0 0 0 0 0 0 0 0 0 0 0 0 0 0 0 0 0 0 0 1 4
36 36 31 30 45 37 37 51 67 63 60 57 65 51 42 41 10 0 0 0 0 0 0 0 0 0 0 0 0 0 0 0 0 0 0 0 0 0 0 0 0 0 0 0 0 0 27
23 31 34 35 33 47 47 54 58 57 57 63 61 63 52 38 0 0 0 0 0 0 0 0 0 0 0 0 0 0 0 0 0 0 0 0 0 0 0 0 0 0 0 0 0 1 14
28 34 31 35 39 42 49 64 58 57 64 64 66 62 55 25 0 0 0 0 0 0 0 0 0 0 0 0 0 0 0 0 0 0 0 0 0 0 0 0 0 0 0 0 0 0 0
41 64 38 28 37 46 50 47 65 59 58 65 65 48 35 2 0 0 0 0 0 0 0 0 0 0 0 0 0 0 0 0 0 0 0 0 0 0 0 0 0 0 0 0 0 0 0
44 59 35 30 37 58 65 68 67 68 60 60 58 60 40 14 0 0 0 0 0 0 0 0 0 0 0 0 0 0 0 0 0 0 0 0 0 0 0 0 0 0 0 0 0 0 0
39 36 26 29 46 57 60 63 65 68 61 54 53 59 65 0 0 0 0 0 2 1 0 0 0 0 0 0 0 0 0 0 0 0 0 0 0 0 0 0 0 0 0 0 0 0 0
44 31 26 42 44 56 72 74 54 64 67 59 50 54 51 0 0 0 0 0 49 1 0 0 0 0 0 0 0 0 0 0 0 0 0 0 0 0 0 0 0 0 0 0 0 0 0
38 28 30 48 57 72 68 64 58 74 64 52 47 42 39 0 0 0 0 16 13 0 0 0 0 0 0 0 0 0 0 0 0 0 0 0 0 0 0 0 0 0 0 0 0 0 0
24 28 45 60 55 75 75 75 86 78 60 46 42 24 16 0 0 13 7 6 0 0 0 0 0 0 0 0 0 0 0 0 0 0 0 0 0 0 0 0 0 0 0 0 0 0 0
24 31 47 55 62 79 81 71 82 81 70 49 38 29 8 0 0 31 12 1 0 0 0 0 0 0 0 0 0 0 0 0 0 0 0 0 0 0 0 0 0 0 0 0 0 0 0
38 42 55 57 62 68 69 87 88 90 78 58 48 27 13 0 16 39 2 2 0 0 0 0 0 0 0 0 0 0 0 0 0 0 0 0 0 0 0 0 0 0 0 0 0 0 0
58 56 57 70 74 69 82 84 80 81 84 64 48 3 3 3 16 13 5 1 0 0 0 0 0 0 0 0 0 0 0 0 1 0 0 0 0 0 0 0 0 0 0 0 0 0 0
65 64 62 71 70 84 79 81 86 85 100 66 23 11 3 0 2 1 3 1 0 2 0 0 0 0 0 0 0 0 5 58 16 10 0 0 1 0 0 0 0 0 0 0 0 0 0
66 61 73 79 91 88 85 83 81 88 104 55 9 1 21 7 0 0 0 0 4 5 0 0 0 0 0 0 0 0 0 26 21 45 24 34 6 4 0 0 0 0 0 0 0 0 0
63 69 73 83 86 88 85 84 85 89 95 72 3 0 0 2 9 6 2 2 1 2 10 0 0 0 0 0 0 0 0 37 106 7 27 49 18 0 0 0 0 0 0 0 0 0 0
63 73 77 80 86 85 84 78 80 83 94 72 0 0 4 0 4 16 13 0 0 0 4 0 0 0 0 0 0 0 0 0 41 38 56 2 2 0 0 0 0 0 0 0 0 0 0
78 84 83 77 85 97 100 93 87 91 76 27 18 0 4 3 9 8 2 0 3 0 1 0 0 0 0 0 0 4 29 7 17 18 0 2 0 2 0 0 0 0 0 0 0 0 0
84 81 94 103 112 103 84 75 57 63 81 43 7 7 4 2 2 1 0 6 0 10 0 0 0 0 0 0 14 8 19 88 77 26 0 0 0 2 0 0 0 0 0 0 0 0 0
74 99 119 106 107 98 80 69 52 58 61 23 11 16 8 0 0 0 0 0 1 0 2 0 0 0 0 0 5 14 0 0 0 26 15 2 0 0 0 1 0 0 0 0 0 0 0
82 85 78 74 81 77 65 61 64 53 67 40 10 4 21 6 3 0 0 0 0 0 0 0 0 0 0 0 19 0 4 1 10 12 61 0 0 0 0 1 36 0 0 0 0 0 0
60 61 70 76 75 76 75 72 65 68 80 52 33 0 1 2 0 0 0 0 0 0 0 0 0 0 0 0 0 0 0 13 11 1 1 0 0 0 0 0 0 2 0 0 0 0 0
29 34 46 62 72 75 66 73 80 78 88 74 27 2 2 5 0 12 0 0 0 0 0 0 0 1 11 5 0 0 1 6 14 0 0 0 0 0 3 1 1 0 0 0 0 0 0
41 45 39 43 54 48 63 60 72 78 85 97 34 6 46 23 13 4 0 0 0 0 0 0 0 0 6 3 0 0 17 2 0 4 0 0 0 0 0 0 13 0 0 0 0 0 0

GFSGBSN_con_sbcape_045.txt.gz
CAPE
21 22 21 22 22 20 19 20 26 29 23 2 7 5 0 0 0 21 12 0 5 0 0 0 0 1 0 0 0 0 0 0 0 0 0 0 0 0 0 0 0 0 0 0 0 0 0
22 25 22 17 15 9 8 10 19 24 29 24 12 15 13 9 5 18 6 0 5 0 0 0 0 3 0 0 0 0 0 0 0 0 0 0 0 0 0 0 0 0 0 0 0 0 138
23 25 20 33 33 20 11 17 21 26 9 10 16 29 18 25 21 26 1 0 0 0 0 0 0 4 4 0 0 0 0 0 0 0 0 0 0 0 0 0 0 0 0 0 0 0 30
20 21 22 28 34 34 34 46 43 29 38 31 2 21 14 24 37 18 0 0 0 0 0 0 0 4 0 0 0 0 0 0 0 0 0 0 0 0 0 0 0 0 0 0 0 0 0
7 20 22 35 41 41 42 51 65 49 50 38 44 30 30 21 17 2 0 0 0 0 0 0 0 1 0 0 0 0 0 0 0 0 0 0 0 0 0 0 0 0 0 0 0 0 0
12 25 34 33 32 39 31 52 61 57 56 56 49 44 46 29 10 0 0 0 0 0 0 0 9 0 0 0 0 0 0 0 0 0 0 0 0 0 0 0 0 0 0 0 0 0 0
9 21 15 27 29 33 23 38 60 55 52 56 58 53 45 36 17 0 0 0 0 0 0 0 0 0 0 0 0 0 0 0 0 0 0 0 0 0 0 0 0 0 0 0 0 0 0
10 14 24 35 36 35 35 44 57 52 51 52 59 61 49 24 13 0 0 0 0 0 1 0 0 0 0 0 0 0 0 0 0 0 0 0 0 0 0 0 0 0 0 0 0 0 0
37 32 31 39 37 29 27 40 52 51 56 49 62 73 52 24 3 0 0 0 0 0 1 0 0 0 0 0 0 0 0 0 0 0 0 0 0 0 0 0 0 0 0 0 0 0 0
47 32 45 35 33 30 27 26 22 56 55 58 56 71 39 7 0 0 0 0 0 0 0 0 0 0 0 0 0 0 0 0 0 0 0 0 0 0 0 0 0 0 0 0 0 0 0
49 40 37 47 34 34 39 28 33 31 63 66 66 59 40 17 0 0 0 0 0 0 0 0 0 0 0 0 0 0 0 0 0 0 0 0 0 0 0 0 0 0 0 0 0 0 0
46 32 30 36 29 48 46 39 52 53 54 56 59 64 37 6 0 0 0 0 1 8 0 0 0 0 0 0 0 0 0 0 0 0 0 0 0 0 0 0 0 0 0 0 0 0 0
45 49 46 26 36 44 50 54 49 45 55 49 63 64 39 0 0 0 0 0 40 4 0 0 0 0 0 0 0 0 0 0 0 0 0 0 0 0 0 0 0 0 0 0 0 0 0
53 45 39 19 28 51 62 54 65 48 45 56 61 56 25 0 0 0 0 15 15 0 0 0 0 0 0 0 0 0 0 0 0 0 0 0 0 0 0 0 0 0 0 0 0 0 0
44 46 37 33 33 51 67 58 68 62 55 50 69 27 18 0 0 0 0 6 4 4 0 0 0 0 0 0 0 0 0 0 0 0 0 0 0 0 0 0 0 0 0 0 0 0 0
60 44 28 38 42 64 66 57 79 80 68 59 36 56 18 0 0 6 5 7 9 1 0 0 0 0 0 0 0 0 0 0 0 0 0 0 0 0 0 0 0 0 0 0 0 0 0
56 43 30 33 52 60 64 70 84 69 69 64 43 48 11 0 1 20 2 3 2 0 0 0 0 0 0 0 0 0 0 0 0 0 0 0 0 0 0 0 0 0 0 0 0 0 0
60 34 26 36 35 57 59 82 85 63 65 71 41 3 4 0 2 15 0 3 0 0 0 0 0 0 0 0 0 0 0 0 0 0 0 0 0 0 0 0 0 0 0 0 0 0 0
75 31 27 38 64 60 73 87 95 71 95 60 12 7 10 0 1 9 2 1 0 0 0 0 0 0 0 0 0 0 0 12 26 2 0 2 1 0 0 0 0 0 0 0 0 0 0
50 45 34 40 62 68 78 82 84 107 110 41 7 1 14 7 0 0 9 6 4 0 0 0 0 0 0 0 0 0 0 0 82 29 38 16 23 24 20 0 0 0 0 0 0 0 0
59 59 63 71 60 72 78 80 100 108 84 40 9 1 5 0 2 0 4 5 8 2 2 0 0 0 0 0 0 0 0 0 68 83 70 34 3 0 0 0 0 0 0 0 0 0 0
59 58 65 56 69 71 76 95 92 103 69 29 0 13 19 11 10 6 7 1 7 1 8 0 0 0 0 0 0 0 0 0 0 30 72 56 0 0 0 0 0 0 0 0 0 0 0
65 64 65 68 72 88 102 95 85 78 68 20 5 1 33 42 23 5 2 10 1 10 0 0 0 0 0 0 0 0 0 0 0 42 3 24 0 0 0 0 0 0 0 0 0 0 0
79 82 80 75 98 107 104 87 77 97 70 22 30 39 17 9 7 1 8 1 3 3 0 0 0 0 0 0 0 28 62 71 57 63 10 0 0 0 0 0 0 0 0 0 0 0 0
83 79 96 112 99 92 91 92 93 72 70 39 36 41 30 6 29 17 29 9 0 0 2 0 0 0 0 0 0 0 0 1 11 40 12 0 0 0 0 0 0 0 0 0 0 0 0
85 103 100 93 97 74 52 52 58 55 65 44 47 10 8 14 0 14 6 15 0 0 0 0 0 0 0 0 8 5 0 0 0 20 7 0 0 0 3 0 0 0 0 0 0 0 0
72 73 83 82 75 84 84 80 83 87 81 27 18 17 9 1 2 6 11 13 1 0 0 0 0 0 0 1 11 1 0 0 2 0 19 0 0 0 1 0 0 0 0 2 2 0 0
53 64 66 65 64 64 76 77 68 78 81 55 18 14 8 6 1 37 23 6 2 1 0 0 0 0 5 0 18 3 0 0 0 0 0 0 0 0 1 2 0 0 0 0 0 0 0
43 39 37 46 53 58 60 69 85 83 81 91 41 34 22 12 4 0 2 10 3 0 0 0 0 0 0 0 0 0 0 0 0 0 0 0 0 0 0 0 0 91 3 1 0 0 0

GFSGBSN_con_sbcape_048.txt.gz
CAPE
21 21 14 17 19 23 21 16 11 23 9 11 3 0 0 1 0 0 0 0 0 0 1 0 0 2 1 0 0 0 0 0 0 0 0 0 0 0 0 0 0 0 0 0 0 0 0
7 21 24 27 26 25 25 19 15 36 21 10 8 8 1 0 0 0 0 0 0 0 0 0 0 5 2 0 0 0 0 0 0 0 0 0 0 0 0 0 0 0 0 0 0 0 10
13 12 14 21 28 22 22 26 25 40 43 27 37 19 17 0 0 0 0 0 0 0 0 0 1 6 2 0 0 0 0 0 0 0 0 0 0 0 0 0 0 0 0 0 0 0 0
28 21 25 36 44 50 39 37 35 30 44 31 34 57 41 16 15 10 1 0 0 0 0 0 2 9 0 0 0 0 0 0 0 0 0 0 0 0 0 0 0 0 0 0 0 0 0
29 16 15 36 43 36 46 50 62 56 45 55 53 54 45 36 25 0 0 7 0 0 0 10 3 3 0 0 0 0 0 0 0 0 0 0 0 0 0 0 0 0 0 0 0 0 0
19 30 28 20 20 26 25 41 49 64 59 49 46 53 39 33 32 22 5 0 0 0 0 1 7 0 0 0 0 0 0 0 0 0 0 0 0 0 0 0 0 0 0 0 0 0 0
21 31 26 17 24 37 38 30 50 53 48 43 41 48 43 38 43 29 0 0 0 0 0 0 0 0 0 0 0 0 0 0 0 0 0 0 0 0 0 0 0 0 0 0 0 0 0
35 38 21 18 18 37 28 25 38 46 44 37 44 51 39 43 51 26 0 0 1 0 2 0 0 0 0 0 0 0 0 0 0 0 0 0 0 0 0 0 0 0 0 0 0 0 0
26 37 43 20 29 32 29 24 23 32 27 47 45 53 33 38 20 0 0 0 0 0 13 0 0 0 0 0 0 0 0 0 0 0 0 0 0 0 0 0 0 0 0 0 0 0 0
37 40 40 40 25 52 29 24 13 4 25 38 39 57 33 25 0 0 0 0 0 0 2 0 0 0 0 0 0 0 0 0 0 0 0 0 0 0 0 0 0 0 0 0 0 0 0
43 37 46 39 32 43 33 21 19 15 20 49 38 58 42 42 0 0 0 0 0 0 0 0 0 0 0 0 0 0 0 0 0 0 0 0 0 0 0 0 0 0 0 0 0 0 0
36 38 49 29 33 43 29 24 31 21 23 53 59 52 70 1 1 0 0 0 3 12 0 0 0 0 0 0 0 0 0 0 0 0 0 0 0 0 0 0 0 0 0 0 0 0 0
41 50 47 44 49 23 24 26 47 31 22 47 61 55 52 0 0 0 0 0 17 2 0 0 0 0 0 0 0 0 0 0 0 0 0 0 0 0 0 0 0 0 0 0 0 0 0
47 52 50 42 49 25 29 30 56 55 23 53 53 51 8 15 0 0 0 9 10 0 0 0 0 0 0 0 0 0 0 0 0 0 0 0 0 0 0 0 0 0 0 0 0 0 0
17 37 44 49 51 49 44 27 55 46 43 57 63 0 19 0 0 0 0 4 1 1 0 0 0 0 0 0 0 0 0 0 0 0 0 0 0 0 0 0 0 0 0 0 0 0 0
33 44 48 63 58 50 37 27 33 28 45 74 26 44 8 0 0 0 6 0 3 1 0 0 0 0 0 0 0 0 0 0 0 0 0 0 0 0 0 0 0 0 0 0 0 0 0
36 48 53 69 59 49 30 27 28 33 46 78 41 50 42 0 5 10 1 0 0 0 0 0 0 0 0 0 0 0 0 0 0 0 0 0 0 0 0 0 0 0 0 0 0 0 0
53 55 49 56 50 39 33 35 35 38 99 61 52 30 31 7 19 5 0 1 0 0 0 0 0 0 0 0 0 0 0 0 12 3 0 0 0 0 0 0 0 0 0 0 0 0 0
57 66 52 50 56 40 37 46 38 85 86 54 33 22 62 48 4 1 1 0 0 1 0 0 0 0 0 0 0 0 0 3 0 15 7 0 0 0 0 0 0 0 0 0 0 0 0
61 58 52 47 59 40 40 51 45 82 100 59 4 2 38 41 5 3 3 2 0 0 0 0 0 0 0 0 0 0 0 0 24 43 12 9 8 0 0 0 0 0 0 0 0 0 0
80 69 92 58 54 37 43 43 51 106 105 56 3 2 34 12 0 4 5 5 3 3 0 0 0 0 0 0 0 0 0 0 0 51 39 3 0 2 11 4 0 0 0 0 0 0 0
74 89 73 46 44 46 48 58 82 106 101 28 0 16 17 36 24 6 3 1 6 2 3 1 0 0 0 0 0 0 0 0 0 0 22 5 0 0 0 0 0 0 0 0 0 0 0
77 61 65 78 83 45 56 75 93 101 81 21 1 9 68 4 61 13 1 3 1 2 0 0 0 0 0 0 0 0 0 0 0 0 0 1 0 0 0 0 0 0 0 0 0 0 0
51 65 61 70 70 53 84 93 93 94 87 34 17 14 12 20 3 23 8 2 4 0 0 0 0 0 0 0 0 0 0 0 0 0 0 7 0 0 0 0 0 0 0 0 0 0 0
109 104 89 93 101 110 98 85 79 95 102 40 11 27 16 3 20 35 38 7 1 0 0 0 0 0 0 0 0 0 0 2 0 0 0 0 0 4 8 2 0 0 0 0 0 0 0
104 99 94 85 85 77 75 73 106 103 102 43 18 33 39 52 8 4 38 25 2 1 1 0 0 0 0 0 14 8 0 0 0 4 0 0 0 10 1 4 0 0 0 0 0 0 0
74 70 74 92 81 78 92 88 81 80 79 49 34 24 42 0 14 9 25 46 5 0 0 0 0 0 0 0 10 3 0 0 1 0 13 6 10 19 1 14 0 0 0 0 1 0 0
49 61 60 64 84 75 67 59 50 38 42 41 27 32 24 4 15 23 25 39 26 1 0 0 0 6 2 1 5 1 0 0 0 0 2 2 0 0 12 7 0 0 2 0 0 0 0
57 58 65 64 64 64 64 61 66 57 45 42 14 9 7 7 15 0 9 10 12 2 0 0 0 0 0 0 0 0 0 0 0 0 0 4 0 0 0 0 0 1 74 117 10 0 0

GFSGBSN_con_sbcape_054.txt.gz
CAPE
14 11 13 19 14 17 17 19 25 34 26 26 25 17 20 13 5 5 14 5 2 0 0 0 0 1 0 0 0 0 0 0 0 0 0 0 0 0 0 0 0 0 0 0 0 0 0
23 22 23 20 15 7 20 30 28 31 31 34 40 40 25 17 11 8 19 7 1 0 0 1 5 5 0 0 0 0 0 0 0 0 0 0 0 0 0 0 0 0 0 0 0 0 0
14 18 24 17 18 38 47 28 22 18 30 38 45 35 30 12 1 1 5 1 0 0 1 4 10 5 0 0 0 0 0 0 0 0 0 0 0 0 0 0 0 0 0 0 0 0 0
21 16 13 19 27 30 15 23 29 28 34 28 19 24 40 24 22 13 0 0 0 0 5 1 5 6 0 0 0 0 0 0 0 0 0 0 0 0 0 0 0 0 0 0 0 0 0
12 23 16 18 28 32 24 32 35 33 27 23 17 35 37 27 15 5 0 0 0 0 0 0 6 3 0 0 0 0 0 0 0 0 0 0 0 0 0 0 0 0 0 0 0 0 0
32 25 35 23 34 18 30 32 40 21 21 23 13 25 34 34 23 5 0 0 0 0 0 2 2 1 0 0 0 0 0 0 0 0 0 0 0 0 0 0 0 0 0 0 0 0 0
38 45 35 21 32 35 24 20 31 29 25 15 8 17 24 36 15 3 0 0 0 1 0 0 0 0 0 0 0 0 0 0 0 0 0 0 0 0 0 0 0 0 0 0 0 0 0
46 35 32 38 26 34 21 18 43 27 21 11 5 19 17 14 3 1 0 4 2 0 9 0 0 0 0 0 0 0 0 0 0 0 0 0 0 0 0 0 0 0 0 0 0 0 0
27 27 56 46 28 35 35 20 26 32 20 14 10 23 18 19 0 0 3 13 0 2 4 0 0 0 0 0 0 0 0 0 0 0 0 0 0 0 0 0 0 0 0 0 0 0 0
37 39 33 55 39 30 26 18 18 27 21 19 14 26 36 5 3 7 17 0 1 2 21 0 0 0 0 0 0 0 0 0 0 0 0 0 0 0 0 0 0 0 0 0 0 0 0
54 48 33 44 40 42 66 19 21 23 20 22 21 18 39 18 41 19 11 0 0 9 0 0 0 0 0 0 0 0 0 0 0 0 0 0 0 0 0 0 0 0 0 0 0 0 0
56 46 44 35 53 58 67 57 29 20 34 27 17 13 31 23 34 6 3 3 5 20 0 0 0 0 0 0 0 0 0 0 0 0 0 0 0 0 0 0 0 0 0 0 0 0 0
52 40 56 42 51 51 55 48 39 32 29 29 19 20 26 23 31 6 2 2 33 0 0 0 0 0 0 0 0 0 0 0 0 0 0 0 0 0 0 0 0 0 0 0 0 0 0
48 49 56 38 56 60 64 50 63 52 36 33 32 34 22 15 33 53 10 28 6 0 0 0 0 0 0 0 0 0 0 0 0 0 0 0 0 0 0 0 0 0 0 0 0 0 0
56 63 58 55 46 45 49 84 80 69 37 35 46 40 26 14 32 73 11 24 0 2 0 0 0 0 0 0 0 0 0 0 0 0 0 0 0 0 0 0 0 0 0 0 0 0 0
41 50 55 57 58 58 77 82 58 47 34 35 46 16 3 13 83 115 33 4 1 1 3 0 0 0 0 0 0 0 0 0 3 0 0 1 4 0 2 2 0 0 0 0 0 2 7
67 63 55 59 61 50 41 53 49 50 19 38 58 54 2 17 106 73 36 13 9 0 0 0 0 0 0 0 0 0 0 0 0 48 0 0 18 4 0 1 1 0 0 0 5 5 6
47 47 55 70 63 33 55 60 54 52 33 50 71 40 69 118 76 33 20 19 12 0 0 0 0 0 1 0 0 0 0 0 0 1 14 0 0 15 1 0 0 5 0 0 1 13 0
54 55 67 65 68 56 69 55 68 63 62 81 57 32 93 149 36 23 31 34 32 6 0 9 17 2 5 8 0 0 0 0 0 0 20 26 5 0 0 0 0 3 0 0 0 0 2
61 66 69 59 62 66 59 56 50 55 78 126 73 61 49 107 32 52 36 41 36 2 14 19 10 13 20 24 21 1 0 0 0 0 0 5 27 8 5 0 0 0 0 0 0 4 3
58 52 52 61 61 68 61 55 70 52 91 156 69 57 51 52 51 25 38 44 39 20 13 8 9 4 14 22 30 14 0 0 0 0 26 34 3 0 0 0 0 0 0 0 0 0 0
68 76 72 69 75 76 71 59 91 38 99 151 56 53 71 66 64 29 42 24 39 16 15 19 6 28 8 15 43 20 8 2 0 0 2 14 2 0 0 0 0 0 0 0 0 0 0
70 71 63 64 71 84 81 94 77 77 139 130 70 73 87 25 41 63 52 43 11 47 29 24 29 18 22 8 36 35 23 19 4 0 0 0 59 0 0 0 0 0 0 0 0 0 0
58 70 68 73 73 71 64 114 103 88 125 127 97 87 83 13 35 53 27 23 30 16 60 36 7 13 17 16 23 21 33 15 4 3 0 0 61 61 6 0 0 0 0 0 0 0 0
51 53 64 67 73 81 102 81 49 90 84 243 162 95 107 59 17 21 35 33 27 44 45 39 10 18 6 15 65 43 54 54 17 0 0 0 29 45 39 31 0 0 0 0 0 0 0
83 53 54 79 102 109 115 106 105 112 138 199 244 166 102 19 42 30 38 35 48 27 35 2 15 16 14 48 124 28 41 25 35 22 3 3 31 77 52 9 2 0 0 0 0 0 0
67 81 81 88 93 101 116 98 100 111 131 179 102 214 127 35 12 25 50 39 42 55 44 47 35 33 23 92 64 50 28 18 30 30 27 28 46 46 30 61 28 0 0 0 45 21 0
38 62 76 85 90 101 122 124 125 134 122 191 77 192 140 19 46 62 30 47 46 48 36 55 45 12 17 120 71 43 42 27 16 31 11 11 29 39 33 25 18 0 0 3 149 22 0
61 52 76 81 88 93 95 101 105 120 123 150 143 196 228 53 67 34 28 106 39 23 52 43 45 21 49 66 49 47 53 41 14 25 38 51 12 20 8 20 29 34 98 0 0 5 9

GFSGBSN_con_sbcape_057.txt.gz
CAPE
9 13 15 22 19 16 1 15 17 20 27 27 29 27 26 14 5 8 9 3 1 0 0 1 4 3 0 0 0 0 0 0 0 0 0 0 0 0 0 0 0 0 0 0 0 0 0
16 20 13 19 19 15 36 36 30 21 17 28 54 38 22 3 4 5 2 0 0 0 1 2 3 5 0 0 0 0 0 0 0 0 0 0 0 0 0 0 0 0 0 0 0 0 0
20 21 19 17 17 26 25 14 31 38 27 21 24 30 15 11 5 5 0 0 0 0 2 3 7 8 0 0 0 0 0 0 0 0 0 0 0 0 0 0 0 0 0 0 0 0 0
25 22 25 16 22 25 25 18 18 37 43 26 14 18 32 30 25 3 0 0 0 0 4 0 2 2 0 0 0 0 0 0 0 0 0 0 0 0 0 0 0 0 0 0 0 0 0
15 22 24 28 18 35 19 21 17 24 23 22 24 20 26 36 25 0 0 0 0 0 0 0 1 0 0 0 0 0 0 0 0 0 0 0 0 0 0 0 0 0 0 0 0 0 0
12 18 26 35 29 29 30 22 32 25 20 20 17 21 29 29 6 0 0 0 0 0 0 1 0 0 0 0 0 0 0 0 0 0 0 0 0 0 0 0 0 0 0 0 1 1 0
34 36 31 21 30 20 20 40 33 32 17 9 11 16 29 22 0 0 0 0 0 0 0 0 0 0 0 0 0 0 0 6 2 0 0 0 0 0 0 0 0 0 7 7 0 0 0
32 25 34 36 19 31 19 33 32 28 30 17 10 10 14 19 0 0 3 11 5 3 2 0 0 0 0 0 0 0 0 4 19 4 0 0 0 0 0 0 0 0 0 0 0 0 0
34 31 18 21 36 44 25 22 33 32 28 21 17 12 2 6 0 5 32 20 17 14 5 0 0 0 0 0 0 0 0 0 24 3 1 1 0 0 0 0 0 0 0 0 0 0 0
43 42 45 38 26 40 37 35 19 12 25 33 33 22 16 1 0 30 16 24 18 17 6 0 0 0 0 0 0 0 0 1 2 11 0 1 0 0 0 0 0 0 0 0 0 0 0
44 49 47 50 35 33 56 44 28 14 25 18 37 22 15 5 17 17 25 19 18 9 1 0 0 0 0 0 0 0 0 0 0 0 5 0 0 0 0 2 0 0 0 2 0 0 0
51 50 55 40 43 60 43 68 48 25 19 23 30 24 20 4 30 46 27 17 31 27 1 0 0 0 0 0 0 0 0 0 0 1 1 2 0 1 0 0 0 0 0 0 2 0 0
41 50 53 39 33 43 23 58 54 29 28 23 37 27 12 26 15 23 40 63 34 0 0 0 0 0 0 0 0 0 0 0 0 0 0 0 1 5 0 0 0 0 3 9 8 8 0
42 35 49 51 41 48 41 38 53 48 57 22 39 30 6 14 31 37 86 56 8 0 0 0 0 0 0 0 0 0 0 0 0 0 1 1 3 2 3 0 0 0 0 0 0 23 14
46 50 40 53 49 53 44 52 26 49 70 35 41 15 13 32 46 39 81 47 0 0 0 0 0 0 0 0 0 0 0 14 0 0 0 0 0 0 11 2 0 6 5 0 2 5 30
45 41 40 48 51 53 53 51 42 45 38 34 31 33 18 30 58 87 62 4 0 0 0 0 0 0 0 1 0 0 24 8 5 0 0 0 0 0 5 18 3 0 1 4 10 13 9
25 13 30 55 59 66 57 50 31 28 43 40 41 48 34 26 92 86 64 8 0 0 0 0 0 1 1 0 0 0 10 14 1 5 7 1 26 1 12 24 13 0 1 19 12 18 21
38 27 21 33 43 46 63 38 68 53 60 31 59 59 91 113 62 52 48 13 1 2 2 0 0 2 6 4 0 1 0 0 0 0 41 0 31 37 33 1 34 23 9 6 19 18 31
42 22 28 39 43 57 66 77 63 65 69 80 60 47 65 185 70 79 33 16 11 14 9 17 7 4 5 12 2 0 0 0 0 0 0 39 19 37 50 43 28 44 20 27 44 41 4
50 34 44 56 71 59 56 63 56 64 70 98 102 102 50 177 90 46 34 43 28 29 34 33 27 31 34 15 16 16 9 2 0 0 0 8 49 29 19 21 22 73 73 56 65 68 30
53 51 58 64 71 57 51 66 78 62 49 108 97 71 47 71 63 65 57 55 27 34 37 36 42 46 53 40 33 39 51 23 3 0 0 22 65 85 44 40 14 35 73 20 56 72 39
68 61 67 70 70 64 68 64 68 90 99 138 229 63 79 68 79 48 71 44 53 54 49 44 49 59 77 62 64 73 57 34 32 9 12 42 14 1 18 5 0 23 19 30 15 1 0
69 63 64 74 86 91 80 79 78 93 165 162 121 128 139 38 60 85 80 33 42 44 34 69 68 58 54 88 64 65 25 18 42 24 33 31 10 14 4 4 1 0 0 1 7 11 13
69 76 73 63 73 79 79 104 119 107 188 128 116 149 136 77 66 61 59 66 48 49 45 61 87 102 82 79 78 29 18 8 16 7 13 22 45 47 17 8 8 0 0 0 4 3 8
69 63 66 69 60 68 76 116 118 111 140 390 164 210 111 112 59 34 43 59 57 45 52 47 48 9 45 42 26 37 75 70 26 22 22 18 22 49 11 17 6 8 0 0 0 0 0
84 51 48 76 85 93 103 124 112 134 101 434 98 290 149 110 54 57 60 56 67 65 56 62 38 22 24 56 193 50 99 58 70 48 23 26 24 72 56 22 14 7 20 0 0 0 35
72 62 65 66 65 77 90 108 119 108 84 153 170 286 179 59 10 11 41 87 88 77 78 47 39 17 19 116 100 151 147 89 102 93 40 75 48 23 42 41 12 9 30 0 17 78 24
44 51 49 49 53 70 93 118 131 129 116 247 115 167 255 86 16 29 28 19 30 85 93 50 27 20 23 153 62 106 135 105 80 75 82 35 43 56 58 48 41 46 34 22 101 35 16
55 48 44 44 31 58 82 105 105 93 107 134 152 74 214 93 33 50 49 8 26 28 22 47 55 29 78 119 105 74 163 116 79 76 140 54 41 78 46 63 130 90 183 76 21 2 1

GFSGBSN_con_sbcape_060.txt.gz
CAPE
6 8 6 9 12 14 12 30 27 22 18 10 13 14 13 11 4 4 8 3 3 3 4 2 3 9 0 0 0 0 0 0 0 0 0 0 0 0 0 0 0 0 0 0 0 0 0
8 8 3 15 18 12 6 10 2 8 25 26 21 13 10 2 2 1 2 1 1 2 4 1 3 14 0 0 0 0 0 0 0 0 0 0 0 0 0 0 0 0 0 0 0 0 0
11 10 14 19 20 25 20 15 7 4 26 31 22 16 15 3 1 1 1 1 1 1 3 3 9 14 0 0 0 0 0 0 0 0 0 0 0 0 0 0 0 0 0 0 0 0 0
17 17 18 23 25 20 27 22 15 8 22 21 18 20 28 21 9 0 0 0 0 0 1 2 3 2 0 0 0 0 0 0 0 0 0 0 0 0 0 0 0 0 0 0 0 0 0
17 13 3 12 25 26 24 29 20 4 19 19 8 12 19 20 9 0 0 0 0 0 0 0 0 0 0 0 0 0 0 0 0 0 0 0 0 0 0 0 0 0 0 0 0 0 0
28 26 18 24 26 29 27 19 51 39 16 30 10 6 16 17 6 0 0 0 0 0 0 0 3 0 0 0 0 0 0 0 0 0 0 0 0 0 0 0 0 0 0 0 0 0 0
19 26 39 39 33 28 18 21 33 47 15 19 8 0 20 23 5 0 0 0 0 0 0 0 0 0 0 0 0 0 0 0 0 0 0 0 0 0 0 0 0 0 0 0 0 1 0
27 28 23 17 20 24 42 37 47 40 16 9 13 6 6 8 0 0 0 15 10 4 0 0 0 0 0 0 0 0 0 0 0 3 10 3 0 0 0 0 0 0 0 0 0 0 0
29 23 27 29 16 13 17 50 56 43 18 19 16 15 9 12 0 0 23 0 17 5 8 0 0 0 0 0 0 0 0 0 2 7 38 30 0 0 0 0 0 0 0 0 0 0 0
33 41 40 41 36 30 19 27 40 27 23 27 16 26 29 7 0 0 4 16 27 10 7 0 0 0 0 0 0 0 0 0 0 14 12 24 0 3 0 0 0 0 0 0 0 1 0
40 30 45 44 41 46 32 16 25 31 28 26 37 23 33 1 0 0 3 14 24 15 1 0 0 0 0 0 0 0 0 0 0 0 10 14 4 4 8 0 0 0 3 1 0 3 0
45 41 38 38 47 33 36 45 25 44 34 26 32 16 23 0 0 9 5 9 33 23 2 0 0 0 0 0 0 0 0 0 0 0 2 0 0 1 1 0 0 0 0 1 0 13 0
19 35 31 35 44 40 43 45 27 44 38 25 28 18 3 7 0 0 6 12 56 9 0 0 0 0 0 0 0 0 0 0 0 0 0 0 0 0 0 5 0 0 0 6 1 8 2
17 16 25 28 28 43 40 53 41 40 30 21 56 40 2 0 0 29 17 35 15 0 0 0 0 0 0 0 4 0 0 0 0 0 0 6 0 0 0 3 0 0 0 9 10 23 0
28 22 26 38 19 30 41 58 49 47 50 37 35 6 14 7 3 43 16 55 0 0 0 0 0 0 0 0 0 10 1 18 0 0 0 0 0 0 0 0 0 0 0 0 0 0 0
28 31 29 27 31 38 58 58 64 50 45 42 37 25 3 5 123 69 63 13 0 0 0 0 0 0 0 5 0 6 35 2 30 0 0 0 0 0 0 4 1 0 0 2 0 0 1
18 35 34 30 19 32 37 50 63 62 46 42 52 21 0 84 106 111 30 13 0 0 0 0 0 0 0 1 4 7 12 36 2 0 1 0 1 0 0 13 11 1 1 3 5 12 18
25 35 44 44 25 33 37 48 59 59 62 40 58 42 60 82 99 56 33 29 1 7 9 0 0 0 1 3 14 12 17 25 0 0 4 8 15 1 0 5 0 0 0 2 20 16 13
50 44 60 44 36 41 38 43 60 80 51 102 71 37 47 233 84 51 19 31 17 17 17 5 3 0 0 2 4 13 10 6 0 0 0 0 4 12 3 25 4 0 0 4 3 13 4
40 48 56 57 48 46 56 63 45 68 54 164 78 72 37 215 59 64 46 35 40 16 2 11 10 12 3 9 10 12 12 20 1 0 0 0 8 4 7 35 0 0 39 6 12 2 4
39 45 46 51 56 66 62 65 62 82 101 121 84 45 49 106 104 51 35 57 40 31 36 14 19 25 15 20 19 25 19 17 10 16 1 1 30 28 3 18 3 8 10 21 18 0 5
55 60 65 70 67 73 75 74 85 100 122 74 15 47 58 7 66 90 68 26 33 41 46 53 28 22 40 28 35 34 40 80 50 67 9 32 12 5 0 5 13 2 4 0 2 24 21
65 73 75 74 70 74 79 88 95 77 125 59 47 45 111 38 78 90 85 37 26 37 21 93 60 67 45 39 47 56 61 27 28 27 23 15 25 41 9 0 0 0 0 7 1 12 19
67 64 71 78 77 73 77 91 127 85 79 109 87 167 106 62 33 41 56 51 99 50 30 8 59 62 60 122 96 59 18 11 9 3 3 5 15 17 20 17 2 0 0 0 14 14 45
55 52 54 62 70 81 89 110 110 79 72 150 129 161 143 142 44 28 14 48 57 54 63 46 37 91 18 115 82 13 18 5 9 0 1 6 28 48 55 26 1 2 0 0 0 7 4
53 40 38 71 77 86 94 89 132 93 89 136 272 314 11 138 90 43 61 16 43 97 57 73 89 77 23 14 12 4 4 36 33 5 7 19 73 59 70 20 15 2 0 0 0 10 34
63 71 73 67 61 60 70 78 97 73 97 190 125 225 124 122 72 46 86 74 32 50 81 62 103 62 5 7 38 20 12 25 42 51 53 48 75 43 56 42 22 0 3 0 31 89 37
65 63 77 64 51 59 57 64 78 85 112 166 104 224 177 134 45 42 23 10 11 18 193 100 56 6 27 16 26 22 57 93 107 43 31 46 76 62 41 38 33 6 36 28 135 14 0
43 41 48 57 51 33 48 48 69 81 94 107 76 172 225 102 7 31 30 6 6 11 31 48 44 5 39 23 82 100 180 283 100 49 31 19 49 76 15 2 105 171 176 65 35 15 0

GFSGBSN_con_sbcape_063.txt.gz
CAPE
1 4 4 0 8 8 1 4 1 2 16 29 30 19 16 13 8 5 7 4 3 0 0 0 2 10 3 0 0 0 0 0 0 0 0 0 0 0 0 0 0 0 0 0 0 0 0
1 14 9 14 8 8 7 10 4 6 14 29 22 15 8 2 2 2 2 2 1 1 0 1 4 16 0 0 0 0 0 0 0 0 0 0 0 0 0 0 0 0 0 0 0 0 0
23 11 16 16 23 25 16 13 4 6 14 21 23 13 11 1 2 1 2 0 0 1 1 0 6 1 1 0 0 0 0 0 0 0 0 0 0 0 0 0 0 0 0 0 0 0 0
15 24 15 8 26 36 23 15 11 13 12 20 27 13 16 11 0 2 1 0 0 0 0 0 0 6 1 0 0 0 0 0 0 0 0 0 0 0 0 0 0 0 0 0 0 0 0
19 23 14 9 38 30 22 26 27 24 22 19 24 7 14 9 0 0 0 0 0 0 0 0 0 4 0 0 0 0 0 0 0 0 0 0 0 0 0 0 0 0 0 0 0 0 0
7 6 17 29 28 17 10 15 39 37 36 10 19 7 12 8 0 0 0 0 0 0 0 0 0 2 0 0 0 0 0 0 0 0 0 0 0 0 0 0 0 0 0 0 0 0 0
6 16 15 13 10 10 22 28 52 44 41 12 5 4 5 7 0 0 0 0 0 0 0 0 0 0 0 0 0 0 0 0 0 0 0 0 0 0 0 0 0 0 0 0 0 0 0
14 6 14 12 11 7 8 15 27 51 16 11 3 4 1 1 0 0 0 0 7 1 0 0 0 0 0 0 0 0 0 0 0 0 0 0 0 0 0 0 0 0 0 0 0 0 0
27 29 29 21 21 23 20 19 19 62 41 26 18 8 6 5 0 0 0 0 7 2 0 0 0 0 0 0 0 0 0 0 0 0 0 10 0 0 1 0 0 0 0 0 0 0 0
26 29 27 37 44 40 36 28 18 20 38 46 39 32 28 6 0 0 0 0 2 13 0 0 0 0 0 0 0 0 0 0 0 0 11 20 0 0 11 2 0 0 0 0 0 0 0
35 33 36 29 44 42 48 38 30 22 27 33 48 30 21 1 0 0 0 0 0 10 0 0 0 0 0 0 0 0 0 0 0 13 0 3 1 25 12 1 1 0 0 0 0 0 0
16 12 31 31 32 45 38 64 46 33 42 46 43 34 24 0 0 0 0 0 4 11 0 0 0 0 0 0 0 0 0 0 0 0 7 0 1 4 5 1 9 0 0 0 0 0 0
17 13 13 23 32 22 37 49 60 42 36 42 53 37 4 0 0 0 0 0 3 1 0 0 0 0 0 0 0 0 0 0 0 0 0 0 0 0 0 0 0 0 0 0 0 0 0
17 18 17 23 35 38 30 40 79 47 40 27 49 50 0 0 0 0 0 11 4 0 0 0 0 0 0 0 0 0 0 0 0 0 0 0 2 0 0 0 0 0 0 0 3 0 0
29 28 29 32 38 40 25 29 44 46 43 57 62 0 0 0 0 0 10 8 0 0 0 0 0 0 0 0 0 0 0 0 1 0 0 0 0 0 0 0 0 0 0 0 0 0 0
21 37 27 38 29 11 12 33 37 51 40 51 1 0 0 0 0 3 42 4 0 0 0 0 0 0 0 0 0 0 59 25 19 2 0 0 0 0 0 0 0 0 0 0 1 3 0
36 41 21 28 34 36 19 33 37 59 64 44 0 19 0 0 5 40 12 2 0 0 0 0 0 0 0 0 0 0 35 35 0 0 0 3 0 0 0 0 1 1 11 5 5 0 0
38 41 37 40 47 48 42 42 46 60 56 11 31 17 4 3 12 31 2 0 0 0 0 0 0 0 0 0 0 3 0 9 0 0 0 0 0 0 0 0 0 4 13 0 19 7 0
40 29 43 47 50 62 47 52 47 58 69 5 42 3 0 34 24 0 1 0 0 0 0 0 1 4 0 0 0 0 0 11 0 0 0 0 0 1 0 0 6 0 0 0 0 3 8
33 39 46 54 57 61 58 50 57 82 69 32 41 10 0 5 0 15 21 8 0 0 0 0 0 0 0 0 0 0 1 20 0 3 0 0 0 9 6 11 7 1 6 0 0 3 0
32 38 48 49 51 59 64 52 40 63 101 24 30 8 4 8 0 0 3 0 3 50 6 1 0 0 0 3 13 7 20 1 2 41 15 8 0 10 0 0 6 0 0 1 0 0 23
40 46 58 63 54 64 56 58 85 41 92 27 6 17 3 0 6 46 26 1 2 0 8 10 19 22 0 3 19 21 37 37 33 44 34 14 0 0 0 10 6 12 0 1 3 6 21
54 58 67 66 65 65 71 63 76 78 76 26 16 4 21 3 5 1 2 17 10 31 0 7 26 26 24 79 12 31 12 26 4 4 10 30 17 1 0 0 0 0 1 12 1 0 0
51 55 66 65 69 70 79 82 117 79 93 6 13 21 20 0 0 0 0 0 6 2 4 26 25 31 36 45 10 34 26 4 3 17 19 8 1 15 0 0 1 0 0 12 1 0 2
43 50 56 60 59 59 81 76 114 73 84 26 5 26 59 1 0 0 0 8 0 16 2 17 28 75 39 49 4 2 0 0 0 0 0 0 1 17 31 14 0 0 0 0 20 11 0
53 52 49 42 83 83 87 65 67 58 73 30 15 27 19 13 0 1 15 26 8 1 13 1 126 17 13 0 3 0 0 0 0 1 0 0 1 4 38 18 15 0 0 0 0 4 0
43 45 51 61 66 63 65 72 89 51 57 29 4 7 23 1 0 0 3 20 13 6 21 15 46 19 0 0 0 0 0 6 0 15 16 0 0 0 0 8 7 1 0 0 1 4 0
74 73 69 64 61 63 62 54 56 74 69 35 6 24 19 16 4 3 1 2 6 21 55 11 0 2 0 0 0 0 3 4 2 13 12 0 1 7 3 19 1 3 0 5 0 0 0
73 52 50 53 48 53 57 45 30 51 93 61 30 20 10 17 9 0 0 0 0 0 2 26 3 5 22 11 1 0 5 13 13 10 12 4 1 11 0 0 16 83 104 12 0 0 0

GFSGBSN_con_sbcape_066.txt.gz
CAPE
2 2 1 0 3 5 9 5 10 2 0 23 25 12 3 4 2 1 2 3 1 1 2 3 9 11 0 0 0 0 0 0 0 0 0 0 0 0 0 0 0 0 0 0 0 0 0
4 5 9 8 13 11 11 11 8 10 5 9 27 14 3 2 1 0 0 0 2 1 0 0 6 11 0 0 0 0 0 0 0 0 0 0 0 0 0 0 0 0 0 0 0 0 0
14 19 14 16 14 15 15 16 12 11 10 3 16 13 1 0 0 0 0 0 0 1 0 0 3 4 0 0 0 0 0 0 0 0 0 0 0 0 0 0 0 0 0 0 0 0 0
12 25 16 10 33 43 28 22 15 3 11 7 5 3 0 0 0 0 0 0 0 0 0 0 1 0 0 0 0 0 0 0 0 0 0 0 0 0 0 0 0 0 0 0 0 0 0
11 13 21 38 37 26 20 32 30 13 11 15 7 1 6 0 0 0 0 0 0 0 0 0 0 0 0 0 0 0 0 0 0 0 0 0 0 0 0 0 0 0 0 0 0 0 0
12 10 13 20 16 15 14 20 39 31 14 12 6 0 0 0 0 0 0 0 0 0 0 0 0 0 0 0 0 0 0 0 0 0 0 0 0 0 0 0 0 0 0 0 0 0 0
21 7 12 19 15 7 5 9 18 28 19 9 3 0 0 0 0 0 0 0 0 0 0 0 0 0 0 0 0 0 0 0 0 0 0 0 0 0 0 0 0 0 0 0 0 0 0
19 27 25 22 12 9 11 8 14 19 32 18 4 1 0 0 0 0 0 0 1 2 0 0 0 0 0 0 0 0 0 0 0 0 0 0 0 0 0 0 0 0 0 0 0 0 0
12 26 26 23 25 28 29 30 22 15 13 27 13 5 0 2 0 0 0 0 0 0 0 0 0 0 0 0 0 0 0 0 0 0 0 0 0 0 0 0 0 0 0 0 0 0 0
23 23 28 21 10 22 30 38 29 23 13 34 38 24 20 6 0 0 0 0 0 0 2 0 0 0 0 0 0 0 0 0 0 0 0 0 0 0 0 0 0 2 0 0 0 0 0
10 0 5 24 18 20 18 33 27 21 20 20 65 35 31 4 0 0 0 0 0 0 0 0 0 0 0 0 0 0 0 0 0 0 0 0 0 0 0 0 8 9 22 0 0 0 0
7 3 0 0 14 15 19 16 29 31 21 24 38 45 36 0 0 0 0 0 0 0 0 0 0 0 0 0 0 0 0 0 0 0 0 0 0 0 0 5 42 34 8 0 0 0 0
9 4 4 2 11 24 24 12 17 38 32 34 31 40 25 0 0 0 0 0 0 1 0 0 0 0 0 0 0 0 0 0 0 0 0 0 0 0 24 23 34 21 5 2 0 0 0
8 11 22 20 20 19 21 20 16 24 36 35 41 57 1 0 0 0 0 0 1 0 0 0 0 0 0 0 0 0 0 0 0 0 0 0 0 0 0 0 0 2 0 0 9 0 0
13 9 18 17 28 15 14 13 11 17 24 40 39 0 0 0 0 0 0 1 0 0 0 0 0 0 0 0 0 0 0 0 0 0 0 0 0 0 0 0 0 0 6 0 0 0 0
15 13 17 16 12 21 16 4 11 18 34 34 0 0 0 0 0 6 11 0 0 0 0 0 0 0 0 0 0 0 3 18 22 0 0 0 0 0 0 0 6 7 2 8 38 13 0
0 15 17 19 9 16 27 16 8 17 38 41 0 5 0 0 10 48 13 0 0 0 0 0 0 0 0 0 0 0 61 36 2 0 0 0 1 0 0 0 0 0 12 5 1 2 1
8 7 31 34 23 42 38 35 23 21 49 1 0 1 0 0 5 40 9 4 0 0 0 0 0 0 0 0 0 0 0 6 0 0 0 0 0 0 0 0 0 0 0 6 23 5 0
19 23 37 25 31 39 38 36 29 38 52 0 55 0 0 0 2 0 5 9 1 0 0 0 0 0 0 0 0 0 0 4 0 0 0 0 0 0 0 0 5 4 0 0 11 3 5
28 12 22 29 37 38 45 46 43 44 74 9 59 0 0 0 0 19 23 9 5 2 0 0 0 0 0 0 0 0 0 19 0 0 0 0 0 12 18 27 4 24 10 0 6 16 0
8 10 27 33 35 35 37 34 49 57 65 33 6 0 0 3 34 12 33 4 1 10 14 0 0 0 0 0 0 0 13 0 16 43 24 5 0 5 1 0 0 3 1 0 7 0 15
20 36 41 37 45 46 51 52 44 54 56 22 0 0 0 0 30 15 6 7 13 46 14 1 13 0 2 20 7 0 16 8 32 11 23 28 0 1 0 0 0 0 25 6 12 16 6
41 47 51 62 57 58 49 54 55 73 46 12 11 0 0 0 0 0 4 13 1 3 12 28 1 4 0 24 28 1 1 17 3 0 12 26 7 0 0 0 0 0 0 20 17 14 28
42 44 50 56 57 69 70 75 107 69 69 0 0 4 9 0 0 0 0 0 0 15 23 2 7 10 3 19 2 0 0 9 2 0 0 2 0 6 1 0 0 0 0 0 63 34 13
40 43 45 48 53 54 64 82 76 100 100 22 0 12 75 6 6 0 4 0 0 3 1 6 3 9 41 16 1 0 0 0 0 0 0 4 1 6 8 11 0 0 1 1 37 0 0
43 54 56 50 56 69 88 71 76 75 93 6 1 21 41 2 0 0 0 0 1 0 0 6 18 0 0 0 6 0 0 0 2 0 0 0 0 0 3 15 6 0 4 0 0 12 0
23 18 25 32 63 66 55 68 46 41 68 2 0 1 40 5 0 0 0 0 13 0 1 37 11 8 0 0 0 0 0 0 0 0 8 0 0 0 0 0 0 2 5 0 0 5 1
25 31 58 56 63 67 67 61 58 57 59 8 2 0 7 45 1 0 3 0 1 41 5 0 3 5 0 0 0 0 0 0 0 0 1 1 0 0 0 8 2 8 35 4 4 0 0
15 58 70 61 61 61 61 60 67 55 63 49 9 1 2 45 0 0 0 0 0 0 15 16 1 11 8 0 0 0 0 0 0 5 17 3 2 2 0 0 0 0 0 0 0 0 0

GFSGBSN_con_sbcape_069.txt.gz
CAPE
0 0 0 0 1 5 8 8 7 0 0 0 8 28 16 14 7 1 1 0 0 0 0 0 3 7 0 0 0 0 0 0 0 0 0 0 0 0 0 0 0 0 0 0 0 0 0
3 3 6 4 10 10 14 11 10 3 3 10 11 20 11 3 1 0 0 1 0 0 0 0 4 3 0 0 0 0 0 0 0 0 0 0 0 0 0 0 0 0 0 0 0 0 0
8 11 21 17 10 4 6 21 17 7 6 17 15 17 10 1 0 0 0 0 0 0 0 0 3 2 1 0 0 0 0 0 0 0 0 0 0 0 0 0 0 0 0 0 0 0 0
3 24 22 21 17 24 20 28 33 21 13 13 15 8 3 0 0 0 0 0 0 0 0 0 3 8 0 0 0 0 0 0 0 0 0 0 0 0 0 0 0 0 0 0 0 0 0
10 9 6 15 31 32 31 32 27 28 34 13 9 3 4 0 0 0 0 0 0 0 0 0 1 0 0 0 0 0 0 0 0 0 0 0 0 0 0 0 0 0 0 0 0 0 0
13 6 3 13 22 19 14 16 32 16 24 14 5 0 0 0 0 0 0 0 0 0 0 0 1 1 0 0 0 0 0 0 0 0 0 0 0 0 0 0 0 0 0 0 0 0 0
17 27 11 12 18 15 16 14 9 9 16 22 11 3 0 0 0 0 0 0 0 0 0 0 0 0 0 0 0 0 0 0 0 0 0 0 0 0 0 0 0 0 0 0 0 0 0
18 18 27 27 33 27 26 28 26 18 8 6 8 7 1 0 0 0 0 0 0 0 2 0 0 0 0 0 0 0 0 0 0 0 0 0 0 0 0 0 0 0 0 0 0 0 0
6 9 26 26 19 25 41 33 29 16 6 4 7 13 12 0 0 0 0 0 0 0 0 0 0 0 0 0 0 0 0 0 0 0 0 0 0 0 0 0 0 0 0 0 0 0 0
19 21 25 29 26 20 28 30 22 12 8 7 10 20 36 4 0 0 0 0 0 0 1 0 0 0 0 0 0 0 0 0 0 0 0 0 0 0 0 0 0 0 0 0 0 0 0
8 4 1 0 19 16 14 20 21 20 18 13 14 13 42 0 0 0 0 0 0 0 0 0 0 0 0 0 0 0 0 0 0 0 0 0 0 0 0 0 0 0 23 16 0 0 0
2 2 0 0 0 4 20 15 13 20 24 18 17 12 25 0 0 0 0 0 0 0 0 0 0 0 0 0 0 0 0 0 0 0 0 0 0 0 0 0 0 0 20 2 5 0 0
3 0 0 7 5 2 20 21 9 5 8 18 20 19 1 0 0 0 0 0 0 0 0 0 0 0 0 0 0 0 0 0 0 0 0 0 0 0 0 0 5 3 19 7 1 0 0
6 4 7 19 18 25 19 19 6 6 6 16 24 9 0 0 0 0 0 0 0 0 0 0 0 0 0 0 0 0 0 0 0 0 0 0 0 0 0 0 1 0 49 19 4 6 0
3 3 5 13 9 22 12 5 1 4 13 25 0 0 0 0 0 0 0 0 0 0 0 0 0 0 0 0 0 0 0 0 0 0 0 0 0 0 0 0 0 16 23 6 4 1 0
0 6 10 15 16 8 19 12 3 0 25 27 0 0 0 0 0 2 5 0 0 0 0 0 0 0 0 0 0 0 0 2 5 0 0 0 0 0 0 0 0 3 15 31 26 30 0
3 4 1 17 17 14 9 15 10 14 32 25 0 0 0 0 0 22 4 0 0 0 0 0 0 0 0 0 0 0 2 13 6 0 0 0 0 0 0 0 0 19 43 8 13 33 2
12 6 6 11 20 18 18 17 20 24 36 0 0 0 0 0 1 3 0 0 1 0 0 0 0 0 0 0 0 0 0 2 0 4 0 0 1 0 0 0 2 0 7 15 9 10 1
6 6 17 20 17 12 17 18 16 29 26 0 1 0 0 0 0 4 0 3 19 3 0 0 3 5 1 0 0 0 0 0 0 0 0 0 1 0 0 0 3 13 19 23 12 5 0
11 16 9 1 7 13 15 23 33 32 38 0 36 0 0 0 0 0 0 8 0 3 25 18 5 0 0 0 0 0 0 3 0 0 0 0 0 0 0 10 18 10 0 17 26 11 0
29 12 5 5 15 15 19 22 20 32 38 3 15 0 0 0 11 1 4 12 15 14 10 0 0 3 6 11 0 0 2 1 35 33 0 0 0 12 0 0 0 3 0 13 50 7 16
15 3 11 30 22 22 17 23 44 42 33 34 0 0 0 0 2 3 11 9 7 0 2 6 10 19 27 25 14 1 18 12 25 4 10 7 0 1 0 0 0 0 0 13 37 12 38
18 24 30 33 35 37 36 28 35 52 20 13 10 2 0 0 0 0 0 0 0 5 0 2 6 10 0 0 8 7 2 0 6 1 8 15 25 0 0 0 0 0 0 0 31 0 3
46 37 36 36 32 35 42 57 66 72 30 8 0 0 0 0 0 0 0 0 0 0 0 0 2 17 16 0 0 0 0 10 0 0 0 1 0 0 0 0 0 0 0 1 0 2 13
25 23 29 32 32 38 44 43 64 71 79 0 0 14 2 0 0 0 1 1 0 0 0 0 15 8 3 20 4 9 1 0 0 0 0 0 0 0 0 2 0 0 7 0 0 0 0
32 39 38 48 46 55 64 50 64 70 84 0 0 19 55 0 0 0 0 0 6 0 0 1 8 0 5 0 0 5 4 0 0 0 0 0 0 0 1 10 1 0 0 5 0 0 0
34 16 9 6 23 58 72 47 46 50 63 0 0 0 75 20 0 0 0 0 0 1 1 4 0 5 6 0 2 7 2 1 0 1 1 0 0 0 0 5 0 0 0 1 0 0 0
17 33 30 32 49 56 42 49 51 55 57 1 0 0 5 5 1 3 1 0 0 0 2 0 0 0 2 0 0 0 0 0 0 0 0 0 0 0 0 4 1 0 6 15 0 0 0
42 23 22 55 73 53 47 62 38 46 54 48 4 0 0 16 0 0 0 0 0 0 0 5 17 8 17 28 1 1 0 0 0 0 19 0 0 0 0 0 0 0 0 0 0 0 1

GFSGBSN_con_sbcape_075.txt.gz
CAPE
2 0 0 0 0 0 5 6 0 0 0 0 3 5 5 5 4 2 3 4 0 0 0 0 1 3 3 0 0 0 0 0 0 0 0 0 0 0 0 0 0 0 0 0 0 0 0
1 0 0 3 2 13 1 0 0 5 5 3 8 6 7 3 2 1 0 0 0 0 0 1 4 3 0 0 0 0 0 0 0 0 0 0 0 0 0 0 0 0 0 0 0 0 0
6 9 20 22 13 1 2 5 10 14 11 12 14 15 10 3 2 0 0 0 0 0 0 1 1 3 3 0 0 0 0 0 0 0 0 0 0 0 0 0 0 0 0 0 0 0 0
14 16 23 24 19 20 14 12 12 8 3 0 3 15 10 3 2 0 1 0 0 0 0 0 0 1 0 0 0 0 0 0 0 0 0 0 0 0 0 0 0 0 0 0 0 0 0
22 24 9 7 4 2 0 1 1 1 0 0 1 2 1 7 4 1 0 0 0 0 0 1 0 0 0 0 0 0 0 0 0 0 0 0 0 0 0 0 0 0 0 0 0 0 0
46 16 3 0 4 5 2 0 0 0 1 0 0 0 1 2 3 0 0 0 0 0 1 0 0 0 0 0 0 0 0 0 0 0 0 0 0 0 0 0 0 0 0 0 0 0 0
31 13 12 3 5 5 4 5 13 12 3 0 0 0 0 0 0 0 0 0 0 0 0 0 0 0 0 0 0 0 0 0 0 0 0 0 0 0 0 0 0 0 0 0 0 0 0
29 16 14 23 19 20 25 24 19 10 2 0 0 0 0 0 0 0 0 0 0 0 1 0 0 0 0 0 0 0 0 0 0 0 0 0 0 0 0 0 0 0 0 0 0 0 0
30 14 17 19 15 12 10 12 12 4 0 0 0 0 0 0 0 0 0 0 0 0 3 0 0 0 0 0 0 0 0 0 0 0 0 0 0 0 0 0 0 0 0 0 0 0 0
33 17 15 23 20 11 6 7 6 5 0 0 0 0 0 0 0 0 0 0 0 0 0 0 0 0 0 0 0 0 0 0 0 0 0 0 0 0 0 0 0 0 0 0 0 0 0
15 8 4 1 5 5 4 4 0 0 0 0 0 0 1 0 0 0 0 0 0 0 0 0 0 0 0 0 0 0 0 0 0 0 0 0 0 0 0 0 0 0 0 0 0 7 9
19 10 3 0 0 0 11 15 8 4 0 0 0 1 0 0 0 0 0 0 0 0 0 0 0 0 0 0 0 0 0 0 0 0 0 0 0 0 0 0 0 0 0 0 0 12 11
17 8 0 0 3 10 6 14 17 3 0 0 0 0 0 0 0 0 0 0 0 0 0 0 0 0 0 0 0 0 0 0 0 0 0 0 0 0 0 0 0 0 0 5 4 10 0
17 9 11 18 20 25 20 9 2 0 0 0 0 0 0 0 0 0 0 0 0 0 0 0 0 0 0 0 0 0 0 0 0 0 0 0 0 0 0 0 0 0 0 2 5 3 2
21 11 3 8 13 27 18 13 6 0 0 0 0 0 0 0 0 0 0 0 0 0 0 0 0 0 0 0 0 0 0 0 0 0 0 0 0 0 0 0 0 0 10 8 73 2 18
4 10 9 1 24 7 3 8 8 0 0 0 0 0 0 0 0 0 0 0 0 0 0 0 0 0 0 0 0 0 0 2 8 0 0 0 0 0 0 2 0 11 11 70 54 4 13
3 0 0 3 15 19 16 15 18 12 0 0 0 0 0 0 0 0 0 0 0 0 0 0 0 0 0 0 0 0 0 1 0 0 0 0 0 0 4 4 14 23 6 27 16 14 16
11 1 0 0 18 16 15 17 22 17 0 0 0 0 0 0 0 0 0 0 0 0 0 0 0 0 0 0 7 0 0 0 0 0 57 29 43 0 0 0 5 24 24 25 25 29 39
26 1 5 12 23 16 13 19 24 15 0 0 0 0 0 0 0 0 0 0 1 0 0 0 1 11 10 0 0 0 3 0 0 0 10 17 64 65 13 13 1 2 10 29 22 8 9
38 2 3 15 10 25 14 12 20 19 3 0 0 0 0 0 0 0 0 0 0 5 4 20 6 4 26 16 19 0 4 0 0 0 9 7 0 10 0 0 0 0 0 0 18 9 5
6 11 3 20 5 17 14 12 14 18 7 0 0 0 0 0 5 0 0 0 0 2 2 1 16 8 12 48 33 21 0 0 0 0 11 2 0 6 10 0 0 0 0 0 0 12 7
0 9 38 15 11 25 19 20 20 18 8 0 0 0 0 0 0 0 0 0 0 1 0 0 0 0 0 13 4 24 7 4 29 0 7 18 8 10 0 0 0 0 0 0 0 0 0
29 22 30 18 26 27 20 17 24 29 0 0 7 1 0 0 0 0 0 0 0 0 0 0 1 0 0 10 20 29 9 9 16 23 15 1 2 23 0 0 0 0 0 0 0 2 15
35 30 19 16 39 31 32 30 32 37 0 0 0 1 9 0 3 0 0 0 0 0 0 0 0 0 4 7 0 0 1 2 10 3 6 34 13 20 10 0 0 0 0 0 12 37 0
37 19 17 46 48 38 32 30 29 43 5 0 0 0 0 0 0 0 0 0 0 0 0 0 0 0 0 1 9 13 52 44 32 1 1 1 17 20 0 0 0 0 0 0 3 0 0
26 41 45 40 35 49 51 34 38 48 34 0 0 13 16 0 0 0 0 0 0 0 0 0 0 0 0 22 70 44 14 0 47 21 0 0 0 4 0 2 0 0 0 0 1 0 0
31 26 37 26 36 43 48 41 40 44 41 0 0 0 20 16 0 0 0 0 0 0 1 0 0 0 0 5 12 69 17 26 39 56 91 69 14 19 15 16 0 0 0 0 0 0 0
47 47 45 45 47 27 12 10 21 41 42 0 0 0 0 3 0 0 0 0 0 0 0 0 0 0 1 2 22 18 5 2 26 0 11 42 8 1 3 6 0 0 0 0 3 2 0
48 54 58 42 50 35 27 30 41 45 44 3 0 0 0 6 0 0 0 0 0 0 0 0 0 1 12 17 8 7 20 8 2 53 6 31 4 40 2 0 0 2 3 0 1 5 5

GFSGBSN_con_sbcape_078.txt.gz
CAPE
4 5 3 0 0 0 0 0 0 0 0 0 0 2 2 2 4 1 0 0 0 0 0 0 3 2 0 0 0 0 0 0 0 0 0 0 0 0 0 0 0 0 0 0 0 0 0
13 8 4 0 0 0 3 0 0 0 1 6 2 5 3 2 2 1 0 0 0 0 0 0 4 3 0 0 0 0 0 0 0 0 0 0 0 0 0 0 0 0 0 0 0 0 0
27 9 3 8 8 14 0 0 0 7 5 0 0 1 3 0 0 0 0 0 0 0 0 0 2 6 0 0 0 0 0 0 0 0 0 0 0 0 0 0 0 0 0 0 0 0 0
29 18 21 17 18 9 14 10 3 0 0 0 0 0 0 0 0 0 0 0 0 0 0 0 4 3 0 0 0 0 0 0 0 0 0 0 0 0 0 0 0 0 0 0 0 0 0
48 34 24 17 10 4 3 0 0 0 0 0 0 0 0 0 0 0 0 0 0 0 0 0 7 2 0 0 0 0 0 0 0 0 0 0 0 0 0 0 0 0 0 0 0 0 0
73 68 49 9 7 13 1 0 0 0 0 0 0 0 0 0 0 0 0 0 0 0 6 10 1 0 0 0 0 0 0 0 0 0 0 0 0 0 0 0 0 0 0 0 0 0 0
94 87 50 14 16 7 0 0 0 6 0 0 0 0 0 0 0 0 0 0 0 0 0 0 0 0 0 0 0 0 0 0 0 0 0 0 0 0 0 0 0 0 0 0 0 0 0
75 69 56 23 17 21 23 22 8 0 0 0 0 0 0 0 0 0 0 0 0 0 0 0 0 0 0 0 0 0 0 0 0 0 0 0 0 0 0 0 0 0 0 0 0 0 0
79 64 45 48 16 7 4 8 0 0 0 0 0 0 0 0 0 0 0 0 0 0 0 0 0 0 0 0 0 0 0 0 0 0 0 0 0 0 0 0 0 0 0 0 0 0 0
60 60 45 48 26 7 4 5 0 0 0 0 0 0 0 0 0 0 0 0 0 0 0 0 0 0 0 0 0 0 0 0 0 0 0 0 0 0 0 0 0 0 0 0 0 0 0
52 35 40 27 8 3 1 0 0 0 0 0 0 0 0 0 0 0 0 0 0 4 0 0 0 0 0 0 0 0 0 0 0 0 0 0 0 0 0 0 0 0 0 0 0 0 8
46 39 13 2 0 9 21 9 0 0 0 0 0 0 0 0 0 0 0 0 3 0 0 0 0 0 0 0 0 0 0 0 0 0 0 0 0 0 8 2 0 1 0 0 2 17 7
48 21 2 3 5 3 4 9 8 0 0 0 0 0 0 0 0 0 0 0 0 0 0 0 0 0 0 0 0 0 0 0 0 0 0 0 0 0 0 0 0 1 0 0 21 17 1
18 7 17 27 26 30 27 9 0 0 0 0 0 0 0 0 0 0 0 0 0 0 0 0 0 0 0 0 0 0 0 0 0 0 0 0 1 0 0 0 0 0 0 5 14 16 15
18 18 15 20 24 25 17 6 0 0 0 0 0 0 0 0 0 0 0 0 0 0 0 0 0 0 0 0 0 0 0 0 0 0 0 6 2 0 0 0 0 47 43 29 37 9 25
21 14 6 9 18 6 7 7 0 0 0 0 0 0 0 0 0 0 0 0 0 0 0 0 0 0 0 0 0 0 0 62 47 12 0 1 1 1 19 14 1 79 52 27 62 34 21
4 0 4 19 18 10 2 10 3 0 0 0 0 0 1 0 0 0 0 0 0 0 0 0 0 0 0 0 0 0 0 48 20 63 73 1 17 62 109 99 57 68 88 34 26 55 47
4 0 0 0 16 19 18 18 11 0 0 0 0 0 0 0 0 0 0 0 0 0 0 0 0 0 0 0 0 0 0 14 37 45 116 51 60 72 65 43 35 45 44 69 63 41 69
16 0 0 1 20 19 23 15 4 0 0 0 0 0 0 0 3 0 0 0 0 1 11 9 11 11 13 13 17 7 3 0 67 68 36 18 113 106 66 98 73 64 62 3 1 18 24
29 3 4 13 12 25 16 11 8 0 0 0 0 4 5 3 0 1 0 0 1 6 7 1 12 26 16 21 61 13 28 46 83 11 0 13 75 175 75 15 40 95 51 31 5 14 13
45 9 5 4 4 18 13 9 7 0 0 1 5 5 4 16 19 4 1 0 1 1 0 0 53 10 11 11 60 84 55 23 14 55 33 4 231 81 11 0 13 8 0 0 3 0 1
3 9 4 11 1 12 16 21 8 3 0 5 11 9 2 17 7 3 0 0 0 3 0 0 3 4 2 4 16 159 118 118 56 68 34 7 122 96 24 0 27 7 0 0 0 0 0
0 0 16 6 8 28 24 27 16 15 0 14 8 3 15 3 8 2 4 2 1 1 1 5 3 3 8 6 15 34 35 27 23 14 75 29 27 119 40 17 11 0 0 0 0 0 27
1 11 28 16 10 39 36 35 28 15 0 11 16 4 18 10 5 1 0 0 0 4 13 9 2 26 11 1 1 69 59 56 56 42 25 44 26 18 12 1 0 9 0 0 0 13 12
14 22 24 13 24 44 42 41 29 38 0 14 22 26 26 16 3 1 1 0 0 7 7 0 2 17 0 12 75 52 145 127 85 44 59 81 185 64 24 13 0 0 0 0 4 26 16
48 29 4 8 30 51 39 42 35 42 9 33 41 24 8 9 7 0 2 2 10 17 9 0 0 0 32 33 23 29 117 54 17 33 63 0 42 154 44 1 0 106 0 0 0 13 7
47 30 16 26 48 56 51 50 40 43 39 46 40 17 14 18 6 8 16 18 14 20 19 7 6 4 11 31 20 82 81 62 33 37 101 140 139 134 84 19 8 1 0 0 0 3 14
37 51 50 51 58 71 40 54 42 43 43 46 33 34 22 16 8 1 3 8 19 24 32 17 9 20 14 29 25 24 59 143 86 47 81 104 124 118 65 18 9 0 17 8 10 7 2
69 70 69 61 70 56 39 15 17 31 38 26 44 32 39 26 11 3 2 0 1 6 17 10 15 29 30 58 24 22 83 141 129 108 98 143 133 159 132 124 5 4 5 6 4 5 8

GFSGBSN_con_sbcape_081.txt.gz
CAPE
29 18 7 8 2 0 0 0 0 0 0 0 0 0 1 1 3 3 0 0 0 0 0 0 0 2 0 0 0 0 0 0 0 0 0 0 0 0 0 0 0 0 0 0 0 0 0
34 30 18 7 1 0 2 5 0 0 3 0 0 0 1 2 2 0 0 0 0 0 0 0 1 2 0 0 0 0 0 0 0 0 0 0 0 0 0 0 0 0 0 0 0 0 0
22 33 16 10 11 7 14 0 0 3 4 0 0 0 0 0 0 0 0 0 0 0 0 0 2 1 0 0 0 0 0 0 0 0 0 0 0 0 0 0 0 0 0 0 0 0 0
24 34 25 25 29 36 19 3 3 6 0 0 0 0 0 0 0 0 0 0 0 0 0 0 1 0 0 0 0 0 0 0 0 0 0 0 0 0 0 0 0 0 0 0 0 0 0
31 31 32 46 60 27 21 12 2 0 0 0 0 0 0 0 0 0 0 0 0 0 0 0 0 1 0 0 0 0 0 0 0 0 0 0 0 0 0 0 0 0 0 0 0 0 0
48 38 61 70 51 15 6 8 1 0 0 0 0 0 0 0 0 0 0 0 0 0 1 3 0 0 0 0 0 0 0 0 0 0 0 0 0 0 0 1 1 0 8 10 7 0 0
42 55 79 62 50 50 32 12 3 1 0 0 0 0 0 0 0 0 0 0 0 0 0 0 0 0 0 0 0 0 0 0 0 0 0 0 0 0 0 0 0 0 0 0 0 0 0
46 46 41 60 64 64 27 14 20 5 0 0 0 0 0 0 0 0 0 0 0 0 0 0 0 0 0 0 0 0 0 0 0 0 0 0 0 0 0 0 0 0 0 0 0 0 0
30 66 77 71 74 71 55 32 11 2 0 0 0 0 0 0 0 0 0 0 0 0 0 0 0 0 0 0 0 0 0 0 0 0 0 1 10 0 0 0 0 0 0 0 4 15 1
56 46 41 79 61 35 25 14 7 0 0 0 0 0 0 0 0 0 0 0 0 0 0 0 0 0 0 0 0 0 0 0 0 0 0 2 0 0 0 0 0 0 7 11 12 14 15
50 48 46 78 46 16 9 0 0 0 0 0 0 0 0 0 0 0 0 0 0 5 0 0 0 0 0 0 0 0 0 0 0 0 0 0 0 0 0 0 3 13 27 22 18 0 0
41 34 51 42 32 18 8 10 3 0 0 0 0 0 0 0 0 0 0 0 3 2 0 0 0 0 0 0 0 0 0 0 0 0 0 0 0 0 0 4 7 7 13 18 8 1 2
20 28 27 12 6 15 20 23 10 0 0 0 0 0 0 0 0 0 0 0 1 0 0 0 0 0 0 0 0 0 0 9 5 26 40 53 33 9 0 0 3 10 40 10 21 47 20
40 29 19 14 5 8 15 23 3 0 0 0 0 0 0 0 0 0 0 0 0 0 0 0 0 0 0 0 0 0 0 0 1 17 23 15 43 12 2 0 17 5 8 15 10 20 24
40 29 12 18 27 35 22 7 0 0 0 0 0 0 0 0 0 0 0 0 0 0 0 0 0 0 0 0 0 0 0 0 0 49 39 37 45 9 22 8 1 41 24 7 22 21 21
36 15 25 26 40 25 15 4 0 0 0 0 0 0 0 0 0 0 0 0 0 0 0 0 0 0 0 0 0 0 0 17 59 74 56 4 51 58 80 34 28 20 73 55 76 43 50
23 10 13 27 23 4 2 0 0 0 0 0 1 0 0 0 0 0 0 0 0 0 0 0 0 0 0 0 0 0 0 11 92 67 120 241 79 30 72 104 103 117 106 78 87 103 50
10 1 22 26 15 16 15 1 0 0 0 0 0 0 0 0 0 0 0 0 0 0 0 0 0 0 0 0 3 6 0 0 10 56 68 110 332 68 42 71 106 61 104 61 78 41 88
0 0 0 8 30 25 14 1 0 0 0 0 0 0 0 0 7 0 0 0 0 0 1 2 4 6 15 21 16 5 9 7 0 8 71 7 87 130 91 95 81 47 52 119 89 53 36
1 1 0 19 25 15 8 2 0 0 0 0 1 7 0 0 0 0 0 0 3 7 11 4 12 15 22 23 39 30 53 34 34 95 88 24 8 62 112 30 89 115 91 131 145 105 54
18 6 10 1 26 12 5 0 0 0 0 0 11 7 3 9 6 2 3 1 5 4 3 8 24 14 4 7 6 49 71 104 93 43 35 126 30 2 37 48 52 2 16 107 115 56 13
45 8 17 4 1 13 5 0 0 0 0 14 3 4 0 10 5 2 0 2 0 5 0 15 1 12 13 15 25 30 114 146 97 126 133 110 16 31 0 148 70 0 44 5 9 0 3
12 3 0 3 0 3 7 0 0 0 0 12 1 1 16 1 7 7 11 3 2 0 1 4 17 19 21 37 37 12 18 54 93 119 67 49 64 34 0 188 57 2 8 17 6 11 18
10 18 15 21 7 4 10 0 0 0 0 18 14 7 19 12 4 3 1 0 1 2 6 7 13 20 13 36 5 7 78 132 188 130 79 102 42 28 15 174 97 3 0 12 11 41 49
5 5 15 27 22 26 16 10 7 3 0 26 7 20 18 20 2 3 2 3 3 3 8 13 15 22 5 14 49 62 116 134 194 142 90 33 51 11 68 113 4 5 24 58 40 53 14
16 21 25 17 32 60 40 28 13 19 2 31 26 31 25 45 7 0 2 3 12 19 23 22 22 11 20 40 55 38 19 21 87 62 24 34 65 28 36 13 18 135 62 15 3 69 8
36 35 56 51 61 46 47 37 23 24 15 33 22 28 25 42 15 5 20 20 7 16 33 37 25 31 30 57 59 127 43 97 75 70 50 78 57 57 107 84 144 67 17 6 1 37 16
48 47 57 57 44 41 47 53 35 32 28 39 36 29 23 18 23 5 2 6 14 20 27 51 38 56 35 47 73 38 10 155 118 99 80 62 67 109 110 99 95 4 67 99 11 2 5
52 56 49 55 51 51 55 33 29 35 29 15 27 29 15 20 17 5 2 2 3 5 27 24 30 18 39 49 43 31 51 166 148 110 151 121 75 181 85 155 10 7 4 6 6 8 8

GFSGBSN_con_sbcape_084.txt.gz
CAPE
15 25 28 26 20 11 7 3 1 1 0 0 0 0 3 4 4 3 1 0 0 0 0 0 0 2 0 0 0 0 0 0 0 0 0 0 0 0 0 0 0 0 0 0 0 0 0
13 17 29 23 20 14 9 5 7 9 2 0 0 0 0 1 1 0 0 0 0 0 0 0 0 4 0 0 0 0 0 0 0 0 0 0 0 0 0 0 0 0 0 0 0 0 0
14 16 30 25 27 13 6 23 21 0 1 5 0 0 0 0 0 0 0 0 0 0 0 0 1 2 0 0 0 0 0 0 0 0 0 0 0 0 0 0 0 0 0 0 0 0 0
15 23 27 27 22 18 24 27 5 0 6 1 0 0 0 0 0 0 0 0 0 0 0 0 1 1 0 0 0 0 0 0 0 0 0 0 0 0 0 0 0 0 0 0 0 0 0
18 22 20 22 28 31 43 28 21 17 0 0 0 0 0 0 0 0 0 0 0 0 0 0 0 1 0 0 0 0 0 0 0 0 0 0 0 0 0 0 0 0 0 0 0 0 0
23 21 27 25 17 25 52 47 38 12 2 0 0 0 0 0 0 0 0 0 0 0 0 0 0 0 0 0 0 0 0 0 0 0 0 0 0 0 0 0 0 0 0 0 0 0 0
32 24 23 9 18 60 51 40 37 16 10 0 0 0 0 0 0 0 0 0 0 1 2 0 0 0 0 0 0 0 0 0 0 0 0 0 0 0 0 0 0 0 0 0 0 0 0
27 21 19 51 46 38 42 51 48 26 1 0 0 0 0 0 0 0 0 0 0 0 0 0 0 0 0 0 0 0 0 0 0 0 0 0 0 0 0 0 0 0 0 0 0 0 0
23 29 41 20 13 16 31 60 66 28 1 0 0 0 0 0 0 0 0 0 0 0 0 0 0 0 0 0 0 0 0 0 0 0 0 1 0 3 0 0 0 0 0 0 0 0 0
31 24 18 40 48 45 69 73 27 5 4 0 0 0 0 0 0 0 0 0 0 0 0 0 0 0 0 0 0 0 0 0 0 0 0 0 0 0 0 1 0 0 0 0 30 22 13
41 71 73 58 66 48 53 41 25 7 0 0 0 0 0 0 0 0 0 0 0 0 1 0 0 0 0 0 0 0 0 0 0 0 0 0 0 0 0 0 0 0 0 17 18 31 34
36 40 55 68 47 37 28 17 0 0 0 0 0 0 0 0 0 0 0 0 0 29 0 0 0 0 0 0 0 0 0 0 0 0 0 0 0 0 0 0 0 1 0 0 15 30 35
54 53 29 20 20 23 35 13 13 10 0 0 0 0 0 0 0 0 0 0 38 4 0 0 0 0 0 0 0 0 0 5 0 2 4 14 4 0 0 0 0 0 1 2 7 28 0
32 30 26 26 21 9 4 8 15 8 0 0 0 0 0 0 0 0 0 0 0 0 0 0 0 0 0 0 0 0 0 0 0 0 0 5 8 40 58 7 4 0 0 28 5 17 3
27 26 22 13 7 13 10 31 16 6 0 0 0 0 0 0 0 0 0 2 0 0 0 0 0 0 0 0 0 0 0 0 0 0 11 54 38 42 26 18 6 6 5 2 36 2 2
31 25 27 18 31 25 23 21 6 0 0 0 0 0 0 0 0 0 0 0 0 0 0 0 0 0 0 0 0 0 0 0 1 46 51 42 44 0 44 47 37 12 22 80 34 12 2
12 3 3 26 25 20 14 6 2 0 0 0 0 0 0 0 0 0 1 0 0 0 0 0 0 0 0 0 0 0 0 0 0 1 0 9 37 47 171 100 144 86 106 26 64 46 23
17 18 0 9 16 3 3 0 0 0 0 0 0 18 0 0 1 0 0 0 0 0 0 0 0 0 0 0 0 0 0 0 0 0 0 21 52 65 108 115 144 127 95 151 80 1 59
12 0 14 22 21 17 10 1 0 0 0 0 0 0 0 0 12 0 0 0 0 0 0 0 0 0 0 0 0 0 0 5 0 0 33 57 42 23 4 9 32 30 54 113 189 85 3
0 0 0 7 23 4 1 0 0 0 0 0 8 13 0 0 0 0 0 0 0 0 0 0 0 0 3 5 4 4 4 21 17 37 45 43 13 24 35 29 1 15 71 64 138 155 30
0 0 0 7 8 2 0 0 0 0 0 0 8 25 1 4 0 0 0 0 0 0 0 0 4 0 0 8 12 16 25 26 21 67 60 112 23 17 10 8 1 1 10 0 4 26 67
6 0 0 0 9 0 0 0 0 0 0 0 0 18 0 4 0 0 0 0 0 1 0 6 0 0 9 8 11 21 32 23 7 10 49 131 61 15 6 0 6 35 4 1 0 3 1
34 9 5 0 0 0 0 0 0 0 0 11 0 0 1 0 0 0 2 0 0 0 0 0 0 7 4 9 9 19 0 0 0 0 48 69 54 42 1 1 3 20 1 10 14 29 9
48 14 0 1 0 0 0 0 0 0 0 5 3 1 9 5 1 0 0 0 0 0 0 2 6 13 7 7 0 0 0 0 4 22 82 100 54 54 23 15 1 0 0 5 21 115 17
24 21 16 23 7 11 0 0 0 0 0 1 0 9 13 15 0 0 0 0 0 0 0 0 9 11 2 2 16 5 0 2 26 16 53 167 73 43 44 18 0 2 39 11 35 14 2
21 11 11 28 30 52 23 0 0 0 0 3 15 7 8 45 0 0 0 0 1 7 8 16 11 19 4 37 27 15 13 3 15 27 81 37 95 34 9 8 17 63 10 0 0 107 1
39 26 29 32 55 67 35 20 0 1 3 4 27 19 22 30 5 0 12 15 0 8 13 37 23 14 49 40 24 40 19 6 5 73 28 53 24 15 28 21 34 4 0 0 2 12 4
49 48 59 49 57 59 46 30 11 7 5 5 49 41 33 9 12 2 0 0 6 10 30 27 11 19 16 29 44 18 9 0 121 6 9 4 31 39 6 58 31 1 0 3 15 4 3
52 52 46 55 65 53 48 42 26 10 14 0 57 33 5 8 8 7 0 0 0 0 5 11 15 25 49 43 26 23 17 63 33 72 72 51 17 24 5 19 22 7 11 6 1 3 3

GFSGBSN_con_sbcape_087.txt.gz
CAPE
8 8 9 4 14 8 13 17 16 6 5 5 0 0 0 2 1 1 2 0 0 0 0 0 1 3 0 0 0 0 0 0 0 0 0 0 0 0 0 0 0 0 0 0 0 0 0
2 5 5 7 18 16 9 18 17 7 9 6 0 0 0 0 0 0 0 0 0 0 0 0 1 2 0 0 0 0 0 0 0 0 0 0 0 0 0 0 0 0 0 0 0 0 0
1 2 5 6 15 19 12 13 21 15 18 1 3 1 0 0 0 0 0 0 0 0 0 0 1 3 0 0 0 0 0 0 0 0 0 0 0 0 0 0 0 0 0 0 0 0 0
6 2 5 6 13 9 12 14 20 29 9 2 10 0 0 0 0 0 0 0 0 0 0 0 5 1 0 0 0 0 0 0 0 0 0 0 0 0 0 0 0 0 0 0 0 0 0
9 2 5 7 12 9 15 14 31 30 25 29 1 0 0 0 0 0 0 0 0 0 0 1 3 0 0 0 0 0 0 0 0 0 0 0 0 0 0 0 0 0 0 0 0 0 0
27 10 4 9 9 10 13 14 31 25 45 29 10 0 0 0 0 0 0 0 0 0 0 0 0 2 0 0 0 0 0 0 0 0 0 0 0 0 0 0 0 0 0 0 0 0 0
77 28 5 11 19 16 10 9 24 34 31 37 27 0 0 0 0 0 0 0 0 0 0 0 0 0 0 0 0 0 0 0 0 0 0 0 0 0 0 0 0 0 0 0 0 0 0
128 73 8 18 20 12 12 44 24 14 25 42 14 0 0 0 0 0 0 0 0 0 0 0 0 0 0 0 0 0 0 0 0 0 0 0 0 0 0 0 0 0 0 0 0 0 0
137 1 19 25 15 25 45 28 33 38 53 18 0 0 0 0 0 0 0 0 0 0 0 0 0 0 0 0 0 0 0 0 0 0 0 0 0 0 0 0 0 0 0 0 0 0 0
3 16 37 37 31 17 27 30 29 54 18 0 0 0 0 0 0 0 0 0 0 0 0 0 0 0 0 0 0 0 0 0 0 0 0 0 0 0 0 0 0 0 0 0 0 0 0
21 22 24 31 24 31 41 48 37 15 1 0 0 0 0 0 0 0 0 0 0 0 0 0 0 0 0 0 0 0 0 0 0 0 0 0 0 0 0 0 0 0 0 0 0 0 0
43 34 22 28 47 39 31 23 16 11 1 0 0 0 0 0 0 0 0 0 0 12 1 0 0 0 0 0 0 0 0 0 0 0 0 0 0 0 0 0 0 0 0 0 0 0 0
23 51 66 47 34 22 21 22 15 1 0 0 0 0 0 0 0 0 0 0 33 17 0 0 0 0 0 0 0 0 0 0 0 0 0 0 0 0 0 0 0 0 0 0 0 0 0
42 27 20 24 26 21 17 15 15 4 0 0 0 0 0 0 0 0 0 0 27 7 0 0 0 0 0 0 0 0 0 0 0 0 0 0 0 0 0 0 0 0 0 0 0 0 0
24 13 6 6 13 4 1 22 4 0 0 0 0 0 0 0 0 0 0 6 0 0 0 0 0 0 0 0 0 0 0 0 0 0 0 1 0 0 3 10 0 0 0 0 3 0 0
25 21 18 17 16 16 32 14 0 2 1 0 0 0 0 0 0 0 0 4 0 0 0 0 0 0 0 0 0 0 0 0 0 0 0 0 0 0 8 0 0 0 8 21 8 32 9
20 23 13 26 41 21 7 1 8 2 0 0 0 0 0 0 0 1 4 0 0 0 0 0 0 0 0 0 0 0 0 0 0 0 0 0 0 0 0 18 8 21 48 58 79 40 16
8 8 7 13 4 0 0 0 0 0 0 0 0 1 0 0 0 1 0 0 0 0 0 0 0 0 0 0 0 0 0 0 0 0 0 0 13 0 0 0 0 0 76 60 17 11 21
9 19 29 28 8 6 11 5 0 0 0 0 0 0 0 0 7 0 0 0 0 0 0 0 0 0 0 0 0 0 0 0 0 0 1 0 2 0 0 1 11 0 0 1 2 10 7
6 12 13 18 17 14 10 1 0 0 0 0 0 0 0 0 0 0 0 0 0 0 0 0 0 0 0 0 0 0 0 2 0 0 40 8 2 8 5 0 0 10 1 1 9 12 2
0 0 2 22 18 5 0 0 0 0 0 0 0 0 0 0 0 0 0 0 0 0 0 0 0 0 0 0 0 0 0 0 0 1 0 10 0 0 2 0 0 2 1 0 0 5 6
0 0 0 7 9 4 0 0 0 0 0 0 0 0 0 0 0 0 0 0 0 0 0 0 0 0 0 0 0 0 0 0 0 0 0 0 0 0 0 0 0 0 0 0 8 5 20
1 0 0 2 12 5 0 0 0 0 0 0 0 0 0 0 0 0 0 0 0 0 0 0 0 0 0 0 0 0 0 0 0 0 0 0 0 29 0 2 6 6 0 0 15 28 5
25 2 1 0 0 3 0 0 0 0 0 0 0 0 0 0 0 0 0 0 0 0 0 0 0 0 0 0 0 0 0 0 0 0 0 0 1 14 0 0 1 0 28 30 44 9 8
50 28 7 2 0 1 0 0 0 0 0 0 0 0 0 0 0 0 0 0 0 0 0 0 0 0 0 0 0 0 0 0 0 0 0 0 0 3 17 6 0 50 6 19 3 33 1
49 36 24 23 33 35 4 0 0 0 0 0 0 0 0 0 0 0 0 0 0 0 0 0 3 0 0 0 0 2 0 0 1 0 7 0 0 0 23 2 0 20 3 0 1 27 0
17 43 22 24 43 47 19 0 0 0 0 0 0 0 0 0 0 0 0 0 0 0 0 0 0 0 0 0 2 1 0 1 0 19 5 0 2 0 1 0 24 5 1 0 0 15 0
42 34 29 40 48 61 46 12 0 0 0 0 0 0 0 0 0 0 0 0 0 0 0 0 0 0 0 0 6 0 0 0 2 28 46 15 30 31 20 13 5 3 0 2 28 2 0
55 40 38 43 48 50 59 34 3 0 0 0 1 0 0 0 0 0 0 0 0 0 0 0 0 3 0 0 0 0 2 2 19 5 5 6 6 4 4 6 21 5 9 8 2 4 3

GFSGBSN_con_sbcape_090.txt.gz
CAPE
13 1 1 2 0 1 4 5 0 5 11 7 7 2 0 0 0 0 2 0 0 0 0 0 0 5 0 0 0 0 0 0 0 0 0 0 0 0 0 0 0 0 0 0 0 0 0
28 20 4 0 2 3 8 10 6 0 5 8 8 3 0 0 0 0 0 0 0 0 0 0 2 2 1 0 0 0 0 0 0 0 0 0 0 0 0 0 0 0 0 0 0 0 0
12 26 13 5 0 2 6 8 11 4 8 21 16 8 8 0 0 0 0 0 0 0 0 0 2 0 3 0 0 0 0 0 0 0 0 0 0 0 0 0 0 0 0 0 0 0 0
9 9 22 16 0 0 1 5 6 14 14 19 24 20 17 0 0 0 0 0 0 0 0 0 1 1 0 0 0 0 0 0 0 0 0 0 0 0 0 0 0 0 0 0 0 0 0
10 6 12 26 7 0 1 2 7 10 12 24 26 22 0 0 0 0 0 0 0 0 0 0 13 4 0 0 0 0 0 0 0 0 0 0 0 0 0 0 0 0 0 0 0 0 0
4 12 8 10 27 5 3 5 11 10 17 20 29 1 0 1 0 0 0 0 0 0 0 8 1 7 0 0 0 0 0 0 0 0 0 0 0 0 0 0 0 0 0 0 0 0 0
8 12 17 13 23 2 8 12 13 15 13 19 8 0 4 0 0 0 0 0 0 0 0 0 0 0 0 0 0 0 0 0 0 0 0 0 0 0 0 0 0 0 0 0 0 0 0
8 14 21 71 56 3 13 20 11 17 17 1 1 7 1 0 0 0 0 0 0 0 0 0 0 0 0 0 0 0 0 0 0 0 0 0 0 0 0 0 0 0 0 0 0 0 0
35 113 146 174 48 8 23 23 26 13 5 4 21 10 0 0 0 0 0 0 0 0 0 0 0 0 0 0 0 0 0 0 0 0 0 0 0 0 0 0 0 0 0 0 0 0 0
4 139 236 49 11 26 42 28 12 12 17 17 0 0 0 0 0 0 0 0 0 0 0 0 0 0 0 0 0 0 0 0 0 0 0 0 0 0 0 0 0 0 0 0 0 0 0
16 15 18 42 52 39 20 25 35 43 2 0 0 0 0 0 0 0 0 0 0 0 0 0 0 0 0 0 0 0 0 0 0 0 0 0 0 0 0 0 0 0 0 0 0 0 0
0 1 53 51 40 48 57 42 14 2 0 0 0 0 0 0 0 0 0 0 0 7 0 0 0 0 0 0 0 0 0 0 0 0 0 0 0 0 0 0 0 0 0 0 0 0 0
15 20 20 16 22 29 36 29 18 1 0 0 0 0 0 0 0 0 0 0 20 56 0 0 0 0 0 0 0 0 0 0 0 0 0 0 0 0 0 0 0 0 0 0 0 0 0
30 24 28 30 33 28 13 6 4 0 0 0 0 0 0 0 0 0 0 0 57 0 0 0 0 0 0 0 0 0 0 0 0 0 0 0 0 0 0 0 0 0 0 0 0 0 0
22 17 13 15 12 9 14 9 1 0 0 0 0 0 0 0 0 0 0 14 0 0 0 0 0 0 0 0 0 0 0 0 0 0 0 0 0 0 0 0 0 0 0 0 0 0 0
10 4 2 5 2 3 11 0 0 0 0 0 0 0 0 0 0 0 0 24 0 0 0 0 0 0 0 0 0 0 0 0 0 0 0 0 0 0 0 0 0 0 0 1 1 3 2
19 16 19 22 20 25 23 0 0 0 0 0 0 0 0 0 0 1 1 0 0 0 0 0 0 0 0 0 0 0 0 0 0 0 0 0 0 0 0 0 0 0 0 0 0 5 16
15 15 35 48 31 22 3 0 0 0 0 0 0 0 0 0 2 1 0 0 0 0 0 0 0 0 0 0 0 0 0 0 0 0 0 0 0 0 0 0 0 0 10 85 56 1 2
6 14 2 11 9 11 0 0 0 0 0 0 0 0 0 0 0 0 0 0 0 0 0 0 0 0 0 0 0 0 0 0 0 0 0 0 0 0 0 0 0 0 0 0 11 8 2
11 17 21 18 21 7 0 0 0 0 0 0 0 0 0 0 0 0 0 0 0 0 0 0 0 0 0 0 0 0 0 0 0 0 17 0 0 0 0 0 0 0 0 1 8 12 11
8 15 22 27 15 0 0 0 0 0 0 0 0 0 0 0 0 0 0 0 0 0 0 0 0 0 0 0 0 0 0 0 0 0 0 0 0 0 0 0 0 0 0 0 1 0 15
0 4 24 20 7 0 0 0 0 0 0 0 0 0 0 0 0 0 0 0 0 0 0 0 0 0 0 0 0 0 0 0 0 0 0 0 0 0 0 0 0 0 0 0 0 0 6
0 8 10 33 17 0 0 0 0 0 0 0 0 0 0 0 0 0 0 0 0 0 0 0 0 0 0 0 0 0 0 0 0 0 0 0 0 0 0 0 0 0 5 0 0 38 46
21 5 3 5 8 2 0 0 0 0 0 0 0 0 0 0 0 0 0 0 0 0 0 0 0 0 0 0 0 0 0 0 0 0 0 0 0 0 1 0 0 27 10 29 59 11 15
56 17 11 0 0 1 0 0 0 0 0 0 0 0 0 0 0 0 0 0 0 0 0 0 0 0 0 0 0 0 0 0 0 0 0 0 0 8 1 1 0 2 36 15 4 12 2
63 36 10 10 0 5 0 0 0 0 0 0 0 0 0 0 0 0 0 0 0 0 0 0 0 0 0 0 0 0 0 0 0 0 0 0 0 0 4 5 0 4 2 7 10 10 14
42 39 22 24 14 22 7 0 0 0 0 0 0 0 0 0 0 0 0 0 0 0 0 0 0 0 0 0 0 1 0 0 3 1 1 0 4 2 0 3 2 4 6 5 5 7 0
50 52 42 37 45 41 21 0 0 0 0 0 0 0 0 0 0 0 0 0 0 0 0 0 0 0 0 0 0 0 0 0 3 5 8 6 12 6 11 3 2 2 0 2 25 6 0
62 60 60 57 59 62 23 1 0 0 0 0 0 0 0 0 0 0 0 0 0 0 0 0 0 0 0 0 0 0 0 0 1 19 7 0 3 1 3 2 18 15 22 20 10 7 5

GFSGBSN_con_sbcape_093.txt.gz
CAPE
7 3 13 29 8 0 1 2 1 0 0 0 5 10 6 0 0 0 3 0 0 0 0 0 0 2 0 0 0 0 0 0 0 0 0 0 0 0 0 0 0 0 0 0 0 0 0
2 4 5 8 27 18 3 1 1 0 0 0 5 8 6 0 0 0 0 0 0 0 0 0 0 3 0 0 0 0 0 0 0 0 0 0 0 0 0 0 0 0 0 0 0 0 0
4 1 2 8 7 20 19 0 1 1 2 2 4 7 7 0 0 0 0 0 0 0 0 0 0 3 1 0 0 0 0 0 0 0 0 0 0 0 0 0 0 0 0 0 0 0 0
0 0 2 6 8 7 8 2 0 1 3 7 9 9 18 28 1 0 0 0 0 0 0 0 0 8 0 0 0 0 0 0 0 0 0 0 0 0 0 0 0 0 0 0 0 0 0
4 8 7 8 4 10 8 11 0 0 3 7 11 10 17 7 0 2 0 0 0 0 0 0 11 6 0 0 0 0 0 0 0 0 0 0 0 0 0 0 0 0 0 0 0 0 0
7 6 8 4 3 6 13 11 3 1 3 8 10 7 14 2 1 0 0 0 0 0 0 2 10 1 0 0 0 0 0 0 0 0 0 0 0 0 0 0 0 0 0 0 0 0 0
7 8 10 10 5 12 35 34 1 0 4 11 9 12 1 0 0 0 0 0 0 0 0 0 0 0 0 0 0 0 0 0 0 0 0 0 0 0 0 0 0 0 0 0 0 0 0
1 0 8 13 17 23 31 47 1 2 8 16 15 2 0 0 0 5 1 0 0 0 0 0 0 0 0 0 0 0 0 0 0 0 0 0 0 0 0 0 0 0 0 0 0 0 0
1 0 2 9 35 60 79 103 1 5 12 16 6 0 3 1 0 0 0 0 0 0 0 0 0 0 0 0 0 0 0 0 0 0 0 0 0 0 0 0 0 0 0 0 0 0 0
1 0 1 43 95 131 113 3 9 15 15 10 17 16 0 0 0 0 0 0 0 0 0 0 0 0 0 0 0 0 0 0 0 0 0 0 0 0 0 0 0 0 0 0 0 0 0
0 2 6 7 3 0 6 22 21 13 15 29 5 0 0 0 0 0 0 0 0 10 0 0 0 0 0 0 0 0 0 0 0 0 0 0 0 0 0 0 0 0 0 0 0 0 0
0 0 0 5 13 28 35 33 31 20 8 5 3 0 0 1 0 0 0 0 0 5 0 0 0 0 0 0 0 0 0 0 0 0 0 0 0 0 0 0 0 0 0 0 0 0 0
5 4 5 2 1 1 3 5 7 9 10 14 1 3 2 0 0 0 0 0 10 4 0 0 0 0 0 0 0 0 0 0 0 0 0 0 0 0 0 0 0 0 0 0 0 0 0
31 23 16 12 12 11 13 8 2 2 1 0 0 0 0 0 0 0 0 33 35 0 0 0 0 1 7 0 0 0 0 0 0 0 0 0 0 0 0 0 0 0 0 0 0 0 0
33 30 28 25 19 12 7 6 1 0 0 0 0 0 0 0 0 0 16 44 8 0 0 0 0 0 0 0 0 0 0 0 0 0 0 0 0 0 0 0 0 0 0 0 0 0 0
23 19 11 6 5 14 5 0 0 0 0 0 0 0 0 0 0 2 45 45 2 0 0 0 0 0 0 0 0 0 0 0 0 0 0 0 0 0 0 0 0 0 0 0 0 8 0
24 23 21 13 12 18 3 0 0 1 0 0 0 6 0 0 1 37 42 18 0 0 0 0 0 0 0 0 0 0 0 0 0 0 0 0 0 0 0 0 0 0 0 0 4 0 1
27 26 28 28 24 34 18 12 1 0 0 0 0 7 0 0 18 16 32 0 0 0 0 0 0 0 0 0 0 0 0 0 0 0 0 0 0 0 0 0 0 0 0 1 9 0 0
26 40 49 45 34 10 4 5 0 0 0 0 0 0 0 0 42 9 0 0 0 0 0 0 0 0 0 0 0 0 0 0 0 0 0 0 0 0 0 0 0 0 0 0 0 2 0
18 28 16 7 5 4 6 1 0 0 0 0 0 0 0 0 0 0 0 0 0 0 0 0 0 0 0 0 0 0 0 0 0 0 0 0 0 0 0 0 0 0 0 0 0 0 0
21 22 26 29 32 9 4 0 0 0 0 0 0 0 0 0 0 0 0 0 0 0 0 0 0 0 0 0 0 0 0 0 0 0 0 0 0 0 0 0 0 0 0 0 0 0 0
32 40 60 36 24 0 0 0 0 0 0 0 0 0 0 0 0 0 0 0 0 0 0 0 0 0 0 0 0 0 0 0 0 0 0 0 0 0 0 0 0 0 0 0 0 0 0
2 10 43 18 7 0 0 0 0 0 0 0 0 0 0 0 0 0 0 0 0 0 0 0 0 0 0 0 0 0 0 0 0 0 0 0 0 0 0 0 0 0 2 6 0 0 11
2 21 38 33 18 2 0 0 0 0 0 0 0 0 0 0 0 0 0 0 0 0 0 0 0 0 0 0 0 0 0 0 0 0 0 0 0 0 0 0 0 0 1 2 32 20 18
55 15 25 5 4 0 0 0 0 0 0 0 0 0 0 0 0 0 0 0 0 0 0 0 0 0 0 0 0 0 0 0 0 0 0 0 0 0 0 0 0 0 5 7 10 11 14
73 16 15 1 9 0 0 0 0 0 0 0 0 0 0 0 0 0 0 0 0 0 0 0 0 0 0 0 0 0 0 0 0 0 0 0 0 0 12 0 0 1 3 5 19 4 5
79 67 27 4 10 0 0 0 0 0 0 0 0 0 0 0 0 0 0 0 0 0 0 0 0 0 0 0 0 0 0 0 1 0 7 2 9 1 0 0 0 5 4 7 6 2 4
38 58 48 33 27 0 0 0 0 0 0 0 0 0 0 0 0 0 0 0 0 0 0 0 0 0 0 0 0 0 0 0 1 0 8 5 3 4 6 6 0 4 0 0 11 5 4
9 54 51 55 61 23 0 0 0 0 0 0 0 0 0 0 0 0 0 0 0 0 0 0 0 0 0 0 0 0 0 0 0 0 1 0 1 1 1 2 14 9 10 7 6 6 5

GFSGBSN_con_sbcape_096.txt.gz
CAPE
5 3 2 1 2 0 20 27 5 0 0 0 0 0 6 4 5 6 3 1 0 0 0 0 0 1 0 0 0 0 0 0 0 0 0 0 0 0 0 0 0 0 0 0 0 0 0
20 16 5 1 0 0 1 5 19 6 0 0 0 0 2 12 7 7 8 0 0 0 0 0 0 1 0 0 0 0 0 0 0 0 0 0 0 0 0 0 0 0 0 0 0 0 0
19 21 6 1 3 2 4 6 7 6 3 0 0 1 4 6 1 6 1 0 0 0 0 0 2 4 1 0 0 0 0 0 0 0 0 0 0 0 0 0 0 0 0 0 0 0 0
32 31 11 8 7 9 7 7 11 11 12 5 1 1 3 3 0 3 1 0 0 0 0 0 4 7 0 0 0 0 0 0 0 0 0 0 0 0 0 0 0 0 0 0 0 0 0
32 38 21 13 8 3 1 1 4 11 14 3 0 1 3 3 1 0 0 0 0 0 0 0 15 14 0 0 0 0 0 0 0 0 0 0 0 0 0 0 0 0 0 0 0 0 0
25 32 23 9 1 2 4 3 6 8 16 13 0 2 5 4 1 0 0 0 0 1 0 0 23 1 0 0 0 0 0 0 0 0 0 0 0 0 0 0 0 0 0 0 0 0 0
29 16 22 7 1 2 14 11 3 16 15 16 0 5 7 3 3 0 0 0 1 4 17 0 0 0 0 0 0 0 0 0 0 0 0 0 0 0 0 0 0 0 0 0 0 0 0
30 14 13 8 6 7 16 17 11 20 13 7 2 6 9 8 1 0 0 0 0 0 0 0 0 0 0 0 0 0 0 0 0 0 0 0 0 0 0 0 0 0 0 0 0 0 0
22 22 4 4 7 6 17 22 22 23 15 2 4 12 13 4 8 7 0 0 0 0 0 0 0 0 0 0 0 0 0 0 0 0 0 0 0 0 0 0 0 0 0 0 0 0 0
22 16 5 0 3 2 3 21 19 2 0 4 10 14 11 10 0 0 0 0 0 0 0 0 0 0 0 0 0 0 0 0 0 0 0 0 0 0 0 0 0 0 0 0 0 0 0
20 25 8 1 1 0 0 0 0 3 8 12 20 10 6 0 0 0 0 0 0 1 0 0 0 0 0 0 0 0 0 0 0 0 0 0 0 0 0 0 0 0 0 0 0 0 0
14 12 5 4 2 7 11 15 18 17 18 15 12 15 7 5 0 0 0 8 34 2 0 0 0 0 0 0 0 0 0 0 0 0 0 0 0 0 0 0 0 0 0 0 0 0 0
15 7 6 3 0 0 0 0 0 1 2 5 6 3 0 7 0 0 0 28 11 1 0 0 0 0 0 0 0 0 0 0 0 0 0 0 0 0 0 0 0 0 0 0 0 0 0
38 31 13 9 6 6 7 7 7 6 5 5 2 3 6 0 0 0 16 34 0 0 0 0 0 0 0 0 0 0 0 0 0 0 0 0 0 0 0 0 0 0 0 0 0 0 0
37 35 30 19 15 12 8 6 4 2 1 3 3 0 0 0 0 0 9 12 0 0 0 0 0 0 0 0 0 0 0 0 0 0 0 0 0 0 0 0 0 0 0 0 0 0 0
40 33 31 22 11 12 4 2 3 2 0 0 0 0 0 0 0 19 7 0 0 0 0 0 1 0 0 0 0 0 0 0 0 0 0 0 0 0 0 0 0 0 0 0 0 0 0
35 30 33 28 32 22 7 2 0 0 0 0 0 6 3 0 11 10 4 6 0 0 0 0 0 0 0 0 0 0 0 0 0 0 0 0 0 0 0 0 0 0 0 0 0 0 2
28 36 38 31 28 33 4 1 1 2 14 0 0 0 3 0 40 45 32 43 0 0 0 0 0 0 0 0 0 0 0 0 0 0 0 0 0 0 0 0 0 0 1 0 0 0 0
27 36 35 36 32 45 25 8 4 0 0 0 0 0 0 1 34 25 10 0 0 0 0 0 0 0 0 0 0 0 0 0 0 0 0 0 0 0 0 0 0 0 0 0 0 0 0
32 30 52 59 47 18 17 9 1 0 0 0 0 0 0 0 0 0 0 0 0 0 0 0 0 0 0 0 0 0 0 0 0 0 0 0 0 0 0 0 0 0 0 0 0 0 0
18 28 24 19 21 10 15 4 0 0 0 0 0 0 0 0 0 0 0 0 0 0 0 0 0 0 0 0 0 0 0 0 0 0 0 0 0 0 0 0 0 0 0 0 0 0 0
4 12 31 28 30 17 0 0 0 0 0 0 0 0 0 0 0 0 0 0 0 0 0 0 0 0 0 0 0 0 0 0 0 0 0 0 0 0 0 0 0 0 0 0 0 0 0
5 26 36 46 19 0 0 0 0 0 0 0 0 0 0 0 0 0 0 0 0 0 0 0 0 0 0 0 0 0 0 0 0 0 0 0 0 0 0 0 0 0 0 0 0 0 1
15 23 49 26 6 0 0 0 0 0 0 0 0 0 0 0 0 0 0 0 0 0 0 0 0 0 0 0 0 0 0 0 0 0 0 0 0 0 0 0 0 0 0 1 1 2 1
28 46 45 29 16 2 0 0 0 0 0 0 0 0 0 0 0 0 0 0 0 0 0 0 0 0 0 0 0 0 0 0 0 0 0 0 0 0 0 0 0 0 2 2 7 0 3
48 46 43 10 14 0 0 0 0 0 0 0 0 0 0 0 0 0 0 0 0 0 0 0 0 0 0 0 0 0 0 0 0 0 0 0 0 0 2 0 0 0 0 4 13 3 4
65 61 19 8 9 0 0 0 0 0 0 0 0 0 0 0 0 0 0 0 0 0 0 0 0 0 0 0 0 0 0 0 0 0 2 0 5 0 0 0 0 2 2 1 6 1 4
69 75 43 26 6 0 0 0 0 0 0 0 0 0 0 0 0 0 0 0 0 0 0 0 0 0 0 0 0 0 0 0 0 0 1 1 1 2 2 0 0 1 0 0 6 4 7
70 64 54 62 11 0 0 0 0 0 0 0 0 0 0 0 0 0 0 0 0 0 0 0 0 0 0 0 0 0 0 0 0 0 0 0 0 0 0 0 6 5 7 6 4 4 4

GFSGBSN_con_sbcape_099.txt.gz
CAPE
4 3 10 7 6 1 1 2 0 0 15 5 1 0 2 4 8 9 2 2 0 0 0 0 0 0 0 0 0 0 0 0 0 0 0 0 0 0 0 0 0 0 0 0 0 0 0
6 5 6 13 12 2 6 8 6 4 2 14 19 0 1 2 4 8 3 0 0 0 0 0 0 1 0 0 0 0 0 0 0 0 0 0 0 0 0 0 0 0 0 0 0 0 0
7 15 18 20 14 3 5 6 6 4 7 11 16 8 1 3 3 4 1 0 0 0 0 0 0 2 5 0 0 0 0 0 0 0 0 0 0 0 0 0 0 0 0 0 0 0 0
13 19 22 22 14 0 1 3 4 4 7 8 14 19 2 3 2 3 0 0 0 0 0 0 0 2 1 0 0 0 0 0 0 0 0 0 0 0 0 0 0 0 0 0 0 0 0
13 15 36 24 18 0 0 4 6 2 6 9 14 28 6 0 1 3 1 0 0 0 0 0 0 1 0 0 0 0 0 0 0 0 0 0 0 0 0 0 0 0 0 0 0 0 0
8 15 41 29 16 1 4 8 7 3 1 1 11 25 6 0 1 2 0 0 0 0 0 3 4 1 0 0 0 0 0 0 0 0 0 0 0 0 0 0 0 0 0 0 0 0 0
11 10 29 21 9 7 14 11 5 2 0 0 15 19 0 0 6 1 0 0 0 3 10 0 0 0 0 0 0 0 0 0 0 0 0 0 0 0 0 0 0 0 0 0 0 0 0
12 30 24 10 9 16 11 1 2 9 3 1 26 6 0 6 6 1 0 0 0 0 0 0 0 0 0 0 0 0 0 0 0 0 0 0 0 0 0 0 0 0 0 0 0 0 0
41 33 25 10 9 10 5 5 11 11 7 18 15 0 3 10 9 0 0 0 0 0 0 0 0 0 0 0 0 0 0 0 0 0 0 0 0 0 0 0 0 0 0 0 0 0 0
41 28 34 19 13 1 1 0 0 10 12 18 6 1 6 20 0 1 0 0 0 0 0 0 0 0 0 0 0 0 0 0 0 0 0 0 0 0 0 0 0 0 0 0 0 0 0
36 29 43 15 12 1 2 0 3 0 1 0 3 13 17 0 0 0 0 0 0 0 0 0 0 0 0 0 0 0 0 0 0 0 0 0 0 0 0 0 0 0 0 0 0 0 0
44 23 21 32 5 2 2 2 4 11 13 13 10 7 0 0 0 4 0 1 10 0 0 0 0 0 0 0 0 0 0 0 0 0 0 0 0 0 0 0 0 0 0 0 0 0 0
58 29 16 15 10 5 1 0 2 4 4 5 1 0 0 0 4 0 0 7 0 0 0 0 0 0 0 0 0 0 0 0 0 0 0 0 0 0 0 0 0 0 0 0 0 0 0
65 46 32 9 8 8 11 7 6 6 5 6 5 2 2 0 0 0 1 12 0 0 0 0 0 0 0 0 0 0 0 0 0 0 0 0 0 0 0 0 0 0 0 0 0 0 0
68 50 50 36 14 11 11 10 10 9 7 3 0 0 1 0 0 3 9 2 0 0 0 0 24 0 0 0 0 0 0 0 0 0 6 6 3 0 0 0 0 0 0 0 0 0 0
95 56 51 34 26 15 13 14 9 6 4 0 0 0 0 0 0 3 13 1 0 0 0 0 1 6 0 0 0 0 0 0 0 0 0 0 0 0 0 0 0 0 0 16 1 0 0
114 71 45 36 33 21 12 14 12 5 1 0 0 0 0 0 6 16 4 0 0 0 0 0 0 0 0 0 0 0 0 0 0 0 0 0 0 0 0 0 0 0 0 0 3 1 8
164 83 47 31 56 36 20 8 2 7 1 0 0 2 2 0 5 14 1 0 0 0 0 0 0 0 0 0 0 0 0 0 0 0 0 0 0 0 0 0 0 0 0 0 0 0 0
178 88 49 27 45 51 19 6 2 11 0 0 1 31 2 0 6 1 0 0 0 0 0 0 6 0 0 0 0 0 0 0 0 0 0 0 0 0 0 0 0 0 0 0 0 0 0
267 91 67 19 36 46 37 21 7 18 1 0 0 1 1 8 3 4 0 0 0 0 0 0 0 0 0 0 0 0 0 0 0 0 0 0 0 0 0 0 0 0 0 0 0 0 0
200 88 67 65 56 45 16 27 15 8 1 0 0 0 0 0 0 0 0 4 0 0 0 0 0 0 0 0 0 0 0 0 0 0 0 0 0 0 0 0 0 0 0 0 0 0 0
66 51 68 63 16 16 6 26 9 1 2 0 0 0 0 0 0 0 0 3 0 0 0 0 0 0 0 0 0 0 0 0 0 0 0 0 0 0 0 0 0 0 0 0 0 0 0
56 61 69 62 34 31 12 2 0 0 0 0 0 0 0 0 0 0 0 0 0 0 0 0 0 0 0 0 0 0 0 0 0 0 0 0 0 0 0 0 0 0 0 0 0 1 7
29 58 70 49 39 25 20 4 0 0 1 0 0 0 0 0 0 0 0 0 0 0 0 0 0 0 0 0 0 0 0 0 0 0 0 0 0 0 0 0 0 4 0 2 2 4 1
57 59 54 35 24 11 3 0 0 0 11 0 0 0 0 0 0 0 0 0 0 0 0 0 0 0 0 0 0 0 0 0 0 0 0 0 0 0 0 0 0 6 2 3 6 1 4
59 61 48 37 13 1 0 0 0 0 0 0 0 0 0 0 0 0 0 0 0 0 0 0 0 0 0 0 0 0 0 0 0 0 0 0 0 0 4 0 0 1 0 1 8 7 5
60 78 67 38 8 0 0 0 6 1 0 0 0 0 0 0 0 0 0 0 0 0 0 0 0 0 0 0 0 0 0 0 0 0 5 2 3 1 1 1 0 3 0 0 6 5 6
75 80 59 40 3 2 0 0 2 0 0 0 0 0 0 0 0 0 0 0 0 0 0 0 0 0 0 0 0 0 0 0 0 0 9 1 2 2 4 5 0 2 0 0 4 11 5
78 78 71 39 16 3 0 2 0 0 0 0 0 0 0 0 0 0 0 0 0 0 0 0 0 0 0 0 0 0 0 0 0 3 0 0 2 2 2 2 8 7 6 7 5 3 5

GFSGBSN_con_sbcape_102.txt.gz
CAPE
8 4 6 8 10 9 2 3 2 1 0 0 4 12 10 6 4 1 0 0 0 0 0 0 0 0 0 0 0 0 0 0 0 0 0 0 0 0 0 0 0 0 0 0 0 0 0
7 7 10 8 16 6 7 7 3 1 3 1 1 5 16 20 9 2 0 0 0 0 0 0 0 0 0 0 0 0 0 0 0 0 0 0 0 0 0 0 0 0 0 0 0 0 0
7 16 12 15 14 18 16 10 0 1 4 8 6 3 5 17 19 0 0 0 0 0 0 0 0 0 0 0 0 0 0 0 0 0 0 0 0 0 0 0 0 0 0 0 0 0 0
7 6 8 16 13 17 11 7 0 0 7 12 11 9 3 19 20 2 2 0 0 0 0 0 0 0 1 0 0 0 0 0 0 0 0 0 0 0 0 0 0 0 0 0 0 0 0
7 4 11 18 15 23 13 0 0 5 6 3 9 7 4 19 13 0 1 0 0 0 0 0 0 1 0 0 0 0 0 0 0 0 0 0 0 0 0 0 0 0 0 0 0 0 0
9 17 19 16 16 20 1 1 4 6 3 3 6 6 1 14 3 1 3 0 0 0 0 1 0 6 0 0 0 0 0 0 0 0 0 0 0 0 0 0 0 0 0 0 0 0 0
17 6 9 11 22 10 4 9 7 4 0 2 0 1 0 23 0 5 1 0 0 2 7 0 0 0 0 0 0 0 0 0 0 0 0 0 0 0 0 0 0 0 0 0 0 0 0
16 7 19 15 5 8 3 12 1 2 0 0 4 1 3 1 3 1 0 0 0 0 0 0 0 0 0 0 0 0 0 0 0 0 0 0 0 0 0 0 0 0 0 0 0 0 0
42 45 14 10 7 3 6 11 0 3 0 2 2 1 6 4 7 1 0 0 0 0 0 0 0 0 0 0 0 1 0 0 0 0 0 1 0 0 0 0 0 0 0 0 0 0 0
44 37 31 27 17 15 12 0 0 0 0 0 1 6 1 8 0 0 0 0 0 0 3 0 0 0 0 1 3 0 0 0 0 0 0 0 0 0 5 2 0 0 0 0 0 0 0
59 46 37 46 32 13 6 1 0 0 0 0 0 2 5 0 0 0 0 0 0 0 32 0 0 0 0 0 0 0 0 0 0 0 0 0 0 0 0 1 2 0 0 0 0 1 1
72 47 42 37 25 2 4 2 2 2 1 2 5 6 0 0 1 2 0 0 0 9 4 0 0 0 0 0 0 0 0 0 1 6 12 8 0 0 0 2 3 8 20 18 8 8 6
72 87 53 44 26 8 5 3 5 10 14 11 9 1 0 0 5 3 0 6 1 8 0 0 0 0 0 0 0 0 12 1 3 29 25 9 8 2 5 8 8 21 25 36 28 17 0
81 106 81 56 37 17 10 8 4 4 4 3 3 0 5 0 0 0 6 10 7 1 0 0 0 0 0 0 0 0 36 21 10 4 2 2 2 4 11 7 5 2 15 17 9 13 10
86 98 114 77 54 26 15 9 9 6 3 0 0 1 4 12 17 24 11 13 4 0 0 0 0 5 9 0 0 0 18 36 0 0 5 18 6 0 0 0 8 22 59 33 18 4 26
104 109 157 121 45 26 15 13 15 7 0 0 0 5 3 0 3 23 38 3 0 0 0 0 0 3 24 1 3 10 8 0 0 0 0 0 1 1 0 0 0 83 48 72 96 40 33
158 109 180 182 54 20 26 21 18 5 0 0 0 5 5 0 8 16 27 8 1 0 0 1 10 1 0 0 3 1 1 0 0 0 0 0 0 0 0 1 4 1 72 84 70 53 46
176 36 110 173 85 19 35 44 23 15 0 0 11 13 15 21 32 59 30 7 0 0 0 4 7 0 0 0 5 1 0 0 0 0 0 0 0 0 0 0 0 0 0 0 20 23 17
176 19 55 141 146 73 40 44 40 2 1 7 24 18 3 18 45 41 18 4 1 1 6 18 6 2 0 2 0 6 0 0 0 0 0 0 0 0 0 0 0 0 0 0 0 0 0
75 42 23 123 199 75 36 21 31 31 5 20 27 26 49 34 24 29 19 11 9 0 9 15 18 4 2 0 0 0 0 0 0 0 0 0 0 0 0 0 0 0 0 0 0 0 0
3 14 55 79 85 59 28 6 10 46 13 16 26 33 3 33 41 32 16 14 21 12 16 1 10 9 22 0 0 0 0 0 0 0 0 0 0 0 0 0 0 0 0 0 0 0 0
6 35 18 99 61 73 63 35 25 32 24 25 88 18 0 1 15 32 19 11 22 10 3 1 7 0 3 2 0 0 0 0 0 0 0 0 0 0 0 0 0 0 0 0 0 0 0
0 70 12 65 70 52 36 34 51 37 12 28 23 1 7 7 14 33 28 11 19 2 0 0 0 0 0 0 0 0 0 0 0 0 0 0 0 0 0 0 0 0 0 0 0 0 14
13 75 30 55 28 18 28 30 50 30 10 45 5 8 64 47 2 15 12 20 3 1 1 0 0 0 0 0 0 0 0 0 0 0 0 0 0 0 0 0 0 9 10 7 3 5 8
5 31 56 52 71 59 45 9 18 12 9 34 3 8 23 44 0 2 14 6 0 0 0 0 0 0 0 0 0 0 1 1 6 1 0 0 0 0 5 4 0 6 2 4 6 8 7
17 45 57 50 30 61 58 11 19 17 28 29 7 0 0 29 5 0 0 0 0 0 0 0 0 0 0 0 0 0 0 0 11 11 0 0 0 8 8 13 8 17 2 4 8 13 3
43 73 47 58 68 56 41 16 27 49 58 13 0 0 0 13 0 0 0 0 0 0 0 0 0 0 0 0 1 4 4 2 12 18 17 8 5 12 20 20 14 2 2 0 18 15 4
76 68 60 62 57 46 34 27 64 64 6 0 0 0 0 0 0 0 0 0 0 0 0 0 0 0 0 0 0 0 14 13 12 6 29 20 16 10 13 14 20 2 3 9 12 13 9
62 57 63 66 59 62 23 36 66 32 4 0 0 0 0 0 0 0 0 0 0 0 0 0 0 0 0 0 0 0 15 12 12 18 9 22 9 25 8 16 8 6 7 8 13 13 13

GFSGBSN_con_sbcape_105.txt.gz
CAPE
7 8 7 8 8 10 3 7 7 0 0 0 0 0 0 3 17 19 0 0 0 0 0 0 0 0 0 0 0 0 0 0 0 0 0 0 0 0 0 0 0 0 0 0 0 0 0
7 8 11 15 6 6 3 12 13 0 0 0 0 1 1 0 2 21 11 0 0 0 0 0 0 0 0 0 0 0 0 0 0 0 0 0 0 0 0 0 0 0 0 0 0 0 0
9 6 7 12 11 9 12 16 15 6 0 0 0 4 7 0 8 9 17 0 0 0 0 0 0 0 0 0 0 0 0 0 0 0 0 0 0 0 0 0 0 0 0 0 0 0 0
8 9 6 12 11 7 8 11 17 7 0 1 7 5 7 6 2 6 12 0 0 0 0 0 0 0 1 0 0 0 0 0 0 0 0 0 0 0 0 0 0 0 0 0 0 0 0
13 13 7 18 12 8 0 12 3 0 0 6 9 5 6 6 3 5 1 1 0 0 0 0 0 2 0 0 0 0 0 0 0 0 0 0 0 0 0 0 0 0 0 0 0 0 0
4 7 8 3 8 8 19 8 0 0 1 3 7 5 4 4 1 5 1 2 2 0 0 0 0 3 0 0 1 0 0 0 0 0 0 0 0 0 0 0 0 0 0 0 0 0 0
13 12 4 2 14 12 1 3 0 0 0 1 1 0 1 0 0 1 7 1 1 1 2 0 0 0 0 0 0 0 0 0 0 0 0 0 0 0 0 0 0 0 1 6 1 2 0
2 6 7 11 6 0 0 4 1 0 0 0 0 0 0 0 0 0 1 1 12 3 5 0 0 0 0 1 0 0 0 0 0 0 2 3 2 0 0 0 0 7 10 5 0 0 0
23 19 13 0 0 2 1 6 5 2 0 0 0 0 3 1 1 2 0 13 0 0 0 0 0 0 0 0 0 0 10 0 0 3 1 36 2 1 0 1 3 5 9 10 0 0 6
30 44 37 7 0 8 8 0 5 3 0 0 0 0 1 0 3 0 2 0 0 0 5 0 0 0 0 0 0 0 0 2 19 18 23 14 1 17 0 0 0 4 0 5 9 16 1
54 44 54 27 11 17 4 1 11 0 0 0 0 0 0 0 0 3 0 0 0 0 69 0 0 0 0 0 0 0 0 1 12 11 0 1 0 1 1 0 1 11 0 2 34 4 6
73 77 62 49 24 16 7 3 1 0 0 0 0 1 0 0 2 1 0 0 0 14 7 25 0 0 0 0 0 0 0 17 3 0 2 19 15 7 2 1 1 1 12 4 33 38 27
73 83 75 78 32 11 9 1 2 1 2 1 3 3 0 1 3 6 0 0 1 29 1 12 0 0 0 0 0 0 10 17 12 27 16 22 22 2 3 26 8 7 30 17 10 20 57
97 88 79 76 93 31 6 7 4 6 8 14 6 0 3 0 4 0 0 2 7 4 10 0 0 0 4 3 2 1 4 23 16 25 34 77 57 23 0 0 18 10 6 11 15 3 0
74 90 100 90 98 74 42 20 8 8 2 0 0 4 7 12 0 0 0 12 24 16 1 0 0 2 5 3 10 16 19 41 15 32 33 19 18 8 6 6 6 21 36 1 2 8 38
95 115 140 110 104 95 83 35 8 5 2 0 0 2 7 10 15 12 14 10 19 0 0 0 0 0 15 16 27 13 13 29 57 15 28 0 10 9 5 0 10 14 33 37 34 54 34
136 113 121 144 130 106 68 48 18 4 0 0 13 13 10 1 19 14 26 15 8 1 0 0 1 18 10 5 10 18 14 0 8 0 0 0 3 0 0 9 4 21 61 36 21 34 49
143 147 145 82 2 157 109 33 13 1 0 0 13 51 7 10 17 32 15 7 0 0 0 0 5 6 9 19 2 35 41 1 0 0 7 9 17 41 2 0 0 0 1 1 20 20 16
65 111 132 149 55 58 129 93 29 26 4 24 42 20 10 18 39 30 8 12 2 3 6 15 16 21 14 26 6 40 5 0 0 0 12 0 1 12 8 0 0 0 0 0 0 1 0
61 85 124 86 55 89 104 122 47 29 4 12 33 55 14 14 17 38 17 16 13 11 15 29 30 22 22 28 17 35 15 0 0 0 0 0 0 9 13 5 3 0 0 0 0 8 1
83 82 100 59 43 15 124 114 74 38 10 10 51 55 10 43 40 27 31 19 22 24 15 22 35 30 43 27 17 13 11 0 0 0 0 0 0 0 0 0 0 0 0 0 0 0 0
114 83 31 65 86 2 166 91 68 77 20 17 110 35 24 23 25 25 33 48 26 27 29 30 27 25 51 37 6 11 1 1 0 0 0 0 0 0 0 0 0 0 0 0 0 0 0
80 81 25 28 28 6 61 57 47 61 13 22 56 42 37 21 39 55 73 30 35 39 20 18 21 21 48 7 0 2 2 0 0 0 0 0 0 0 0 0 0 0 0 0 0 0 1
80 29 10 9 30 2 69 36 23 63 22 56 63 58 57 57 30 28 26 35 31 37 10 3 17 21 0 0 0 0 0 0 0 0 0 0 0 0 0 0 0 2 5 1 0 0 4
18 4 5 71 82 73 59 48 45 66 28 33 30 42 55 111 14 33 43 26 7 2 28 14 1 2 0 0 2 0 0 0 0 0 0 0 0 0 3 1 13 2 5 2 3 12 2
4 11 83 35 19 53 35 43 59 64 24 26 25 59 54 101 37 48 39 38 45 18 11 1 0 0 0 3 16 2 1 0 4 6 1 0 2 14 16 25 18 14 5 5 7 6 6
2 47 52 18 15 34 28 29 46 49 27 48 22 75 41 110 0 18 30 38 18 28 23 12 0 0 0 11 35 25 10 6 11 14 16 13 13 24 27 30 6 3 2 3 11 16 6
3 48 43 25 24 26 18 20 64 69 85 61 32 29 56 32 1 0 0 0 11 33 42 21 1 0 2 14 26 17 30 13 25 10 23 15 22 16 31 33 33 3 2 9 8 10 1
39 17 23 39 32 41 17 68 99 106 68 29 46 0 1 19 4 0 0 0 0 0 17 0 11 0 20 34 18 31 31 24 21 28 3 24 11 40 11 17 3 7 3 3 2 8 12

GFSGBSN_con_sbcape_108.txt.gz
CAPE
7 8 8 10 13 8 5 6 8 12 6 0 0 0 0 0 1 0 3 5 0 0 0 0 0 0 0 0 0 0 0 0 0 0 0 0 0 0 0 0 0 0 0 0 0 0 0
8 9 8 12 9 3 0 7 11 11 12 0 0 0 0 0 8 10 0 5 0 0 0 0 0 0 0 0 0 0 0 0 0 0 0 0 0 0 0 0 0 0 0 0 0 0 0
13 14 12 16 15 12 5 12 14 12 15 5 0 0 0 5 10 11 6 8 0 0 0 0 0 0 0 0 0 0 0 0 0 0 0 0 0 0 0 0 0 0 0 0 0 0 0
15 14 10 17 15 13 10 8 2 9 12 4 0 0 0 2 8 9 9 8 0 0 0 0 0 0 0 0 0 0 0 0 0 0 0 0 0 0 0 0 0 0 0 0 0 0 0
15 11 11 15 17 9 3 6 7 10 0 0 0 3 2 3 5 5 6 8 1 2 0 0 0 0 0 0 0 0 0 0 0 0 0 0 0 0 0 0 0 0 0 0 0 0 0
5 13 9 21 16 10 13 14 9 0 0 0 0 3 2 4 1 4 4 2 4 0 0 0 0 1 0 0 0 0 0 0 0 0 0 0 0 0 0 0 0 0 3 6 7 0 17
0 1 6 9 15 5 8 7 0 0 0 0 1 3 1 0 0 0 3 0 0 1 0 0 0 0 0 0 0 0 0 0 0 0 0 0 1 0 0 0 2 22 24 31 18 2 13
25 0 2 5 2 3 0 0 0 0 0 0 0 0 0 0 1 0 0 1 4 2 1 0 0 0 0 0 0 0 0 0 0 0 0 0 0 0 0 0 8 34 40 7 36 0 15
34 9 0 3 5 7 2 0 0 0 0 0 0 0 0 0 1 1 0 8 0 7 10 0 0 0 0 0 0 0 0 0 0 0 0 1 0 0 3 0 3 0 37 3 40 0 0
67 53 19 0 2 12 2 5 0 1 1 0 0 0 0 0 2 2 5 0 0 14 13 0 0 0 0 0 0 0 0 0 1 0 1 1 0 6 0 0 10 33 20 42 10 3 6
61 70 52 49 24 26 4 17 0 2 2 0 0 0 0 0 0 5 0 0 0 0 11 0 0 0 0 0 0 0 0 0 0 0 19 0 2 6 0 0 18 3 0 4 13 23 12
61 60 56 71 61 42 24 8 1 3 4 0 1 0 1 0 0 0 0 0 0 34 2 0 0 0 0 0 0 0 0 0 0 3 25 0 1 1 3 0 0 0 4 6 14 13 22
63 67 69 70 67 58 26 0 1 4 1 0 0 0 1 1 0 0 0 0 6 31 0 0 0 0 0 0 0 1 0 5 17 5 5 0 0 1 0 3 0 1 5 25 40 41 2
92 78 74 64 74 67 30 0 0 2 1 2 2 0 1 0 0 0 0 0 46 0 0 0 0 1 0 0 2 14 9 2 18 2 13 13 14 0 2 3 8 0 3 8 22 32 13
72 75 68 67 91 72 69 24 0 3 1 0 0 3 4 0 0 0 0 7 9 1 29 26 25 0 0 8 13 29 23 7 12 12 7 38 26 1 2 0 10 6 20 2 12 0 26
65 66 72 85 98 84 79 78 26 3 2 0 0 1 5 4 9 4 2 4 19 32 48 20 22 0 1 1 20 20 27 1 3 24 23 15 6 2 17 9 1 4 13 55 19 40 33
58 74 98 133 121 115 101 95 63 15 1 0 8 1 2 2 9 2 3 8 16 41 4 0 2 4 0 0 16 42 1 0 5 46 5 11 1 6 0 5 8 18 41 37 18 10 35
66 57 82 94 95 119 26 78 126 69 7 0 13 4 7 10 4 5 12 9 9 30 1 0 0 1 10 16 14 13 0 1 5 32 7 17 10 27 11 0 0 0 8 13 139 39 19
52 48 50 68 120 130 1 0 87 66 9 3 35 12 9 12 10 13 4 1 10 0 0 1 0 2 9 13 14 2 27 0 0 0 0 0 1 8 14 0 0 0 0 3 2 10 0
39 17 37 59 81 121 98 2 53 63 9 0 14 23 7 8 9 18 12 8 23 0 0 2 8 21 16 21 15 21 32 0 0 0 0 0 0 3 24 0 0 1 0 0 0 0 0
86 76 73 91 56 95 59 109 87 87 40 4 9 32 2 4 7 14 41 6 19 11 5 11 21 31 17 13 16 19 33 2 0 0 0 0 0 0 0 0 0 0 0 0 0 0 0
95 96 126 131 82 87 76 3 13 103 62 11 23 52 43 68 0 17 27 49 29 15 11 11 35 30 27 26 23 13 43 11 1 0 0 0 0 0 0 0 0 0 0 0 0 0 0
88 95 84 52 107 129 112 32 11 116 4 8 20 71 152 117 44 42 19 23 35 26 36 17 33 37 26 21 3 1 0 14 0 0 5 0 8 0 0 0 0 0 0 0 0 0 2
46 52 54 89 101 71 132 11 33 64 21 11 237 268 173 129 110 65 22 19 22 20 18 39 43 24 0 0 0 0 0 0 0 0 1 0 0 0 0 0 0 0 0 0 0 0 0
72 66 112 130 97 61 7 8 70 67 39 54 66 47 129 304 86 46 30 23 28 24 1 6 1 0 0 0 0 0 0 0 0 0 0 0 0 0 0 0 2 0 0 0 0 3 0
27 27 45 55 73 60 39 22 57 54 79 14 25 21 23 12 99 33 44 29 96 7 2 5 0 0 0 41 29 0 0 0 0 0 0 0 0 18 5 3 11 4 0 1 0 3 1
40 14 16 22 19 33 46 60 46 59 51 22 30 48 43 11 3 8 14 6 4 27 15 1 0 0 0 66 56 19 4 1 0 0 0 2 10 4 14 14 4 0 2 0 1 3 0
14 8 15 45 56 51 43 40 48 42 55 19 30 20 42 7 7 3 3 0 73 27 17 3 4 7 1 20 17 28 19 0 10 2 0 8 7 4 11 36 13 0 1 2 4 3 0
12 31 33 32 19 3 21 42 32 24 21 39 13 39 45 16 3 0 0 0 0 1 25 29 7 0 27 10 9 5 31 39 28 26 11 38 4 6 4 8 1 5 5 3 9 2 3

GFSGBSN_con_sbcape_111.txt.gz
CAPE
2 3 5 7 13 12 4 5 6 7 8 8 1 0 0 0 0 0 1 0 0 9 1 0 0 0 0 0 0 0 0 0 0 0 0 0 0 0 0 0 0 0 0 0 0 0 0
0 4 7 10 7 5 2 3 2 8 6 9 4 0 0 0 4 11 6 0 1 4 0 0 0 0 0 0 0 0 0 0 0 0 0 0 0 0 0 0 0 0 0 0 0 0 0
1 9 10 12 15 9 9 12 11 4 0 11 13 4 1 0 6 6 7 7 5 8 0 0 0 0 0 0 0 0 0 0 0 0 0 0 0 0 0 0 0 0 0 0 0 0 0
9 10 13 18 17 14 14 18 15 11 4 14 12 1 0 1 2 4 2 2 13 5 0 0 0 0 0 0 0 0 0 0 0 0 0 0 0 0 0 0 0 0 0 0 0 0 0
12 15 9 15 11 17 10 9 10 14 14 8 3 0 0 0 0 6 3 9 11 4 0 0 0 0 0 0 0 0 0 0 0 0 0 0 0 0 0 0 0 0 0 0 0 0 0
11 9 11 17 22 16 10 9 12 11 2 0 0 2 2 0 0 0 5 0 2 0 0 0 0 1 0 0 0 0 0 0 0 0 0 0 0 0 0 0 0 0 0 0 0 0 0
9 6 4 16 22 10 4 10 12 0 0 0 0 0 1 0 0 0 0 0 0 0 0 0 0 0 0 0 0 0 0 0 0 0 0 0 0 0 0 0 0 0 0 0 0 0 0
44 39 2 0 3 4 6 8 5 0 5 0 0 0 0 0 0 0 0 0 0 0 0 0 0 0 0 0 0 0 0 0 0 0 0 0 0 0 0 0 0 0 0 0 0 0 1
62 55 25 2 1 2 6 6 2 0 0 0 0 0 0 0 0 0 0 0 0 1 0 0 0 0 0 0 0 0 0 0 0 0 0 0 0 0 0 0 0 0 2 0 0 0 0
69 73 55 29 15 9 7 19 0 0 0 2 2 0 0 0 1 0 2 1 0 2 0 0 0 0 0 0 0 0 0 0 0 0 0 0 0 0 0 0 0 0 0 0 0 0 0
58 47 64 60 60 42 22 13 4 1 2 4 3 1 0 0 0 0 0 0 0 1 0 0 0 0 0 0 0 0 0 0 0 0 0 0 0 0 0 0 0 0 0 0 0 0 1
65 63 58 62 51 50 49 31 5 0 3 2 4 0 0 0 0 0 0 0 1 7 0 0 0 0 0 0 0 0 0 0 0 0 0 0 0 0 0 0 0 0 0 0 0 2 3
65 74 70 62 57 55 48 42 18 0 2 7 1 0 0 0 0 0 0 4 8 14 0 0 0 0 0 0 0 0 0 0 0 0 0 0 0 0 0 0 0 0 0 0 0 9 0
47 60 93 87 72 60 54 53 3 0 0 0 0 0 0 0 0 0 1 20 7 0 0 0 0 0 0 0 0 0 0 0 0 0 0 0 0 0 0 0 0 0 0 0 0 0 8
57 74 91 59 79 73 69 68 7 0 0 0 0 0 0 0 0 0 13 45 12 0 0 0 0 0 0 0 0 0 3 0 0 0 0 0 0 0 0 0 0 0 0 0 1 0 0
78 69 84 79 75 86 86 81 64 7 1 0 0 0 0 0 0 0 43 28 0 0 0 54 19 0 0 0 1 19 9 0 0 2 0 0 2 1 4 0 0 0 0 0 4 2 0
83 56 81 78 87 96 91 104 94 79 26 1 0 1 0 1 0 0 6 0 6 0 1 57 37 17 0 0 0 15 29 0 0 0 0 0 0 0 1 0 0 0 4 24 16 57 10
86 83 110 85 92 111 103 126 118 109 83 0 1 0 1 1 0 0 0 1 3 0 34 55 7 1 0 0 0 1 26 13 0 1 5 0 0 0 0 0 0 0 0 9 6 8 7
92 96 92 81 82 102 112 79 0 104 113 0 1 4 8 4 0 1 0 0 30 22 47 5 0 1 0 0 0 0 0 0 0 0 28 0 2 0 0 0 0 0 0 41 36 5 1
95 88 77 74 67 78 88 95 29 37 110 5 1 1 6 1 5 5 0 1 38 2 5 7 0 0 0 0 0 0 1 0 0 0 0 0 0 0 0 0 0 0 0 0 4 0 0
93 101 80 47 45 75 66 80 109 69 94 10 9 3 0 0 1 9 20 11 1 46 3 0 4 0 1 0 0 0 14 0 0 0 0 0 0 0 0 0 0 0 0 0 1 0 0
99 86 80 43 46 50 39 118 142 166 137 1 0 18 32 0 0 4 1 251 19 17 31 0 1 1 4 0 0 0 23 1 0 0 0 0 0 0 0 0 0 0 0 0 0 0 0
75 100 83 82 45 53 38 111 119 139 62 3 4 6 2 1 2 7 0 0 66 50 83 3 0 4 16 1 0 0 0 0 0 0 0 0 0 0 0 0 0 0 0 0 0 0 0
56 58 53 50 33 54 93 152 135 101 50 6 9 17 41 3 0 1 10 0 54 104 50 59 11 5 1 0 0 0 0 0 0 0 0 0 0 0 0 0 0 0 0 0 0 0 0
9 24 41 49 71 100 137 133 156 62 51 19 9 15 39 2 25 35 42 34 25 48 64 23 30 4 0 0 0 0 0 0 0 0 0 0 0 0 0 0 0 0 0 0 0 1 0
65 67 69 110 128 117 134 141 127 68 58 15 5 0 6 4 0 11 37 44 14 4 4 5 0 0 0 0 0 2 0 0 0 0 0 0 0 0 0 0 0 0 0 0 0 0 0
57 40 49 83 136 148 98 57 1 59 92 12 2 0 15 1 0 5 20 1 7 2 0 0 0 0 0 0 0 0 0 0 0 0 0 0 0 0 0 0 0 0 0 0 0 0 0
37 52 40 46 90 52 67 64 8 45 63 2 1 0 23 2 2 5 0 1 3 1 0 0 0 0 0 0 2 5 3 4 0 0 0 0 0 0 0 0 2 0 0 0 0 0 0
24 31 28 36 14 36 63 49 32 44 58 0 16 11 22 1 5 8 4 0 0 0 0 0 0 0 0 0 0 0 4 0 0 1 2 2 0 0 1 0 0 0 0 3 0 0 0

GFSGBSN_con_sbcape_114.txt.gz
CAPE
7 6 2 1 2 5 3 1 0 0 0 0 4 0 0 0 0 0 0 0 0 0 9 5 0 0 0 0 0 0 0 0 0 0 0 0 0 0 0 0 0 0 0 0 0 0 0
5 3 4 2 3 5 5 3 0 0 0 0 4 7 3 0 0 2 5 4 2 0 7 0 0 0 0 0 0 0 0 0 0 0 0 0 0 0 0 0 0 0 0 0 0 0 0
3 4 11 6 4 4 4 5 6 4 0 0 5 16 13 5 5 8 4 1 5 8 13 4 0 0 0 0 0 0 0 0 0 0 0 0 0 0 0 0 0 0 0 0 0 0 0
1 5 3 17 9 10 9 8 8 10 6 0 9 6 3 0 2 4 6 0 6 14 12 0 0 0 0 0 0 0 0 0 0 0 0 0 0 0 0 0 0 0 0 0 0 0 0
18 13 9 15 6 9 13 10 11 8 16 11 3 2 0 0 0 0 10 9 12 17 10 0 0 0 0 0 0 0 0 0 0 0 0 0 0 0 0 0 0 0 0 0 0 0 0
13 16 10 18 17 19 17 13 12 18 11 1 0 6 0 0 0 1 3 4 2 0 0 0 0 0 0 0 0 0 0 0 0 0 0 0 0 0 0 0 0 0 0 0 0 0 0
20 20 18 17 22 11 12 10 16 11 0 0 1 10 1 0 0 0 0 0 0 0 0 0 0 0 0 0 0 0 0 0 0 0 0 0 0 0 0 0 0 0 0 0 0 0 0
65 56 32 24 21 0 2 9 12 8 0 7 16 1 0 2 6 0 0 0 0 0 0 0 0 0 0 0 0 0 0 0 0 0 0 0 0 0 0 0 0 0 0 0 0 0 0
76 64 80 52 22 1 0 6 15 8 0 0 6 6 3 0 2 0 0 0 0 0 0 0 0 0 0 0 0 0 0 0 0 0 0 0 0 0 0 0 0 0 0 0 0 0 0
82 84 94 72 48 40 25 21 24 20 0 4 6 3 2 0 2 1 3 0 0 0 0 0 0 0 0 0 0 0 0 0 0 0 0 0 0 0 0 0 0 0 0 0 0 0 0
81 86 91 92 85 69 59 42 27 17 0 0 0 1 5 13 0 7 0 0 0 0 0 0 0 0 0 0 0 0 0 0 0 0 0 0 0 0 0 0 0 0 0 0 0 0 0
75 64 63 66 67 64 57 48 47 34 7 0 0 1 2 18 2 0 0 0 0 0 0 0 0 0 0 0 0 0 0 0 0 0 0 0 0 0 0 0 0 0 0 0 0 0 0
81 81 70 67 64 68 66 64 53 45 0 0 0 0 9 4 2 0 0 2 4 0 0 0 0 0 0 0 0 0 0 0 0 0 0 0 0 0 0 0 0 0 0 0 0 0 0
82 81 47 87 88 71 70 59 55 28 0 0 0 0 0 2 0 0 6 48 6 0 0 0 0 0 0 0 0 0 0 0 0 0 0 0 0 0 0 0 0 0 0 0 0 0 0
75 78 78 91 91 93 75 66 63 20 0 0 0 0 0 0 0 1 45 37 0 0 0 0 0 0 0 0 0 0 0 0 0 0 0 0 0 0 0 0 0 0 0 0 0 0 0
90 77 88 90 103 102 69 77 74 56 5 0 0 0 0 0 0 6 83 4 0 0 0 0 0 0 0 0 0 0 0 0 0 0 0 0 0 0 0 0 0 0 0 0 0 0 0
110 103 109 106 104 97 73 74 85 96 40 7 0 1 1 0 0 13 0 0 0 0 0 12 0 16 0 0 0 20 19 0 0 0 0 0 0 0 0 0 0 0 0 5 0 0 5
102 137 147 113 59 81 79 71 87 119 107 8 4 7 0 0 0 0 0 9 0 1 0 4 12 17 0 0 0 1 59 26 0 0 2 0 0 0 0 0 0 0 0 13 0 0 1
96 106 105 98 87 125 108 112 137 115 128 1 6 2 0 2 15 4 1 4 5 12 9 17 37 8 0 0 0 0 0 0 0 0 39 0 2 1 0 0 0 0 0 0 0 0 1
113 113 114 85 114 109 107 102 149 119 137 22 1 0 2 2 3 0 0 6 19 3 4 38 23 22 0 0 1 0 0 0 0 0 0 5 8 2 0 0 0 0 0 6 9 0 0
121 111 113 127 107 111 117 110 92 129 126 16 2 2 0 0 1 3 3 0 0 16 37 0 42 3 0 0 0 3 4 0 0 0 0 0 0 0 0 0 0 0 0 0 2 0 0
116 110 100 97 92 99 77 100 123 127 165 36 0 3 7 0 0 1 11 95 0 0 26 14 2 0 0 0 0 0 0 0 0 0 0 0 0 0 0 0 0 0 0 0 0 0 0
100 111 116 107 108 115 98 133 143 143 138 1 2 7 15 0 0 1 1 4 1 17 34 48 1 20 28 0 0 0 0 0 0 0 0 0 0 1 1 0 0 0 0 0 0 0 0
117 109 102 102 95 89 70 147 176 189 118 0 6 26 21 8 12 2 0 0 0 2 69 45 53 20 0 0 0 0 0 0 0 0 0 0 0 0 0 0 0 0 0 0 0 0 0
40 65 93 98 92 99 139 172 176 200 149 0 40 47 9 0 3 16 5 4 0 0 8 127 136 11 0 0 0 0 0 0 0 0 0 0 0 3 0 0 0 0 0 0 0 0 0
12 10 6 14 83 125 120 144 146 160 151 0 15 0 2 5 0 1 29 1 0 0 17 40 0 0 0 0 0 2 0 0 0 0 0 0 0 0 0 0 0 0 0 0 0 0 0
9 46 24 26 139 116 117 121 134 157 167 28 6 7 5 0 0 3 10 0 0 7 0 2 3 0 0 0 0 0 0 0 0 0 0 0 0 0 0 0 0 0 0 0 0 0 0
64 93 85 113 124 126 111 104 154 137 181 26 0 2 20 2 2 4 6 19 12 0 0 0 0 0 0 0 0 0 0 0 0 0 0 0 0 0 1 0 0 0 0 0 0 0 0
37 37 41 58 134 127 137 148 122 97 42 28 6 1 16 0 0 3 6 2 0 0 0 0 0 0 0 0 0 0 0 0 0 0 0 0 0 0 0 0 0 0 0 0 0 0 1

GFSGBSN_con_sbcape_117.txt.gz
CAPE
7 4 14 14 12 4 0 0 4 0 0 0 0 0 0 0 0 0 0 1 2 1 0 6 0 0 0 0 0 0 0 0 0 0 0 0 0 0 0 0 0 0 0 0 0 0 0
24 18 13 8 7 1 3 6 4 0 0 0 0 0 7 0 0 0 5 4 0 3 0 9 0 0 0 0 0 0 0 0 0 0 0 0 0 0 0 0 0 0 0 0 0 0 0
23 16 17 17 9 8 6 6 8 4 0 0 0 6 6 0 0 2 4 0 2 5 5 19 0 0 0 0 0 0 0 0 0 0 0 0 0 0 0 0 0 0 0 0 0 0 0
25 14 16 26 21 13 14 17 16 19 15 4 1 7 0 0 0 0 9 0 3 9 5 16 0 0 0 0 0 0 0 0 0 0 0 0 0 0 0 0 0 0 0 0 0 0 0
24 27 22 33 31 23 19 21 17 7 6 12 5 0 0 0 0 0 10 13 12 19 25 0 0 2 0 0 0 0 0 0 0 0 0 0 0 0 0 0 0 0 0 0 0 0 0
29 32 25 38 20 22 19 26 17 18 14 8 0 0 0 0 0 0 10 7 2 0 1 0 0 0 0 0 0 0 0 0 0 0 0 0 0 0 0 0 0 0 0 0 0 0 0
37 21 23 32 32 20 9 23 22 21 11 0 0 0 7 0 2 3 0 0 0 0 0 0 0 0 0 0 0 0 0 0 0 0 0 0 0 0 0 0 0 0 0 0 0 0 0
67 59 55 47 31 15 14 14 21 9 11 0 0 2 0 4 3 0 0 0 0 0 0 0 0 0 0 0 0 0 0 0 0 0 0 0 0 0 0 0 0 0 0 0 0 0 0
73 77 75 65 65 47 10 11 18 12 10 0 0 0 3 2 2 4 0 0 0 0 0 0 0 0 0 0 0 0 0 0 0 0 0 0 0 0 0 0 0 0 0 0 0 0 0
76 64 71 78 70 71 49 34 25 31 18 0 6 0 0 0 11 15 4 0 0 0 0 0 0 0 0 0 0 0 0 0 0 0 0 0 0 0 0 0 0 0 0 0 0 0 0
85 74 70 76 84 61 58 63 44 40 28 16 0 0 0 7 0 5 0 0 0 0 0 0 0 0 0 0 0 0 0 0 0 0 0 0 0 0 0 0 0 0 0 0 0 0 0
103 107 89 92 86 90 80 73 64 48 34 22 0 0 5 6 15 0 0 0 0 0 0 0 0 0 0 0 0 0 0 0 0 0 0 0 0 0 0 0 0 0 0 0 0 0 0
94 86 80 90 80 65 82 76 63 59 49 22 0 0 8 11 1 0 0 4 1 0 0 0 0 0 0 0 0 0 0 0 0 0 0 0 0 0 0 0 0 0 0 5 0 0 0
144 123 97 93 82 71 82 88 72 59 58 18 0 0 0 0 0 0 5 38 0 0 0 0 0 0 0 0 0 0 0 0 0 0 0 0 0 0 0 0 0 0 0 1 0 0 0
184 165 130 116 95 95 82 87 96 82 61 14 0 0 0 0 2 8 47 31 0 0 0 0 0 0 0 0 0 0 0 0 0 0 0 0 0 0 0 0 0 0 0 0 0 0 0
157 119 150 129 109 105 104 130 128 106 80 21 0 0 0 0 0 25 107 16 0 0 0 0 0 0 0 0 0 0 0 0 0 0 0 0 0 0 0 0 0 0 0 0 0 0 0
77 125 133 118 117 105 98 112 100 90 105 33 0 4 0 0 2 91 40 1 0 0 0 0 0 0 0 0 0 0 0 0 0 0 0 0 2 0 0 0 0 0 0 0 0 0 0
129 44 100 121 109 116 102 113 80 105 101 30 7 32 0 5 14 0 11 1 0 0 0 0 0 0 0 0 0 0 0 10 0 5 3 0 0 5 0 0 0 0 0 0 0 0 0
187 61 65 108 113 126 145 115 84 95 116 13 20 1 0 6 21 0 0 1 6 0 4 12 0 0 0 0 21 0 0 0 0 3 9 1 0 7 1 0 0 0 0 0 0 0 0
223 155 71 94 126 154 137 118 100 111 133 20 0 0 1 2 1 0 0 25 26 6 7 22 11 14 6 0 0 3 0 0 0 0 14 13 1 8 0 0 0 0 0 0 0 0 0
188 129 134 182 183 124 161 115 124 123 127 42 0 1 0 0 0 9 12 0 4 24 19 16 14 12 8 7 0 0 0 0 0 8 3 0 0 1 0 0 0 1 0 0 0 0 0
73 73 160 140 127 175 141 143 158 125 133 34 1 2 10 0 0 8 9 8 7 0 11 68 21 2 26 10 0 0 17 0 0 0 0 0 0 0 0 0 0 0 0 0 0 0 0
77 169 157 146 137 129 123 141 163 157 92 12 0 5 14 1 0 4 1 0 0 9 0 0 12 31 33 0 0 0 0 0 0 0 0 0 0 0 1 0 14 6 0 0 0 0 0
114 130 152 133 126 117 102 167 185 135 63 2 8 3 5 0 1 0 0 0 0 0 2 18 12 8 0 0 0 4 0 0 0 0 0 0 0 0 0 0 5 0 0 0 0 0 0
85 102 124 140 124 105 162 212 193 209 127 0 6 9 41 15 0 16 0 0 0 0 0 0 0 19 0 0 1 0 1 0 0 0 0 0 0 0 0 0 0 0 0 0 0 0 0
24 37 57 96 133 129 154 199 200 222 149 22 0 4 7 17 1 2 1 0 0 5 0 0 40 11 0 0 2 0 0 0 0 0 0 0 0 0 1 0 0 0 0 0 0 0 0
21 12 15 19 31 101 116 186 212 203 146 16 7 24 83 23 0 2 9 6 0 0 1 0 36 2 2 2 0 0 0 0 0 0 1 0 0 0 0 0 0 0 0 0 0 0 0
1 18 16 13 12 13 55 161 168 160 134 65 20 40 13 1 1 1 1 0 5 0 0 0 2 3 1 0 0 0 0 0 0 0 0 0 0 0 0 0 0 0 0 0 0 0 0
76 111 102 89 147 39 36 128 129 147 167 93 37 29 24 1 0 0 0 0 0 0 0 0 0 0 0 0 0 0 0 0 0 0 0 0 0 0 0 0 0 0 0 0 0 0 0

GFSGBSN_con_sbcape_120.txt.gz
CAPE
6 6 8 10 8 2 0 0 0 0 0 0 0 0 0 0 0 0 0 0 0 0 0 0 2 0 0 0 0 0 0 0 0 0 0 0 0 0 0 0 0 0 0 0 0 0 0
16 16 15 14 12 8 3 5 5 0 0 0 0 0 0 3 0 0 0 1 2 0 0 3 0 0 0 0 0 0 0 0 0 0 0 0 0 0 0 0 0 0 0 0 0 0 0
48 33 29 20 12 16 13 8 8 8 3 0 0 0 7 0 0 0 1 3 1 0 0 7 0 0 0 0 0 0 0 0 0 0 0 0 0 0 0 0 0 0 0 0 0 0 0
66 71 18 32 28 18 16 9 15 9 8 1 0 10 0 0 0 0 1 1 1 1 1 17 0 0 0 0 0 0 0 0 0 0 0 0 0 0 0 0 0 0 0 0 0 0 0
57 55 38 36 31 29 22 18 25 14 5 19 18 8 0 0 0 0 0 5 4 13 23 1 0 0 0 0 0 0 0 0 0 0 0 0 0 0 0 0 0 0 0 0 0 0 0
36 30 18 31 51 36 31 25 27 24 22 18 14 0 0 0 0 0 0 1 9 2 0 0 0 0 0 0 0 0 0 0 0 0 0 0 0 0 0 0 0 0 0 0 0 0 0
62 67 29 38 60 33 21 17 38 23 26 20 1 0 5 0 0 0 0 0 0 0 6 0 0 0 0 0 0 0 0 0 0 0 0 0 0 0 0 0 0 0 0 0 0 0 0
121 127 63 58 45 34 30 37 39 23 27 16 0 3 1 4 0 2 0 0 0 0 0 0 0 0 0 0 0 0 0 0 0 0 0 0 0 0 0 0 0 0 0 0 0 0 0
103 132 101 95 88 61 44 43 33 30 20 15 0 0 2 0 2 16 2 0 0 0 0 0 0 0 0 0 0 0 0 0 0 0 0 0 0 0 0 0 0 0 0 0 0 0 0
134 125 112 107 96 73 69 52 39 41 30 16 0 6 0 0 2 0 2 0 0 0 0 0 0 0 0 0 0 0 0 0 0 0 0 0 0 0 0 0 0 0 0 0 0 0 0
144 145 116 117 104 82 65 54 57 55 43 32 10 0 0 4 0 5 0 0 0 0 0 0 0 0 0 0 0 0 0 0 0 0 0 0 0 0 0 0 0 0 0 0 0 0 0
131 157 168 141 116 97 77 59 56 68 49 35 26 0 0 0 6 0 0 0 0 0 0 0 0 0 0 0 0 0 0 0 0 0 0 0 0 0 0 0 0 0 0 0 0 0 0
61 135 152 158 114 96 98 85 58 64 65 65 46 9 0 0 0 0 0 17 0 0 0 0 0 0 0 0 0 0 0 0 0 0 0 0 0 0 0 0 0 0 0 7 0 0 0
72 84 149 160 163 134 101 84 74 66 71 74 52 23 1 0 0 0 0 67 0 0 0 0 0 0 0 0 0 0 0 0 0 0 0 0 0 0 0 0 0 0 0 8 0 0 0
74 129 64 79 138 152 98 62 61 64 77 70 31 0 3 2 0 11 23 21 0 0 0 0 0 0 0 0 0 0 0 0 0 0 0 0 0 0 0 0 0 0 0 0 0 0 0
57 124 155 74 56 143 78 77 73 77 77 56 0 0 10 0 0 50 31 3 0 0 0 0 0 0 0 0 0 0 0 0 0 0 0 0 0 0 0 0 0 0 0 0 1 2 0
56 42 49 151 67 74 63 57 73 96 97 10 1 20 0 0 47 58 21 0 0 0 0 0 0 0 0 0 0 0 0 0 0 0 0 0 0 0 0 0 0 0 0 0 0 0 0
100 4 22 206 240 116 85 98 63 98 96 12 13 20 0 1 48 30 26 0 0 0 0 0 0 0 0 0 0 0 0 0 0 0 0 0 1 0 0 0 0 0 0 0 0 0 0
136 24 0 139 163 77 56 82 142 193 137 28 25 8 0 3 40 3 6 10 0 0 1 3 0 3 0 8 5 0 0 0 0 2 1 2 0 2 0 0 0 0 0 0 0 0 0
141 38 32 81 71 97 78 93 139 151 179 27 1 0 0 4 10 0 6 6 9 16 24 21 21 11 5 1 0 0 0 0 0 0 11 0 0 1 0 0 0 0 0 0 7 1 0
171 24 169 73 56 128 232 174 161 158 157 17 2 0 0 0 2 4 15 0 2 7 25 28 39 14 5 22 0 0 0 0 0 0 0 0 16 0 0 0 0 0 0 0 14 0 0
70 76 56 176 299 321 244 225 170 142 160 53 0 1 13 0 1 15 18 0 0 0 12 29 9 0 14 14 0 0 0 0 0 0 0 0 0 0 0 0 2 0 0 0 0 4 2
122 7 266 181 190 192 162 236 211 196 104 4 11 3 0 0 0 3 1 0 0 2 0 0 3 30 9 0 0 0 0 0 0 0 0 0 0 0 0 0 0 13 0 0 0 0 0
16 42 25 86 148 153 160 191 147 178 46 3 11 2 2 0 0 0 0 0 0 0 0 0 0 1 0 0 0 0 0 0 0 0 0 0 0 0 0 0 26 0 0 0 0 0 0
22 20 36 41 97 97 144 215 212 220 120 0 1 7 7 0 0 7 1 0 0 0 0 0 0 3 0 0 44 30 2 0 1 1 0 0 0 0 0 0 0 0 0 0 0 0 0
33 38 49 67 106 108 151 138 113 153 130 0 0 2 17 0 0 0 0 0 0 0 0 0 0 0 0 15 17 26 15 5 2 2 0 0 0 0 1 0 0 0 0 0 0 0 0
7 3 3 22 64 103 96 110 139 158 122 9 4 1 14 37 0 0 59 19 0 0 0 1 1 26 0 2 1 7 3 0 0 0 1 2 0 0 0 0 0 0 0 0 0 0 0
26 19 7 5 8 39 100 154 153 164 167 44 6 0 2 31 0 0 3 19 40 1 5 0 6 1 1 1 7 0 0 0 0 0 0 0 0 0 0 0 0 0 0 0 0 0 0
17 7 12 20 8 44 38 87 134 140 143 59 2 0 0 32 16 0 0 0 0 0 0 0 0 0 0 0 0 0 2 0 0 0 0 0 0 0 0 0 0 0 0 0 0 0 0

GFSGBSN_con_sbcape_123.txt.gz
CAPE
0 0 0 0 0 0 0 0 0 0 0 0 0 0 0 0 0 0 0 0 0 0 0 0 0 0 0 0 0 0 0 0 0 0 0 0 0 0 0 0 0 0 0 0 0 0 0
4 3 5 9 10 4 3 3 1 0 0 0 0 0 0 0 0 0 0 0 0 0 0 0 0 0 0 0 0 0 0 0 0 0 0 0 0 0 0 0 0 0 0 0 0 0 0
18 17 16 17 8 7 8 9 14 5 3 1 0 0 0 0 0 0 0 2 0 0 0 0 0 0 0 0 0 0 0 0 0 0 0 0 0 0 0 0 0 0 0 0 0 0 0
19 28 26 38 32 33 0 13 20 21 14 3 0 0 3 0 0 0 0 0 0 0 0 6 0 0 0 0 0 0 0 0 0 0 0 0 0 0 0 0 0 0 0 0 0 0 0
62 27 29 30 32 32 35 32 9 31 31 28 20 17 0 0 0 0 0 1 6 1 15 0 0 0 0 0 0 0 0 0 0 0 0 0 0 0 0 0 0 0 0 0 0 0 0
85 61 36 54 14 7 19 17 29 26 32 33 33 10 0 0 0 0 0 5 21 2 0 0 0 0 0 0 0 0 0 0 0 0 0 0 0 0 0 0 0 0 0 0 0 0 0
113 102 74 56 103 47 29 40 40 30 23 32 25 7 7 0 0 0 0 0 0 0 5 0 0 0 0 0 0 0 0 0 0 0 0 0 0 0 0 0 0 0 0 0 0 0 0
122 147 137 99 110 100 86 48 27 15 25 41 17 17 2 0 0 4 0 0 0 0 0 0 0 0 0 0 0 0 0 0 0 0 0 0 0 0 0 0 0 0 0 0 0 0 0
111 138 61 99 158 118 138 61 52 41 33 42 22 25 0 0 1 21 9 0 0 0 0 0 0 0 0 0 0 0 0 0 0 0 0 0 0 0 0 0 0 0 0 0 0 0 0
104 116 105 94 89 109 116 82 52 66 44 32 24 24 0 0 3 2 3 0 0 0 0 0 0 0 0 0 0 0 0 0 0 0 0 0 0 0 0 0 0 0 0 0 0 0 0
58 108 123 134 101 76 76 70 80 92 90 47 24 38 1 1 0 3 0 0 0 0 0 0 0 0 0 0 0 0 0 0 0 0 0 0 0 0 0 0 0 0 0 0 0 0 0
46 67 89 146 121 90 88 78 70 84 101 97 56 26 0 1 8 0 0 0 0 0 0 0 0 0 1 0 0 0 0 0 0 0 0 0 0 0 0 0 0 0 0 0 0 0 2
25 42 76 123 154 118 89 110 90 81 81 81 102 33 1 0 0 0 0 25 0 0 0 0 0 0 0 0 0 0 0 0 0 0 0 0 0 0 0 0 0 0 2 2 1 2 0
57 13 19 124 82 171 140 82 96 68 65 73 65 48 13 0 0 0 7 39 0 0 0 0 0 0 0 0 0 0 0 0 0 0 0 0 0 0 0 0 0 0 0 1 0 0 0
51 52 44 11 43 183 158 68 75 53 60 68 62 1 1 0 0 7 53 32 0 0 0 0 0 0 0 0 0 0 0 0 0 0 0 0 0 0 0 0 0 0 0 0 9 1 3
19 18 49 42 49 32 121 90 62 109 106 80 0 3 10 0 5 28 32 10 0 0 0 0 0 0 0 0 0 0 0 0 0 0 0 0 0 0 0 0 0 0 0 2 32 29 4
57 92 77 16 7 35 22 146 114 98 119 8 0 24 0 20 92 49 37 0 0 0 0 0 0 0 0 0 0 0 0 0 0 0 0 0 1 0 0 0 0 0 1 0 3 1 23
82 81 57 3 22 34 58 50 137 89 61 24 3 4 1 87 29 17 9 0 0 0 0 0 0 0 0 0 0 0 0 0 0 0 0 3 14 33 3 0 0 1 12 1 40 3 2
98 98 53 22 14 21 3 72 54 33 65 10 18 0 0 24 22 11 0 0 4 4 0 0 0 0 0 1 3 4 1 0 0 20 28 33 7 51 36 4 0 1 1 9 0 1 3
119 130 96 124 74 35 70 141 89 67 73 9 4 13 1 4 27 42 0 0 3 3 2 0 7 11 4 3 0 14 3 6 0 2 62 42 12 44 34 0 0 9 12 43 53 65 27
111 131 105 89 109 146 316 144 74 67 66 3 3 12 0 0 23 7 19 4 0 2 18 8 0 19 7 15 7 1 0 0 0 0 33 45 58 21 10 0 5 16 0 24 56 42 57
67 59 84 125 10 44 86 58 56 53 72 20 0 6 11 0 11 6 0 0 0 3 30 77 18 0 17 42 7 0 13 14 18 0 25 0 37 0 5 0 17 20 0 0 3 3 61
102 105 109 75 0 32 12 49 64 66 101 0 3 3 0 0 10 51 11 0 0 3 9 14 40 38 30 1 5 19 1 1 27 14 0 0 2 1 10 0 11 34 0 0 0 0 0
121 122 160 149 5 10 101 52 47 83 73 2 5 2 2 0 1 2 1 0 0 2 3 6 22 23 0 0 1 0 0 0 0 0 7 8 3 7 11 22 60 0 0 0 0 0 0
31 30 25 11 87 133 195 121 133 142 1 0 6 4 3 3 0 0 0 0 0 0 1 0 3 6 19 31 32 15 3 1 0 0 0 2 35 33 49 28 0 0 0 0 0 0 0
13 21 11 5 19 58 98 109 134 143 33 0 2 0 3 0 0 0 0 0 0 0 0 0 0 0 12 42 62 17 20 9 9 2 4 4 1 32 5 3 1 0 0 0 0 0 0
26 28 16 15 25 24 75 135 173 143 63 0 0 0 6 35 0 4 2 0 0 0 0 0 0 8 8 5 24 13 10 15 7 28 3 9 7 4 3 0 0 0 0 0 0 0 0
12 10 13 16 29 40 62 104 124 137 96 0 0 0 1 9 0 20 14 16 34 0 3 0 63 39 26 33 15 12 2 2 1 0 0 3 7 0 1 4 0 0 0 0 0 0 0
10 11 8 0 0 0 25 66 83 78 71 4 0 1 0 35 4 1 2 0 1 1 11 2 5 0 1 1 1 6 5 3 0 7 0 16 4 0 0 0 0 0 0 0 0 0 0

GFSGBSN_con_sbcape_126.txt.gz
CAPE
34 74 51 11 1 0 0 0 0 0 0 0 0 0 0 0 0 0 0 0 0 0 0 0 0 0 0 0 0 0 0 0 0 0 0 0 0 0 0 0 0 0 0 0 0 0 0
2 5 4 0 0 0 1 1 0 0 0 0 0 0 0 0 0 0 0 0 0 0 0 0 0 0 0 0 0 0 0 0 0 0 0 0 0 0 0 0 0 0 0 0 0 0 0
9 6 1 5 4 5 6 5 12 6 2 0 0 0 0 0 0 0 0 0 0 0 0 0 0 0 0 0 0 0 0 0 0 0 0 0 0 0 0 0 0 0 0 0 0 0 0
6 16 15 12 9 2 8 9 15 3 9 0 0 1 0 0 0 0 0 0 0 0 0 0 0 0 0 0 0 0 0 0 0 0 0 0 0 0 0 0 0 0 0 0 0 0 0
73 80 50 45 26 13 8 1 3 13 17 2 2 14 9 0 0 0 0 0 0 0 3 0 0 0 0 0 0 0 0 0 0 0 0 0 0 0 0 0 0 0 0 0 0 0 0
35 82 76 61 66 17 13 6 3 7 3 14 5 9 7 0 0 0 0 1 10 2 1 0 0 0 0 0 0 0 0 0 0 0 0 0 0 0 0 0 0 0 0 0 0 0 0
34 42 99 76 83 53 66 30 10 21 5 0 5 5 2 6 0 0 4 3 0 0 0 0 0 0 0 0 0 0 0 0 0 0 0 0 0 0 0 0 0 0 0 0 0 0 0
39 19 25 77 93 135 92 78 38 46 44 13 4 0 9 0 0 3 13 0 0 0 0 0 0 0 0 0 0 0 0 0 0 0 0 0 0 0 0 0 0 0 0 0 0 0 0
18 35 24 55 140 112 98 107 56 26 44 67 18 8 10 0 1 24 6 0 0 0 0 0 0 0 0 0 0 0 0 0 0 0 0 0 0 0 0 0 0 0 0 0 0 0 0
0 6 28 21 58 70 61 71 70 45 24 24 42 32 5 0 14 9 6 0 4 0 0 0 0 0 0 0 0 0 0 0 0 0 0 0 0 0 0 0 0 0 0 0 0 0 0
0 0 5 29 72 94 59 51 58 63 37 26 8 38 33 1 0 3 0 0 2 0 0 0 0 0 0 0 0 0 0 0 0 0 0 0 0 0 0 0 0 0 0 0 0 0 0
0 0 0 5 26 91 78 52 46 63 51 33 13 24 31 59 39 8 0 2 7 0 0 0 0 2 0 0 0 0 0 0 0 0 0 0 0 0 0 0 0 0 0 0 0 0 0
2 0 2 0 5 6 95 88 48 59 52 56 40 25 4 16 1 31 83 131 1 0 0 0 0 0 0 0 1 0 0 0 0 0 0 0 0 0 0 0 0 0 0 0 0 3 0
4 22 6 16 0 0 7 86 68 46 55 56 47 52 9 0 12 53 129 158 6 0 0 0 0 0 0 0 0 0 0 0 0 0 0 0 0 0 0 0 0 0 0 0 0 0 0
26 20 43 33 21 0 10 46 84 70 44 48 78 117 63 66 21 134 93 135 0 0 0 0 0 0 0 0 0 0 0 0 0 0 0 0 0 0 0 0 0 2 1 0 8 8 23
26 25 26 46 33 18 22 17 26 87 66 50 61 42 72 49 46 30 79 28 0 0 0 0 0 0 0 0 0 0 0 0 0 0 0 0 0 0 0 0 0 0 9 12 56 20 35
22 23 22 22 52 27 4 7 22 83 103 42 17 17 52 107 79 50 54 3 0 3 0 0 0 0 0 0 5 0 0 0 0 1 0 0 0 13 6 12 19 12 59 52 72 68 53
15 17 21 16 30 65 50 60 22 36 12 23 23 27 109 162 37 64 62 0 5 4 0 0 0 1 3 9 5 30 1 6 0 20 22 22 46 39 25 35 60 90 73 88 124 71 93
15 20 18 24 50 40 13 13 13 33 44 10 8 28 84 103 44 73 3 9 34 15 0 0 2 6 21 20 13 42 51 30 51 59 116 101 99 84 65 61 65 69 66 78 84 80 54
12 23 14 38 79 99 98 80 36 3 76 8 14 24 4 39 37 15 2 3 10 20 29 21 26 16 20 11 17 27 46 84 65 100 59 73 51 55 55 20 53 81 40 65 84 135 66
14 29 16 57 77 69 98 78 78 3 15 5 9 16 20 3 53 21 35 8 6 35 25 41 49 36 43 23 23 37 40 44 54 55 27 41 21 12 14 31 44 59 43 41 64 80 104
22 33 31 30 42 64 79 98 128 42 33 7 1 12 3 62 24 11 64 50 20 12 41 20 20 3 6 19 13 11 52 53 64 61 89 97 14 10 1 6 17 33 12 8 33 36 67
37 31 28 58 93 114 133 98 0 174 46 3 4 5 82 63 119 138 83 4 5 46 46 46 50 62 52 56 68 58 58 59 60 64 64 70 55 58 16 10 57 80 0 0 1 45 74
26 45 33 92 85 98 58 33 1 181 17 4 8 5 46 36 276 96 0 0 2 29 35 24 51 59 44 45 60 49 71 64 69 63 71 55 58 85 47 44 94 8 0 0 15 33 55
32 58 39 72 105 115 31 37 7 40 18 4 9 6 24 126 127 93 81 14 20 50 37 60 35 57 59 47 41 34 36 14 1 1 15 47 73 56 82 43 21 18 1 4 31 0 10
45 44 19 21 20 106 46 18 13 42 55 20 30 16 22 121 84 48 86 52 135 101 84 37 48 46 33 59 59 34 40 25 23 29 4 8 45 160 46 63 46 37 2 0 0 5 0
17 9 8 11 0 60 68 32 34 32 28 51 11 40 50 78 20 28 55 76 64 70 78 53 51 86 103 78 68 47 48 34 41 31 50 30 52 18 65 57 38 0 0 0 32 37 0
14 30 20 17 14 6 27 25 41 62 39 34 53 80 20 52 49 31 17 48 98 152 121 118 183 124 108 79 55 45 45 53 61 75 23 65 67 69 69 53 60 0 0 0 60 0 0
6 13 37 33 7 22 16 61 80 161 28 22 28 48 22 30 41 16 1 1 53 117 136 142 73 117 146 107 104 88 75 87 49 53 53 82 192 183 98 121 0 0 1 0 0 0 0